<?xml version="1.0" encoding="UTF-8"?>
<gpx xmlns="http://www.topografix.com/GPX/1/1" xmlns:dkl="http://www.gpsware.de/DKL/1/1" xmlns:rtx="http://www.bike-gps.de/RTX/1/1" version="1.1" creator="KOMPASS Digital Map" xmlns:xsi="http://www.w3.org/2001/XMLSchema-instance" xsi:schemaLocation="http://www.topografix.com/GPX/1/1 http://www.topografix.com/GPX/1/1/gpx.xsd">
 <metadata>
 <name>KOMPASS Digital Map Track</name>
 <desc> </desc>
 <time>2010-09-02T14:35:36Z</time>
 <bounds minlat="47.079697" minlon="13.353530" maxlat="47.187965" maxlon="13.617672"/>
 </metadata>
 <trk>
 <name>2010_Zederhaus-_Riedingtal</name>
 <cmt>Zederhaus-
/Riedingtal</cmt>
 <extensions>
 <dkl:dkl>
 <dkl:format_version>1.1</dkl:format_version>
 <dkl:format>
 <dkl:color>FF0000</dkl:color>
 <dkl:style>00000000</dkl:style>
 <dkl:strength>3</dkl:strength>
 <dkl:transparent>0</dkl:transparent>
 </dkl:format>
 <dkl:profile>
 <dkl:mode>0</dkl:mode>
 <dkl:smooth>1</dkl:smooth>
 </dkl:profile>
 </dkl:dkl>
 </extensions>
 <trkseg>
 <trkpt lat="47.096516" lon="13.617509">
 <ele>1083.46</ele>
 <time>2010-09-02T08:06:30Z</time>
 </trkpt>
 <trkpt lat="47.096558" lon="13.617545">
 <ele>1083.66</ele>
 <time>2010-09-02T08:08:12Z</time>
 </trkpt>
 <trkpt lat="47.096558" lon="13.617553">
 <ele>1083.85</ele>
 <time>2010-09-02T08:08:13Z</time>
 </trkpt>
 <trkpt lat="47.096565" lon="13.617563">
 <ele>1083.90</ele>
 <time>2010-09-02T08:08:16Z</time>
 </trkpt>
 <trkpt lat="47.096714" lon="13.617636">
 <ele>1084.16</ele>
 <time>2010-09-02T08:08:26Z</time>
 </trkpt>
 <trkpt lat="47.096863" lon="13.617672">
 <ele>1084.35</ele>
 <time>2010-09-02T08:08:31Z</time>
 </trkpt>
 <trkpt lat="47.097004" lon="13.617531">
 <ele>1084.81</ele>
 <time>2010-09-02T08:08:37Z</time>
 </trkpt>
 <trkpt lat="47.097015" lon="13.617387">
 <ele>1085.07</ele>
 <time>2010-09-02T08:08:41Z</time>
 </trkpt>
 <trkpt lat="47.097015" lon="13.617343">
 <ele>1085.03</ele>
 <time>2010-09-02T08:08:42Z</time>
 </trkpt>
 <trkpt lat="47.096989" lon="13.616952">
 <ele>1084.80</ele>
 <time>2010-09-02T08:08:49Z</time>
 </trkpt>
 <trkpt lat="47.096935" lon="13.616339">
 <ele>1084.78</ele>
 <time>2010-09-02T08:08:59Z</time>
 </trkpt>
 <trkpt lat="47.096916" lon="13.616221">
 <ele>1084.72</ele>
 <time>2010-09-02T08:09:01Z</time>
 </trkpt>
 <trkpt lat="47.096859" lon="13.615731">
 <ele>1084.89</ele>
 <time>2010-09-02T08:09:09Z</time>
 </trkpt>
 <trkpt lat="47.096729" lon="13.615190">
 <ele>1084.99</ele>
 <time>2010-09-02T08:09:18Z</time>
 </trkpt>
 <trkpt lat="47.096596" lon="13.614582">
 <ele>1085.17</ele>
 <time>2010-09-02T08:09:28Z</time>
 </trkpt>
 <trkpt lat="47.096500" lon="13.613974">
 <ele>1085.07</ele>
 <time>2010-09-02T08:09:38Z</time>
 </trkpt>
 <trkpt lat="47.096462" lon="13.613345">
 <ele>1085.29</ele>
 <time>2010-09-02T08:09:48Z</time>
 </trkpt>
 <trkpt lat="47.096489" lon="13.612713">
 <ele>1085.88</ele>
 <time>2010-09-02T08:09:58Z</time>
 </trkpt>
 <trkpt lat="47.096523" lon="13.612151">
 <ele>1085.85</ele>
 <time>2010-09-02T08:10:07Z</time>
 </trkpt>
 <trkpt lat="47.096569" lon="13.611394">
 <ele>1086.34</ele>
 <time>2010-09-02T08:10:19Z</time>
 </trkpt>
 <trkpt lat="47.096615" lon="13.610629">
 <ele>1086.25</ele>
 <time>2010-09-02T08:10:31Z</time>
 </trkpt>
 <trkpt lat="47.096642" lon="13.609951">
 <ele>1087.15</ele>
 <time>2010-09-02T08:10:42Z</time>
 </trkpt>
 <trkpt lat="47.096668" lon="13.609505">
 <ele>1087.39</ele>
 <time>2010-09-02T08:10:49Z</time>
 </trkpt>
 <trkpt lat="47.096672" lon="13.609439">
 <ele>1087.28</ele>
 <time>2010-09-02T08:10:50Z</time>
 </trkpt>
 <trkpt lat="47.096729" lon="13.608580">
 <ele>1087.13</ele>
 <time>2010-09-02T08:11:03Z</time>
 </trkpt>
 <trkpt lat="47.096752" lon="13.608179">
 <ele>1087.76</ele>
 <time>2010-09-02T08:11:10Z</time>
 </trkpt>
 <trkpt lat="47.096802" lon="13.607783">
 <ele>1088.21</ele>
 <time>2010-09-02T08:11:16Z</time>
 </trkpt>
 <trkpt lat="47.096882" lon="13.607256">
 <ele>1087.88</ele>
 <time>2010-09-02T08:11:24Z</time>
 </trkpt>
 <trkpt lat="47.096985" lon="13.606702">
 <ele>1088.43</ele>
 <time>2010-09-02T08:11:33Z</time>
 </trkpt>
 <trkpt lat="47.097073" lon="13.606284">
 <ele>1088.88</ele>
 <time>2010-09-02T08:11:40Z</time>
 </trkpt>
 <trkpt lat="47.097183" lon="13.605648">
 <ele>1089.01</ele>
 <time>2010-09-02T08:11:50Z</time>
 </trkpt>
 <trkpt lat="47.097282" lon="13.605113">
 <ele>1089.67</ele>
 <time>2010-09-02T08:11:59Z</time>
 </trkpt>
 <trkpt lat="47.097439" lon="13.604239">
 <ele>1090.14</ele>
 <time>2010-09-02T08:12:13Z</time>
 </trkpt>
 <trkpt lat="47.097591" lon="13.603505">
 <ele>1090.69</ele>
 <time>2010-09-02T08:12:25Z</time>
 </trkpt>
 <trkpt lat="47.097626" lon="13.603325">
 <ele>1090.55</ele>
 <time>2010-09-02T08:12:28Z</time>
 </trkpt>
 <trkpt lat="47.097763" lon="13.602932">
 <ele>1090.93</ele>
 <time>2010-09-02T08:12:35Z</time>
 </trkpt>
 <trkpt lat="47.098026" lon="13.602419">
 <ele>1091.17</ele>
 <time>2010-09-02T08:12:45Z</time>
 </trkpt>
 <trkpt lat="47.098236" lon="13.602005">
 <ele>1091.23</ele>
 <time>2010-09-02T08:12:53Z</time>
 </trkpt>
 <trkpt lat="47.098549" lon="13.601463">
 <ele>1091.67</ele>
 <time>2010-09-02T08:13:04Z</time>
 </trkpt>
 <trkpt lat="47.098923" lon="13.600807">
 <ele>1092.22</ele>
 <time>2010-09-02T08:13:17Z</time>
 </trkpt>
 <trkpt lat="47.099243" lon="13.600248">
 <ele>1092.94</ele>
 <time>2010-09-02T08:13:28Z</time>
 </trkpt>
 <trkpt lat="47.099640" lon="13.599655">
 <ele>1093.33</ele>
 <time>2010-09-02T08:13:40Z</time>
 </trkpt>
 <trkpt lat="47.100040" lon="13.599145">
 <ele>1093.50</ele>
 <time>2010-09-02T08:13:51Z</time>
 </trkpt>
 <trkpt lat="47.100498" lon="13.598648">
 <ele>1093.82</ele>
 <time>2010-09-02T08:14:03Z</time>
 </trkpt>
 <trkpt lat="47.100971" lon="13.598194">
 <ele>1094.59</ele>
 <time>2010-09-02T08:14:15Z</time>
 </trkpt>
 <trkpt lat="47.101570" lon="13.597659">
 <ele>1094.84</ele>
 <time>2010-09-02T08:14:30Z</time>
 </trkpt>
 <trkpt lat="47.102180" lon="13.597041">
 <ele>1095.35</ele>
 <time>2010-09-02T08:14:46Z</time>
 </trkpt>
 <trkpt lat="47.102631" lon="13.596539">
 <ele>1096.64</ele>
 <time>2010-09-02T08:14:58Z</time>
 </trkpt>
 <trkpt lat="47.103096" lon="13.595972">
 <ele>1097.29</ele>
 <time>2010-09-02T08:15:11Z</time>
 </trkpt>
 <trkpt lat="47.103512" lon="13.595440">
 <ele>1097.68</ele>
 <time>2010-09-02T08:15:23Z</time>
 </trkpt>
 <trkpt lat="47.103828" lon="13.595050">
 <ele>1098.39</ele>
 <time>2010-09-02T08:15:32Z</time>
 </trkpt>
 <trkpt lat="47.104111" lon="13.594706">
 <ele>1098.86</ele>
 <time>2010-09-02T08:15:40Z</time>
 </trkpt>
 <trkpt lat="47.104366" lon="13.594413">
 <ele>1100.48</ele>
 <time>2010-09-02T08:15:48Z</time>
 </trkpt>
 <trkpt lat="47.104671" lon="13.594068">
 <ele>1102.55</ele>
 <time>2010-09-02T08:15:58Z</time>
 </trkpt>
 <trkpt lat="47.104919" lon="13.593771">
 <ele>1103.61</ele>
 <time>2010-09-02T08:16:06Z</time>
 </trkpt>
 <trkpt lat="47.105228" lon="13.593538">
 <ele>1103.81</ele>
 <time>2010-09-02T08:16:14Z</time>
 </trkpt>
 <trkpt lat="47.105858" lon="13.593176">
 <ele>1103.83</ele>
 <time>2010-09-02T08:16:29Z</time>
 </trkpt>
 <trkpt lat="47.106243" lon="13.592964">
 <ele>1104.03</ele>
 <time>2010-09-02T08:16:38Z</time>
 </trkpt>
 <trkpt lat="47.106689" lon="13.592689">
 <ele>1104.61</ele>
 <time>2010-09-02T08:16:49Z</time>
 </trkpt>
 <trkpt lat="47.107105" lon="13.592348">
 <ele>1105.46</ele>
 <time>2010-09-02T08:17:00Z</time>
 </trkpt>
 <trkpt lat="47.107540" lon="13.591865">
 <ele>1105.90</ele>
 <time>2010-09-02T08:17:12Z</time>
 </trkpt>
 <trkpt lat="47.107838" lon="13.591419">
 <ele>1106.20</ele>
 <time>2010-09-02T08:17:21Z</time>
 </trkpt>
 <trkpt lat="47.108063" lon="13.590985">
 <ele>1105.94</ele>
 <time>2010-09-02T08:17:29Z</time>
 </trkpt>
 <trkpt lat="47.108341" lon="13.590431">
 <ele>1106.54</ele>
 <time>2010-09-02T08:17:39Z</time>
 </trkpt>
 <trkpt lat="47.108643" lon="13.589888">
 <ele>1106.42</ele>
 <time>2010-09-02T08:17:49Z</time>
 </trkpt>
 <trkpt lat="47.109016" lon="13.589243">
 <ele>1106.74</ele>
 <time>2010-09-02T08:18:01Z</time>
 </trkpt>
 <trkpt lat="47.109333" lon="13.588810">
 <ele>1106.87</ele>
 <time>2010-09-02T08:18:10Z</time>
 </trkpt>
 <trkpt lat="47.109764" lon="13.588376">
 <ele>1107.46</ele>
 <time>2010-09-02T08:18:21Z</time>
 </trkpt>
 <trkpt lat="47.110199" lon="13.587982">
 <ele>1108.19</ele>
 <time>2010-09-02T08:18:32Z</time>
 </trkpt>
 <trkpt lat="47.110619" lon="13.587649">
 <ele>1108.70</ele>
 <time>2010-09-02T08:18:42Z</time>
 </trkpt>
 <trkpt lat="47.111107" lon="13.587249">
 <ele>1109.45</ele>
 <time>2010-09-02T08:18:54Z</time>
 </trkpt>
 <trkpt lat="47.111523" lon="13.586863">
 <ele>1110.49</ele>
 <time>2010-09-02T08:19:05Z</time>
 </trkpt>
 <trkpt lat="47.112007" lon="13.586353">
 <ele>1110.74</ele>
 <time>2010-09-02T08:19:18Z</time>
 </trkpt>
 <trkpt lat="47.112408" lon="13.585884">
 <ele>1110.74</ele>
 <time>2010-09-02T08:19:29Z</time>
 </trkpt>
 <trkpt lat="47.112904" lon="13.585235">
 <ele>1111.26</ele>
 <time>2010-09-02T08:19:43Z</time>
 </trkpt>
 <trkpt lat="47.113132" lon="13.584804">
 <ele>1111.73</ele>
 <time>2010-09-02T08:19:51Z</time>
 </trkpt>
 <trkpt lat="47.113415" lon="13.584149">
 <ele>1111.89</ele>
 <time>2010-09-02T08:20:02Z</time>
 </trkpt>
 <trkpt lat="47.113651" lon="13.583568">
 <ele>1112.70</ele>
 <time>2010-09-02T08:20:12Z</time>
 </trkpt>
 <trkpt lat="47.113953" lon="13.582803">
 <ele>1113.43</ele>
 <time>2010-09-02T08:20:25Z</time>
 </trkpt>
 <trkpt lat="47.114189" lon="13.582214">
 <ele>1114.36</ele>
 <time>2010-09-02T08:20:35Z</time>
 </trkpt>
 <trkpt lat="47.114445" lon="13.581657">
 <ele>1115.01</ele>
 <time>2010-09-02T08:20:45Z</time>
 </trkpt>
 <trkpt lat="47.114735" lon="13.581254">
 <ele>1115.40</ele>
 <time>2010-09-02T08:20:54Z</time>
 </trkpt>
 <trkpt lat="47.115047" lon="13.580966">
 <ele>1116.94</ele>
 <time>2010-09-02T08:21:03Z</time>
 </trkpt>
 <trkpt lat="47.115513" lon="13.580576">
 <ele>1119.22</ele>
 <time>2010-09-02T08:21:17Z</time>
 </trkpt>
 <trkpt lat="47.115826" lon="13.580307">
 <ele>1121.17</ele>
 <time>2010-09-02T08:21:27Z</time>
 </trkpt>
 <trkpt lat="47.116192" lon="13.579979">
 <ele>1123.45</ele>
 <time>2010-09-02T08:21:39Z</time>
 </trkpt>
 <trkpt lat="47.116432" lon="13.579649">
 <ele>1124.12</ele>
 <time>2010-09-02T08:21:48Z</time>
 </trkpt>
 <trkpt lat="47.116585" lon="13.579268">
 <ele>1123.94</ele>
 <time>2010-09-02T08:21:55Z</time>
 </trkpt>
 <trkpt lat="47.116711" lon="13.578750">
 <ele>1122.84</ele>
 <time>2010-09-02T08:22:02Z</time>
 </trkpt>
 <trkpt lat="47.116924" lon="13.577864">
 <ele>1120.92</ele>
 <time>2010-09-02T08:22:13Z</time>
 </trkpt>
 <trkpt lat="47.117134" lon="13.577107">
 <ele>1120.84</ele>
 <time>2010-09-02T08:22:23Z</time>
 </trkpt>
 <trkpt lat="47.117420" lon="13.576341">
 <ele>1121.76</ele>
 <time>2010-09-02T08:22:34Z</time>
 </trkpt>
 <trkpt lat="47.117878" lon="13.575443">
 <ele>1122.09</ele>
 <time>2010-09-02T08:22:48Z</time>
 </trkpt>
 <trkpt lat="47.117920" lon="13.575392">
 <ele>1122.20</ele>
 <time>2010-09-02T08:22:49Z</time>
 </trkpt>
 <trkpt lat="47.118095" lon="13.575229">
 <ele>1122.28</ele>
 <time>2010-09-02T08:22:53Z</time>
 </trkpt>
 <trkpt lat="47.118282" lon="13.575140">
 <ele>1122.29</ele>
 <time>2010-09-02T08:22:57Z</time>
 </trkpt>
 <trkpt lat="47.118420" lon="13.575148">
 <ele>1122.21</ele>
 <time>2010-09-02T08:22:59Z</time>
 </trkpt>
 <trkpt lat="47.118893" lon="13.575138">
 <ele>1122.22</ele>
 <time>2010-09-02T08:23:08Z</time>
 </trkpt>
 <trkpt lat="47.119316" lon="13.575097">
 <ele>1123.32</ele>
 <time>2010-09-02T08:23:17Z</time>
 </trkpt>
 <trkpt lat="47.119705" lon="13.574977">
 <ele>1124.24</ele>
 <time>2010-09-02T08:23:26Z</time>
 </trkpt>
 <trkpt lat="47.119938" lon="13.574825">
 <ele>1124.68</ele>
 <time>2010-09-02T08:23:32Z</time>
 </trkpt>
 <trkpt lat="47.120331" lon="13.574465">
 <ele>1125.18</ele>
 <time>2010-09-02T08:23:42Z</time>
 </trkpt>
 <trkpt lat="47.120636" lon="13.574031">
 <ele>1125.63</ele>
 <time>2010-09-02T08:23:51Z</time>
 </trkpt>
 <trkpt lat="47.120899" lon="13.573457">
 <ele>1126.19</ele>
 <time>2010-09-02T08:24:01Z</time>
 </trkpt>
 <trkpt lat="47.121132" lon="13.572681">
 <ele>1126.51</ele>
 <time>2010-09-02T08:24:13Z</time>
 </trkpt>
 <trkpt lat="47.121387" lon="13.571817">
 <ele>1127.48</ele>
 <time>2010-09-02T08:24:26Z</time>
 </trkpt>
 <trkpt lat="47.121689" lon="13.570895">
 <ele>1127.58</ele>
 <time>2010-09-02T08:24:40Z</time>
 </trkpt>
 <trkpt lat="47.121902" lon="13.570309">
 <ele>1128.04</ele>
 <time>2010-09-02T08:24:49Z</time>
 </trkpt>
 <trkpt lat="47.122112" lon="13.570016">
 <ele>1128.24</ele>
 <time>2010-09-02T08:24:55Z</time>
 </trkpt>
 <trkpt lat="47.122383" lon="13.569846">
 <ele>1128.23</ele>
 <time>2010-09-02T08:25:01Z</time>
 </trkpt>
 <trkpt lat="47.122829" lon="13.569590">
 <ele>1128.73</ele>
 <time>2010-09-02T08:25:11Z</time>
 </trkpt>
 <trkpt lat="47.123039" lon="13.569333">
 <ele>1129.32</ele>
 <time>2010-09-02T08:25:17Z</time>
 </trkpt>
 <trkpt lat="47.123192" lon="13.568934">
 <ele>1130.55</ele>
 <time>2010-09-02T08:25:24Z</time>
 </trkpt>
 <trkpt lat="47.123363" lon="13.568196">
 <ele>1130.74</ele>
 <time>2010-09-02T08:25:36Z</time>
 </trkpt>
 <trkpt lat="47.123535" lon="13.567410">
 <ele>1131.33</ele>
 <time>2010-09-02T08:25:49Z</time>
 </trkpt>
 <trkpt lat="47.123680" lon="13.566818">
 <ele>1132.04</ele>
 <time>2010-09-02T08:25:59Z</time>
 </trkpt>
 <trkpt lat="47.123859" lon="13.566403">
 <ele>1132.87</ele>
 <time>2010-09-02T08:26:07Z</time>
 </trkpt>
 <trkpt lat="47.124123" lon="13.565934">
 <ele>1134.16</ele>
 <time>2010-09-02T08:26:17Z</time>
 </trkpt>
 <trkpt lat="47.124481" lon="13.565522">
 <ele>1133.52</ele>
 <time>2010-09-02T08:26:27Z</time>
 </trkpt>
 <trkpt lat="47.124840" lon="13.565107">
 <ele>1134.13</ele>
 <time>2010-09-02T08:26:37Z</time>
 </trkpt>
 <trkpt lat="47.124958" lon="13.564789">
 <ele>1134.79</ele>
 <time>2010-09-02T08:26:43Z</time>
 </trkpt>
 <trkpt lat="47.124966" lon="13.564729">
 <ele>1134.98</ele>
 <time>2010-09-02T08:26:44Z</time>
 </trkpt>
 <trkpt lat="47.124889" lon="13.564322">
 <ele>1135.50</ele>
 <time>2010-09-02T08:26:51Z</time>
 </trkpt>
 <trkpt lat="47.124638" lon="13.563952">
 <ele>1136.44</ele>
 <time>2010-09-02T08:27:00Z</time>
 </trkpt>
 <trkpt lat="47.124428" lon="13.563644">
 <ele>1138.00</ele>
 <time>2010-09-02T08:27:09Z</time>
 </trkpt>
 <trkpt lat="47.124287" lon="13.563412">
 <ele>1139.02</ele>
 <time>2010-09-02T08:27:15Z</time>
 </trkpt>
 <trkpt lat="47.124157" lon="13.563081">
 <ele>1140.10</ele>
 <time>2010-09-02T08:27:22Z</time>
 </trkpt>
 <trkpt lat="47.124165" lon="13.562718">
 <ele>1141.47</ele>
 <time>2010-09-02T08:27:29Z</time>
 </trkpt>
 <trkpt lat="47.124283" lon="13.562414">
 <ele>1142.46</ele>
 <time>2010-09-02T08:27:36Z</time>
 </trkpt>
 <trkpt lat="47.124527" lon="13.561998">
 <ele>1144.94</ele>
 <time>2010-09-02T08:27:48Z</time>
 </trkpt>
 <trkpt lat="47.124786" lon="13.561517">
 <ele>1147.11</ele>
 <time>2010-09-02T08:28:01Z</time>
 </trkpt>
 <trkpt lat="47.125008" lon="13.560984">
 <ele>1147.84</ele>
 <time>2010-09-02T08:28:13Z</time>
 </trkpt>
 <trkpt lat="47.125153" lon="13.560550">
 <ele>1147.68</ele>
 <time>2010-09-02T08:28:21Z</time>
 </trkpt>
 <trkpt lat="47.125404" lon="13.559848">
 <ele>1147.53</ele>
 <time>2010-09-02T08:28:33Z</time>
 </trkpt>
 <trkpt lat="47.125648" lon="13.559308">
 <ele>1148.02</ele>
 <time>2010-09-02T08:28:43Z</time>
 </trkpt>
 <trkpt lat="47.125797" lon="13.559062">
 <ele>1148.01</ele>
 <time>2010-09-02T08:28:48Z</time>
 </trkpt>
 <trkpt lat="47.125900" lon="13.558928">
 <ele>1148.11</ele>
 <time>2010-09-02T08:28:51Z</time>
 </trkpt>
 <trkpt lat="47.126064" lon="13.558764">
 <ele>1148.09</ele>
 <time>2010-09-02T08:28:55Z</time>
 </trkpt>
 <trkpt lat="47.126438" lon="13.558392">
 <ele>1147.85</ele>
 <time>2010-09-02T08:29:04Z</time>
 </trkpt>
 <trkpt lat="47.126820" lon="13.557970">
 <ele>1146.78</ele>
 <time>2010-09-02T08:29:13Z</time>
 </trkpt>
 <trkpt lat="47.127087" lon="13.557515">
 <ele>1147.48</ele>
 <time>2010-09-02T08:29:21Z</time>
 </trkpt>
 <trkpt lat="47.127338" lon="13.556901">
 <ele>1148.39</ele>
 <time>2010-09-02T08:29:31Z</time>
 </trkpt>
 <trkpt lat="47.127563" lon="13.556112">
 <ele>1148.76</ele>
 <time>2010-09-02T08:29:43Z</time>
 </trkpt>
 <trkpt lat="47.127708" lon="13.555282">
 <ele>1149.33</ele>
 <time>2010-09-02T08:29:55Z</time>
 </trkpt>
 <trkpt lat="47.127758" lon="13.554495">
 <ele>1149.57</ele>
 <time>2010-09-02T08:30:06Z</time>
 </trkpt>
 <trkpt lat="47.127792" lon="13.553572">
 <ele>1150.58</ele>
 <time>2010-09-02T08:30:19Z</time>
 </trkpt>
 <trkpt lat="47.127857" lon="13.553027">
 <ele>1152.08</ele>
 <time>2010-09-02T08:30:28Z</time>
 </trkpt>
 <trkpt lat="47.127975" lon="13.552482">
 <ele>1153.80</ele>
 <time>2010-09-02T08:30:38Z</time>
 </trkpt>
 <trkpt lat="47.128139" lon="13.552034">
 <ele>1154.76</ele>
 <time>2010-09-02T08:30:47Z</time>
 </trkpt>
 <trkpt lat="47.128170" lon="13.551970">
 <ele>1155.09</ele>
 <time>2010-09-02T08:30:50Z</time>
 </trkpt>
 <trkpt lat="47.128174" lon="13.551971">
 <ele>1155.07</ele>
 <time>2010-09-02T08:30:51Z</time>
 </trkpt>
 <trkpt lat="47.128216" lon="13.551881">
 <ele>1154.74</ele>
 <time>2010-09-02T08:31:32Z</time>
 </trkpt>
 <trkpt lat="47.128319" lon="13.551609">
 <ele>1154.83</ele>
 <time>2010-09-02T08:31:38Z</time>
 </trkpt>
 <trkpt lat="47.128490" lon="13.551121">
 <ele>1155.08</ele>
 <time>2010-09-02T08:31:47Z</time>
 </trkpt>
 <trkpt lat="47.128651" lon="13.550473">
 <ele>1155.38</ele>
 <time>2010-09-02T08:31:58Z</time>
 </trkpt>
 <trkpt lat="47.128826" lon="13.549895">
 <ele>1156.80</ele>
 <time>2010-09-02T08:32:09Z</time>
 </trkpt>
 <trkpt lat="47.128998" lon="13.549554">
 <ele>1158.49</ele>
 <time>2010-09-02T08:32:18Z</time>
 </trkpt>
 <trkpt lat="47.129150" lon="13.549341">
 <ele>1159.86</ele>
 <time>2010-09-02T08:32:25Z</time>
 </trkpt>
 <trkpt lat="47.129429" lon="13.549066">
 <ele>1161.96</ele>
 <time>2010-09-02T08:32:36Z</time>
 </trkpt>
 <trkpt lat="47.129700" lon="13.548874">
 <ele>1164.03</ele>
 <time>2010-09-02T08:32:46Z</time>
 </trkpt>
 <trkpt lat="47.129944" lon="13.548700">
 <ele>1165.47</ele>
 <time>2010-09-02T08:32:55Z</time>
 </trkpt>
 <trkpt lat="47.130169" lon="13.548532">
 <ele>1166.59</ele>
 <time>2010-09-02T08:33:03Z</time>
 </trkpt>
 <trkpt lat="47.130520" lon="13.548220">
 <ele>1167.70</ele>
 <time>2010-09-02T08:33:16Z</time>
 </trkpt>
 <trkpt lat="47.130772" lon="13.547964">
 <ele>1168.25</ele>
 <time>2010-09-02T08:33:25Z</time>
 </trkpt>
 <trkpt lat="47.131111" lon="13.547618">
 <ele>1168.38</ele>
 <time>2010-09-02T08:33:36Z</time>
 </trkpt>
 <trkpt lat="47.131477" lon="13.547280">
 <ele>1167.90</ele>
 <time>2010-09-02T08:33:46Z</time>
 </trkpt>
 <trkpt lat="47.131878" lon="13.546991">
 <ele>1167.29</ele>
 <time>2010-09-02T08:33:55Z</time>
 </trkpt>
 <trkpt lat="47.132206" lon="13.546778">
 <ele>1166.88</ele>
 <time>2010-09-02T08:34:02Z</time>
 </trkpt>
 <trkpt lat="47.132565" lon="13.546452">
 <ele>1166.63</ele>
 <time>2010-09-02T08:34:10Z</time>
 </trkpt>
 <trkpt lat="47.132755" lon="13.546048">
 <ele>1166.29</ele>
 <time>2010-09-02T08:34:16Z</time>
 </trkpt>
 <trkpt lat="47.133003" lon="13.545364">
 <ele>1165.02</ele>
 <time>2010-09-02T08:34:25Z</time>
 </trkpt>
 <trkpt lat="47.133278" lon="13.544857">
 <ele>1164.70</ele>
 <time>2010-09-02T08:34:33Z</time>
 </trkpt>
 <trkpt lat="47.133606" lon="13.544321">
 <ele>1166.63</ele>
 <time>2010-09-02T08:34:43Z</time>
 </trkpt>
 <trkpt lat="47.133762" lon="13.543930">
 <ele>1166.87</ele>
 <time>2010-09-02T08:34:49Z</time>
 </trkpt>
 <trkpt lat="47.133884" lon="13.543377">
 <ele>1166.38</ele>
 <time>2010-09-02T08:34:56Z</time>
 </trkpt>
 <trkpt lat="47.134045" lon="13.542652">
 <ele>1164.80</ele>
 <time>2010-09-02T08:35:04Z</time>
 </trkpt>
 <trkpt lat="47.134285" lon="13.542138">
 <ele>1163.54</ele>
 <time>2010-09-02T08:35:10Z</time>
 </trkpt>
 <trkpt lat="47.134609" lon="13.541685">
 <ele>1163.69</ele>
 <time>2010-09-02T08:35:17Z</time>
 </trkpt>
 <trkpt lat="47.135025" lon="13.541121">
 <ele>1165.30</ele>
 <time>2010-09-02T08:35:27Z</time>
 </trkpt>
 <trkpt lat="47.135281" lon="13.540625">
 <ele>1165.79</ele>
 <time>2010-09-02T08:35:35Z</time>
 </trkpt>
 <trkpt lat="47.135571" lon="13.539987">
 <ele>1166.44</ele>
 <time>2010-09-02T08:35:45Z</time>
 </trkpt>
 <trkpt lat="47.135864" lon="13.539584">
 <ele>1166.99</ele>
 <time>2010-09-02T08:35:53Z</time>
 </trkpt>
 <trkpt lat="47.136257" lon="13.539114">
 <ele>1168.28</ele>
 <time>2010-09-02T08:36:03Z</time>
 </trkpt>
 <trkpt lat="47.136436" lon="13.538878">
 <ele>1169.04</ele>
 <time>2010-09-02T08:36:08Z</time>
 </trkpt>
 <trkpt lat="47.136604" lon="13.538391">
 <ele>1170.39</ele>
 <time>2010-09-02T08:36:16Z</time>
 </trkpt>
 <trkpt lat="47.136700" lon="13.537849">
 <ele>1170.50</ele>
 <time>2010-09-02T08:36:24Z</time>
 </trkpt>
 <trkpt lat="47.136848" lon="13.537408">
 <ele>1170.97</ele>
 <time>2010-09-02T08:36:31Z</time>
 </trkpt>
 <trkpt lat="47.137081" lon="13.536986">
 <ele>1171.73</ele>
 <time>2010-09-02T08:36:39Z</time>
 </trkpt>
 <trkpt lat="47.137394" lon="13.536488">
 <ele>1172.54</ele>
 <time>2010-09-02T08:36:49Z</time>
 </trkpt>
 <trkpt lat="47.137688" lon="13.535924">
 <ele>1173.21</ele>
 <time>2010-09-02T08:36:59Z</time>
 </trkpt>
 <trkpt lat="47.137939" lon="13.535499">
 <ele>1173.42</ele>
 <time>2010-09-02T08:37:07Z</time>
 </trkpt>
 <trkpt lat="47.138058" lon="13.535376">
 <ele>1173.50</ele>
 <time>2010-09-02T08:37:10Z</time>
 </trkpt>
 <trkpt lat="47.138187" lon="13.535279">
 <ele>1173.71</ele>
 <time>2010-09-02T08:37:13Z</time>
 </trkpt>
 <trkpt lat="47.138390" lon="13.535053">
 <ele>1173.99</ele>
 <time>2010-09-02T08:37:19Z</time>
 </trkpt>
 <trkpt lat="47.138645" lon="13.534856">
 <ele>1174.93</ele>
 <time>2010-09-02T08:37:25Z</time>
 </trkpt>
 <trkpt lat="47.138813" lon="13.534727">
 <ele>1175.49</ele>
 <time>2010-09-02T08:37:29Z</time>
 </trkpt>
 <trkpt lat="47.139011" lon="13.534379">
 <ele>1175.95</ele>
 <time>2010-09-02T08:37:36Z</time>
 </trkpt>
 <trkpt lat="47.139229" lon="13.533856">
 <ele>1176.84</ele>
 <time>2010-09-02T08:37:46Z</time>
 </trkpt>
 <trkpt lat="47.139465" lon="13.533298">
 <ele>1178.28</ele>
 <time>2010-09-02T08:37:57Z</time>
 </trkpt>
 <trkpt lat="47.139687" lon="13.532782">
 <ele>1178.94</ele>
 <time>2010-09-02T08:38:07Z</time>
 </trkpt>
 <trkpt lat="47.139965" lon="13.532148">
 <ele>1180.55</ele>
 <time>2010-09-02T08:38:19Z</time>
 </trkpt>
 <trkpt lat="47.140263" lon="13.531609">
 <ele>1180.94</ele>
 <time>2010-09-02T08:38:30Z</time>
 </trkpt>
 <trkpt lat="47.140469" lon="13.531201">
 <ele>1181.67</ele>
 <time>2010-09-02T08:38:38Z</time>
 </trkpt>
 <trkpt lat="47.140549" lon="13.530771">
 <ele>1182.25</ele>
 <time>2010-09-02T08:38:45Z</time>
 </trkpt>
 <trkpt lat="47.140594" lon="13.530355">
 <ele>1182.74</ele>
 <time>2010-09-02T08:38:52Z</time>
 </trkpt>
 <trkpt lat="47.140656" lon="13.530053">
 <ele>1183.51</ele>
 <time>2010-09-02T08:38:57Z</time>
 </trkpt>
 <trkpt lat="47.140564" lon="13.529742">
 <ele>1183.70</ele>
 <time>2010-09-02T08:39:01Z</time>
 </trkpt>
 <trkpt lat="47.140461" lon="13.529024">
 <ele>1184.77</ele>
 <time>2010-09-02T08:39:12Z</time>
 </trkpt>
 <trkpt lat="47.140495" lon="13.528612">
 <ele>1185.26</ele>
 <time>2010-09-02T08:39:19Z</time>
 </trkpt>
 <trkpt lat="47.140636" lon="13.528169">
 <ele>1186.41</ele>
 <time>2010-09-02T08:39:28Z</time>
 </trkpt>
 <trkpt lat="47.140770" lon="13.527805">
 <ele>1187.57</ele>
 <time>2010-09-02T08:39:36Z</time>
 </trkpt>
 <trkpt lat="47.140820" lon="13.527671">
 <ele>1188.92</ele>
 <time>2010-09-02T08:39:39Z</time>
 </trkpt>
 <trkpt lat="47.140945" lon="13.527305">
 <ele>1189.98</ele>
 <time>2010-09-02T08:39:47Z</time>
 </trkpt>
 <trkpt lat="47.141060" lon="13.526983">
 <ele>1191.50</ele>
 <time>2010-09-02T08:39:54Z</time>
 </trkpt>
 <trkpt lat="47.141235" lon="13.526448">
 <ele>1192.83</ele>
 <time>2010-09-02T08:40:05Z</time>
 </trkpt>
 <trkpt lat="47.141369" lon="13.525926">
 <ele>1192.89</ele>
 <time>2010-09-02T08:40:14Z</time>
 </trkpt>
 <trkpt lat="47.141468" lon="13.525429">
 <ele>1192.05</ele>
 <time>2010-09-02T08:40:21Z</time>
 </trkpt>
 <trkpt lat="47.141609" lon="13.524691">
 <ele>1190.64</ele>
 <time>2010-09-02T08:40:30Z</time>
 </trkpt>
 <trkpt lat="47.141773" lon="13.523993">
 <ele>1190.44</ele>
 <time>2010-09-02T08:40:39Z</time>
 </trkpt>
 <trkpt lat="47.141972" lon="13.523551">
 <ele>1190.94</ele>
 <time>2010-09-02T08:40:46Z</time>
 </trkpt>
 <trkpt lat="47.142036" lon="13.523434">
 <ele>1191.00</ele>
 <time>2010-09-02T08:40:48Z</time>
 </trkpt>
 <trkpt lat="47.142326" lon="13.522933">
 <ele>1192.01</ele>
 <time>2010-09-02T08:40:57Z</time>
 </trkpt>
 <trkpt lat="47.142727" lon="13.522301">
 <ele>1192.68</ele>
 <time>2010-09-02T08:41:09Z</time>
 </trkpt>
 <trkpt lat="47.143158" lon="13.521810">
 <ele>1193.52</ele>
 <time>2010-09-02T08:41:20Z</time>
 </trkpt>
 <trkpt lat="47.143578" lon="13.521544">
 <ele>1194.16</ele>
 <time>2010-09-02T08:41:29Z</time>
 </trkpt>
 <trkpt lat="47.143913" lon="13.521457">
 <ele>1194.15</ele>
 <time>2010-09-02T08:41:36Z</time>
 </trkpt>
 <trkpt lat="47.143959" lon="13.521445">
 <ele>1194.25</ele>
 <time>2010-09-02T08:41:37Z</time>
 </trkpt>
 <trkpt lat="47.144249" lon="13.521250">
 <ele>1195.57</ele>
 <time>2010-09-02T08:41:44Z</time>
 </trkpt>
 <trkpt lat="47.144489" lon="13.520964">
 <ele>1196.86</ele>
 <time>2010-09-02T08:41:51Z</time>
 </trkpt>
 <trkpt lat="47.144810" lon="13.520521">
 <ele>1198.36</ele>
 <time>2010-09-02T08:42:01Z</time>
 </trkpt>
 <trkpt lat="47.145252" lon="13.519872">
 <ele>1199.68</ele>
 <time>2010-09-02T08:42:15Z</time>
 </trkpt>
 <trkpt lat="47.145504" lon="13.519565">
 <ele>1199.96</ele>
 <time>2010-09-02T08:42:22Z</time>
 </trkpt>
 <trkpt lat="47.145866" lon="13.519414">
 <ele>1200.27</ele>
 <time>2010-09-02T08:42:30Z</time>
 </trkpt>
 <trkpt lat="47.146088" lon="13.519369">
 <ele>1200.40</ele>
 <time>2010-09-02T08:42:35Z</time>
 </trkpt>
 <trkpt lat="47.146221" lon="13.519338">
 <ele>1200.77</ele>
 <time>2010-09-02T08:42:38Z</time>
 </trkpt>
 <trkpt lat="47.146435" lon="13.519295">
 <ele>1201.28</ele>
 <time>2010-09-02T08:42:42Z</time>
 </trkpt>
 <trkpt lat="47.146637" lon="13.519108">
 <ele>1201.28</ele>
 <time>2010-09-02T08:42:47Z</time>
 </trkpt>
 <trkpt lat="47.146881" lon="13.518757">
 <ele>1201.45</ele>
 <time>2010-09-02T08:42:54Z</time>
 </trkpt>
 <trkpt lat="47.147121" lon="13.518314">
 <ele>1202.09</ele>
 <time>2010-09-02T08:43:02Z</time>
 </trkpt>
 <trkpt lat="47.147564" lon="13.517503">
 <ele>1203.04</ele>
 <time>2010-09-02T08:43:17Z</time>
 </trkpt>
 <trkpt lat="47.147755" lon="13.516937">
 <ele>1203.54</ele>
 <time>2010-09-02T08:43:26Z</time>
 </trkpt>
 <trkpt lat="47.147854" lon="13.516397">
 <ele>1203.90</ele>
 <time>2010-09-02T08:43:34Z</time>
 </trkpt>
 <trkpt lat="47.147915" lon="13.515848">
 <ele>1203.78</ele>
 <time>2010-09-02T08:43:42Z</time>
 </trkpt>
 <trkpt lat="47.147999" lon="13.515610">
 <ele>1204.30</ele>
 <time>2010-09-02T08:43:46Z</time>
 </trkpt>
 <trkpt lat="47.148159" lon="13.515383">
 <ele>1204.36</ele>
 <time>2010-09-02T08:43:51Z</time>
 </trkpt>
 <trkpt lat="47.148388" lon="13.515160">
 <ele>1204.76</ele>
 <time>2010-09-02T08:43:57Z</time>
 </trkpt>
 <trkpt lat="47.148552" lon="13.514834">
 <ele>1205.40</ele>
 <time>2010-09-02T08:44:03Z</time>
 </trkpt>
 <trkpt lat="47.148651" lon="13.514263">
 <ele>1206.62</ele>
 <time>2010-09-02T08:44:12Z</time>
 </trkpt>
 <trkpt lat="47.148758" lon="13.513788">
 <ele>1207.67</ele>
 <time>2010-09-02T08:44:20Z</time>
 </trkpt>
 <trkpt lat="47.148857" lon="13.513294">
 <ele>1208.44</ele>
 <time>2010-09-02T08:44:28Z</time>
 </trkpt>
 <trkpt lat="47.149044" lon="13.512780">
 <ele>1209.31</ele>
 <time>2010-09-02T08:44:37Z</time>
 </trkpt>
 <trkpt lat="47.149067" lon="13.512725">
 <ele>1209.54</ele>
 <time>2010-09-02T08:44:38Z</time>
 </trkpt>
 <trkpt lat="47.149155" lon="13.512576">
 <ele>1209.69</ele>
 <time>2010-09-02T08:44:41Z</time>
 </trkpt>
 <trkpt lat="47.149399" lon="13.512029">
 <ele>1210.69</ele>
 <time>2010-09-02T08:44:51Z</time>
 </trkpt>
 <trkpt lat="47.149712" lon="13.511468">
 <ele>1210.97</ele>
 <time>2010-09-02T08:45:02Z</time>
 </trkpt>
 <trkpt lat="47.150024" lon="13.511131">
 <ele>1211.74</ele>
 <time>2010-09-02T08:45:11Z</time>
 </trkpt>
 <trkpt lat="47.150394" lon="13.510919">
 <ele>1212.06</ele>
 <time>2010-09-02T08:45:20Z</time>
 </trkpt>
 <trkpt lat="47.150558" lon="13.510821">
 <ele>1212.24</ele>
 <time>2010-09-02T08:45:24Z</time>
 </trkpt>
 <trkpt lat="47.150780" lon="13.510582">
 <ele>1212.95</ele>
 <time>2010-09-02T08:45:30Z</time>
 </trkpt>
 <trkpt lat="47.150997" lon="13.510182">
 <ele>1213.70</ele>
 <time>2010-09-02T08:45:38Z</time>
 </trkpt>
 <trkpt lat="47.151176" lon="13.509876">
 <ele>1215.04</ele>
 <time>2010-09-02T08:45:45Z</time>
 </trkpt>
 <trkpt lat="47.151356" lon="13.509575">
 <ele>1216.44</ele>
 <time>2010-09-02T08:45:53Z</time>
 </trkpt>
 <trkpt lat="47.151543" lon="13.509268">
 <ele>1217.89</ele>
 <time>2010-09-02T08:46:03Z</time>
 </trkpt>
 <trkpt lat="47.151711" lon="13.508908">
 <ele>1218.69</ele>
 <time>2010-09-02T08:46:14Z</time>
 </trkpt>
 <trkpt lat="47.151859" lon="13.508608">
 <ele>1220.02</ele>
 <time>2010-09-02T08:46:24Z</time>
 </trkpt>
 <trkpt lat="47.151962" lon="13.508401">
 <ele>1221.99</ele>
 <time>2010-09-02T08:46:32Z</time>
 </trkpt>
 <trkpt lat="47.152084" lon="13.508146">
 <ele>1224.39</ele>
 <time>2010-09-02T08:46:42Z</time>
 </trkpt>
 <trkpt lat="47.152187" lon="13.507953">
 <ele>1226.48</ele>
 <time>2010-09-02T08:46:51Z</time>
 </trkpt>
 <trkpt lat="47.152283" lon="13.507783">
 <ele>1229.04</ele>
 <time>2010-09-02T08:47:00Z</time>
 </trkpt>
 <trkpt lat="47.152412" lon="13.507616">
 <ele>1231.21</ele>
 <time>2010-09-02T08:47:10Z</time>
 </trkpt>
 <trkpt lat="47.152550" lon="13.507484">
 <ele>1233.13</ele>
 <time>2010-09-02T08:47:19Z</time>
 </trkpt>
 <trkpt lat="47.152672" lon="13.507386">
 <ele>1234.30</ele>
 <time>2010-09-02T08:47:26Z</time>
 </trkpt>
 <trkpt lat="47.152840" lon="13.507217">
 <ele>1234.37</ele>
 <time>2010-09-02T08:47:34Z</time>
 </trkpt>
 <trkpt lat="47.153019" lon="13.507042">
 <ele>1234.13</ele>
 <time>2010-09-02T08:47:41Z</time>
 </trkpt>
 <trkpt lat="47.153233" lon="13.506743">
 <ele>1233.73</ele>
 <time>2010-09-02T08:47:49Z</time>
 </trkpt>
 <trkpt lat="47.153404" lon="13.506368">
 <ele>1233.21</ele>
 <time>2010-09-02T08:47:57Z</time>
 </trkpt>
 <trkpt lat="47.153584" lon="13.506088">
 <ele>1233.44</ele>
 <time>2010-09-02T08:48:04Z</time>
 </trkpt>
 <trkpt lat="47.153782" lon="13.505792">
 <ele>1233.92</ele>
 <time>2010-09-02T08:48:12Z</time>
 </trkpt>
 <trkpt lat="47.154053" lon="13.505384">
 <ele>1234.99</ele>
 <time>2010-09-02T08:48:24Z</time>
 </trkpt>
 <trkpt lat="47.154282" lon="13.505027">
 <ele>1236.72</ele>
 <time>2010-09-02T08:48:34Z</time>
 </trkpt>
 <trkpt lat="47.154537" lon="13.504618">
 <ele>1237.99</ele>
 <time>2010-09-02T08:48:45Z</time>
 </trkpt>
 <trkpt lat="47.154778" lon="13.504159">
 <ele>1238.33</ele>
 <time>2010-09-02T08:48:56Z</time>
 </trkpt>
 <trkpt lat="47.155025" lon="13.503594">
 <ele>1238.57</ele>
 <time>2010-09-02T08:49:08Z</time>
 </trkpt>
 <trkpt lat="47.155331" lon="13.502912">
 <ele>1238.32</ele>
 <time>2010-09-02T08:49:21Z</time>
 </trkpt>
 <trkpt lat="47.155598" lon="13.502535">
 <ele>1237.52</ele>
 <time>2010-09-02T08:49:29Z</time>
 </trkpt>
 <trkpt lat="47.155964" lon="13.502156">
 <ele>1235.96</ele>
 <time>2010-09-02T08:49:38Z</time>
 </trkpt>
 <trkpt lat="47.156342" lon="13.501706">
 <ele>1235.55</ele>
 <time>2010-09-02T08:49:47Z</time>
 </trkpt>
 <trkpt lat="47.156582" lon="13.501222">
 <ele>1234.69</ele>
 <time>2010-09-02T08:49:54Z</time>
 </trkpt>
 <trkpt lat="47.156837" lon="13.500517">
 <ele>1232.74</ele>
 <time>2010-09-02T08:50:04Z</time>
 </trkpt>
 <trkpt lat="47.157101" lon="13.499787">
 <ele>1234.70</ele>
 <time>2010-09-02T08:50:16Z</time>
 </trkpt>
 <trkpt lat="47.157417" lon="13.498904">
 <ele>1235.67</ele>
 <time>2010-09-02T08:50:31Z</time>
 </trkpt>
 <trkpt lat="47.157623" lon="13.498323">
 <ele>1234.87</ele>
 <time>2010-09-02T08:50:42Z</time>
 </trkpt>
 <trkpt lat="47.157875" lon="13.497625">
 <ele>1235.78</ele>
 <time>2010-09-02T08:50:56Z</time>
 </trkpt>
 <trkpt lat="47.158108" lon="13.496951">
 <ele>1237.46</ele>
 <time>2010-09-02T08:51:09Z</time>
 </trkpt>
 <trkpt lat="47.158207" lon="13.496458">
 <ele>1238.12</ele>
 <time>2010-09-02T08:51:18Z</time>
 </trkpt>
 <trkpt lat="47.158226" lon="13.495956">
 <ele>1239.48</ele>
 <time>2010-09-02T08:51:27Z</time>
 </trkpt>
 <trkpt lat="47.158157" lon="13.495400">
 <ele>1240.21</ele>
 <time>2010-09-02T08:51:37Z</time>
 </trkpt>
 <trkpt lat="47.158176" lon="13.494947">
 <ele>1239.83</ele>
 <time>2010-09-02T08:51:45Z</time>
 </trkpt>
 <trkpt lat="47.158314" lon="13.494443">
 <ele>1238.65</ele>
 <time>2010-09-02T08:51:55Z</time>
 </trkpt>
 <trkpt lat="47.158463" lon="13.493899">
 <ele>1240.59</ele>
 <time>2010-09-02T08:52:06Z</time>
 </trkpt>
 <trkpt lat="47.158611" lon="13.493336">
 <ele>1242.58</ele>
 <time>2010-09-02T08:52:18Z</time>
 </trkpt>
 <trkpt lat="47.158745" lon="13.492841">
 <ele>1244.40</ele>
 <time>2010-09-02T08:52:29Z</time>
 </trkpt>
 <trkpt lat="47.158848" lon="13.492429">
 <ele>1245.75</ele>
 <time>2010-09-02T08:52:38Z</time>
 </trkpt>
 <trkpt lat="47.159004" lon="13.491865">
 <ele>1246.76</ele>
 <time>2010-09-02T08:52:50Z</time>
 </trkpt>
 <trkpt lat="47.159195" lon="13.491491">
 <ele>1247.19</ele>
 <time>2010-09-02T08:52:59Z</time>
 </trkpt>
 <trkpt lat="47.159336" lon="13.491248">
 <ele>1246.82</ele>
 <time>2010-09-02T08:53:05Z</time>
 </trkpt>
 <trkpt lat="47.159500" lon="13.490936">
 <ele>1247.42</ele>
 <time>2010-09-02T08:53:14Z</time>
 </trkpt>
 <trkpt lat="47.159649" lon="13.490912">
 <ele>1247.47</ele>
 <time>2010-09-02T08:53:19Z</time>
 </trkpt>
 <trkpt lat="47.159760" lon="13.490846">
 <ele>1247.94</ele>
 <time>2010-09-02T08:53:24Z</time>
 </trkpt>
 <trkpt lat="47.159775" lon="13.490835">
 <ele>1248.26</ele>
 <time>2010-09-02T08:53:27Z</time>
 </trkpt>
 <trkpt lat="47.159790" lon="13.490800">
 <ele>1248.55</ele>
 <time>2010-09-02T08:53:34Z</time>
 </trkpt>
 <trkpt lat="47.159874" lon="13.490623">
 <ele>1248.10</ele>
 <time>2010-09-02T08:53:40Z</time>
 </trkpt>
 <trkpt lat="47.160000" lon="13.490344">
 <ele>1247.20</ele>
 <time>2010-09-02T08:53:46Z</time>
 </trkpt>
 <trkpt lat="47.160072" lon="13.490159">
 <ele>1247.44</ele>
 <time>2010-09-02T08:53:50Z</time>
 </trkpt>
 <trkpt lat="47.160179" lon="13.489783">
 <ele>1247.78</ele>
 <time>2010-09-02T08:53:58Z</time>
 </trkpt>
 <trkpt lat="47.160221" lon="13.489293">
 <ele>1247.04</ele>
 <time>2010-09-02T08:54:07Z</time>
 </trkpt>
 <trkpt lat="47.160236" lon="13.488970">
 <ele>1247.38</ele>
 <time>2010-09-02T08:54:13Z</time>
 </trkpt>
 <trkpt lat="47.160240" lon="13.488595">
 <ele>1247.59</ele>
 <time>2010-09-02T08:54:20Z</time>
 </trkpt>
 <trkpt lat="47.160316" lon="13.487960">
 <ele>1247.65</ele>
 <time>2010-09-02T08:54:32Z</time>
 </trkpt>
 <trkpt lat="47.160397" lon="13.487578">
 <ele>1247.68</ele>
 <time>2010-09-02T08:54:40Z</time>
 </trkpt>
 <trkpt lat="47.160534" lon="13.487195">
 <ele>1248.07</ele>
 <time>2010-09-02T08:54:48Z</time>
 </trkpt>
 <trkpt lat="47.160751" lon="13.486651">
 <ele>1248.07</ele>
 <time>2010-09-02T08:54:59Z</time>
 </trkpt>
 <trkpt lat="47.160965" lon="13.486246">
 <ele>1248.26</ele>
 <time>2010-09-02T08:55:08Z</time>
 </trkpt>
 <trkpt lat="47.161156" lon="13.485883">
 <ele>1248.67</ele>
 <time>2010-09-02T08:55:16Z</time>
 </trkpt>
 <trkpt lat="47.161282" lon="13.485462">
 <ele>1248.53</ele>
 <time>2010-09-02T08:55:24Z</time>
 </trkpt>
 <trkpt lat="47.161385" lon="13.484964">
 <ele>1249.27</ele>
 <time>2010-09-02T08:55:33Z</time>
 </trkpt>
 <trkpt lat="47.161530" lon="13.484539">
 <ele>1249.57</ele>
 <time>2010-09-02T08:55:42Z</time>
 </trkpt>
 <trkpt lat="47.161762" lon="13.483947">
 <ele>1250.06</ele>
 <time>2010-09-02T08:55:55Z</time>
 </trkpt>
 <trkpt lat="47.161911" lon="13.483589">
 <ele>1251.24</ele>
 <time>2010-09-02T08:56:03Z</time>
 </trkpt>
 <trkpt lat="47.162106" lon="13.483124">
 <ele>1252.58</ele>
 <time>2010-09-02T08:56:14Z</time>
 </trkpt>
 <trkpt lat="47.162262" lon="13.482792">
 <ele>1253.17</ele>
 <time>2010-09-02T08:56:22Z</time>
 </trkpt>
 <trkpt lat="47.162479" lon="13.482367">
 <ele>1255.29</ele>
 <time>2010-09-02T08:56:33Z</time>
 </trkpt>
 <trkpt lat="47.162628" lon="13.482112">
 <ele>1256.15</ele>
 <time>2010-09-02T08:56:40Z</time>
 </trkpt>
 <trkpt lat="47.162781" lon="13.481843">
 <ele>1256.76</ele>
 <time>2010-09-02T08:56:47Z</time>
 </trkpt>
 <trkpt lat="47.163010" lon="13.481417">
 <ele>1256.14</ele>
 <time>2010-09-02T08:56:57Z</time>
 </trkpt>
 <trkpt lat="47.163246" lon="13.480889">
 <ele>1255.62</ele>
 <time>2010-09-02T08:57:07Z</time>
 </trkpt>
 <trkpt lat="47.163490" lon="13.480339">
 <ele>1255.48</ele>
 <time>2010-09-02T08:57:17Z</time>
 </trkpt>
 <trkpt lat="47.163723" lon="13.479714">
 <ele>1254.39</ele>
 <time>2010-09-02T08:57:28Z</time>
 </trkpt>
 <trkpt lat="47.163773" lon="13.479268">
 <ele>1254.76</ele>
 <time>2010-09-02T08:57:35Z</time>
 </trkpt>
 <trkpt lat="47.163803" lon="13.478635">
 <ele>1255.65</ele>
 <time>2010-09-02T08:57:45Z</time>
 </trkpt>
 <trkpt lat="47.163822" lon="13.478007">
 <ele>1256.53</ele>
 <time>2010-09-02T08:57:56Z</time>
 </trkpt>
 <trkpt lat="47.163857" lon="13.477550">
 <ele>1257.78</ele>
 <time>2010-09-02T08:58:05Z</time>
 </trkpt>
 <trkpt lat="47.163975" lon="13.477337">
 <ele>1257.84</ele>
 <time>2010-09-02T08:58:11Z</time>
 </trkpt>
 <trkpt lat="47.164150" lon="13.477065">
 <ele>1257.41</ele>
 <time>2010-09-02T08:58:19Z</time>
 </trkpt>
 <trkpt lat="47.164341" lon="13.476864">
 <ele>1257.19</ele>
 <time>2010-09-02T08:58:26Z</time>
 </trkpt>
 <trkpt lat="47.164627" lon="13.476541">
 <ele>1257.67</ele>
 <time>2010-09-02T08:58:36Z</time>
 </trkpt>
 <trkpt lat="47.164825" lon="13.476133">
 <ele>1257.99</ele>
 <time>2010-09-02T08:58:45Z</time>
 </trkpt>
 <trkpt lat="47.165051" lon="13.475649">
 <ele>1258.22</ele>
 <time>2010-09-02T08:58:56Z</time>
 </trkpt>
 <trkpt lat="47.165310" lon="13.475239">
 <ele>1257.97</ele>
 <time>2010-09-02T08:59:07Z</time>
 </trkpt>
 <trkpt lat="47.165531" lon="13.474842">
 <ele>1258.16</ele>
 <time>2010-09-02T08:59:18Z</time>
 </trkpt>
 <trkpt lat="47.165649" lon="13.474393">
 <ele>1259.33</ele>
 <time>2010-09-02T08:59:28Z</time>
 </trkpt>
 <trkpt lat="47.165771" lon="13.473895">
 <ele>1259.29</ele>
 <time>2010-09-02T08:59:39Z</time>
 </trkpt>
 <trkpt lat="47.165955" lon="13.473282">
 <ele>1259.60</ele>
 <time>2010-09-02T08:59:53Z</time>
 </trkpt>
 <trkpt lat="47.166107" lon="13.472872">
 <ele>1259.90</ele>
 <time>2010-09-02T09:00:03Z</time>
 </trkpt>
 <trkpt lat="47.166252" lon="13.472472">
 <ele>1261.29</ele>
 <time>2010-09-02T09:00:13Z</time>
 </trkpt>
 <trkpt lat="47.166374" lon="13.472051">
 <ele>1263.38</ele>
 <time>2010-09-02T09:00:23Z</time>
 </trkpt>
 <trkpt lat="47.166454" lon="13.471602">
 <ele>1264.21</ele>
 <time>2010-09-02T09:00:33Z</time>
 </trkpt>
 <trkpt lat="47.166523" lon="13.471197">
 <ele>1265.72</ele>
 <time>2010-09-02T09:00:43Z</time>
 </trkpt>
 <trkpt lat="47.166618" lon="13.470753">
 <ele>1267.51</ele>
 <time>2010-09-02T09:00:55Z</time>
 </trkpt>
 <trkpt lat="47.166725" lon="13.470353">
 <ele>1268.40</ele>
 <time>2010-09-02T09:01:06Z</time>
 </trkpt>
 <trkpt lat="47.166847" lon="13.469899">
 <ele>1270.39</ele>
 <time>2010-09-02T09:01:19Z</time>
 </trkpt>
 <trkpt lat="47.166939" lon="13.469494">
 <ele>1271.99</ele>
 <time>2010-09-02T09:01:30Z</time>
 </trkpt>
 <trkpt lat="47.167019" lon="13.469146">
 <ele>1272.60</ele>
 <time>2010-09-02T09:01:39Z</time>
 </trkpt>
 <trkpt lat="47.167103" lon="13.468853">
 <ele>1273.23</ele>
 <time>2010-09-02T09:01:47Z</time>
 </trkpt>
 <trkpt lat="47.167240" lon="13.468541">
 <ele>1274.05</ele>
 <time>2010-09-02T09:01:56Z</time>
 </trkpt>
 <trkpt lat="47.167419" lon="13.468222">
 <ele>1273.71</ele>
 <time>2010-09-02T09:02:05Z</time>
 </trkpt>
 <trkpt lat="47.167645" lon="13.467858">
 <ele>1272.97</ele>
 <time>2010-09-02T09:02:14Z</time>
 </trkpt>
 <trkpt lat="47.167885" lon="13.467437">
 <ele>1272.82</ele>
 <time>2010-09-02T09:02:23Z</time>
 </trkpt>
 <trkpt lat="47.168068" lon="13.467128">
 <ele>1271.92</ele>
 <time>2010-09-02T09:02:30Z</time>
 </trkpt>
 <trkpt lat="47.168144" lon="13.467053">
 <ele>1272.05</ele>
 <time>2010-09-02T09:02:34Z</time>
 </trkpt>
 <trkpt lat="47.168148" lon="13.467051">
 <ele>1272.81</ele>
 <time>2010-09-02T09:02:36Z</time>
 </trkpt>
 <trkpt lat="47.168171" lon="13.467027">
 <ele>1273.05</ele>
 <time>2010-09-02T09:03:10Z</time>
 </trkpt>
 <trkpt lat="47.168182" lon="13.467009">
 <ele>1272.96</ele>
 <time>2010-09-02T09:03:11Z</time>
 </trkpt>
 <trkpt lat="47.168285" lon="13.466856">
 <ele>1272.03</ele>
 <time>2010-09-02T09:03:16Z</time>
 </trkpt>
 <trkpt lat="47.168362" lon="13.466592">
 <ele>1271.30</ele>
 <time>2010-09-02T09:03:21Z</time>
 </trkpt>
 <trkpt lat="47.168484" lon="13.466062">
 <ele>1271.38</ele>
 <time>2010-09-02T09:03:31Z</time>
 </trkpt>
 <trkpt lat="47.168594" lon="13.465535">
 <ele>1272.31</ele>
 <time>2010-09-02T09:03:41Z</time>
 </trkpt>
 <trkpt lat="47.168674" lon="13.465057">
 <ele>1273.62</ele>
 <time>2010-09-02T09:03:50Z</time>
 </trkpt>
 <trkpt lat="47.168728" lon="13.464559">
 <ele>1274.01</ele>
 <time>2010-09-02T09:03:59Z</time>
 </trkpt>
 <trkpt lat="47.168793" lon="13.464155">
 <ele>1274.46</ele>
 <time>2010-09-02T09:04:07Z</time>
 </trkpt>
 <trkpt lat="47.168793" lon="13.463960">
 <ele>1274.96</ele>
 <time>2010-09-02T09:04:11Z</time>
 </trkpt>
 <trkpt lat="47.168892" lon="13.463511">
 <ele>1274.97</ele>
 <time>2010-09-02T09:04:19Z</time>
 </trkpt>
 <trkpt lat="47.169048" lon="13.463038">
 <ele>1275.90</ele>
 <time>2010-09-02T09:04:28Z</time>
 </trkpt>
 <trkpt lat="47.169201" lon="13.462582">
 <ele>1275.92</ele>
 <time>2010-09-02T09:04:37Z</time>
 </trkpt>
 <trkpt lat="47.169373" lon="13.462117">
 <ele>1277.36</ele>
 <time>2010-09-02T09:04:47Z</time>
 </trkpt>
 <trkpt lat="47.169430" lon="13.461881">
 <ele>1277.80</ele>
 <time>2010-09-02T09:04:51Z</time>
 </trkpt>
 <trkpt lat="47.169510" lon="13.461564">
 <ele>1277.67</ele>
 <time>2010-09-02T09:04:57Z</time>
 </trkpt>
 <trkpt lat="47.169567" lon="13.461171">
 <ele>1278.42</ele>
 <time>2010-09-02T09:05:03Z</time>
 </trkpt>
 <trkpt lat="47.169655" lon="13.460619">
 <ele>1278.98</ele>
 <time>2010-09-02T09:05:12Z</time>
 </trkpt>
 <trkpt lat="47.169731" lon="13.460345">
 <ele>1278.93</ele>
 <time>2010-09-02T09:05:17Z</time>
 </trkpt>
 <trkpt lat="47.169750" lon="13.460288">
 <ele>1278.98</ele>
 <time>2010-09-02T09:05:18Z</time>
 </trkpt>
 <trkpt lat="47.169884" lon="13.460060">
 <ele>1279.74</ele>
 <time>2010-09-02T09:05:23Z</time>
 </trkpt>
 <trkpt lat="47.170128" lon="13.459642">
 <ele>1281.23</ele>
 <time>2010-09-02T09:05:33Z</time>
 </trkpt>
 <trkpt lat="47.170143" lon="13.459438">
 <ele>1281.16</ele>
 <time>2010-09-02T09:05:37Z</time>
 </trkpt>
 <trkpt lat="47.170055" lon="13.458991">
 <ele>1281.94</ele>
 <time>2010-09-02T09:05:45Z</time>
 </trkpt>
 <trkpt lat="47.169949" lon="13.458536">
 <ele>1282.52</ele>
 <time>2010-09-02T09:05:53Z</time>
 </trkpt>
 <trkpt lat="47.169926" lon="13.458139">
 <ele>1283.33</ele>
 <time>2010-09-02T09:06:00Z</time>
 </trkpt>
 <trkpt lat="47.170029" lon="13.457860">
 <ele>1283.92</ele>
 <time>2010-09-02T09:06:06Z</time>
 </trkpt>
 <trkpt lat="47.170177" lon="13.457527">
 <ele>1284.35</ele>
 <time>2010-09-02T09:06:14Z</time>
 </trkpt>
 <trkpt lat="47.170277" lon="13.457175">
 <ele>1285.25</ele>
 <time>2010-09-02T09:06:22Z</time>
 </trkpt>
 <trkpt lat="47.170368" lon="13.456771">
 <ele>1287.02</ele>
 <time>2010-09-02T09:06:31Z</time>
 </trkpt>
 <trkpt lat="47.170406" lon="13.456317">
 <ele>1288.65</ele>
 <time>2010-09-02T09:06:40Z</time>
 </trkpt>
 <trkpt lat="47.170422" lon="13.455894">
 <ele>1289.14</ele>
 <time>2010-09-02T09:06:50Z</time>
 </trkpt>
 <trkpt lat="47.170460" lon="13.455666">
 <ele>1289.90</ele>
 <time>2010-09-02T09:06:56Z</time>
 </trkpt>
 <trkpt lat="47.170551" lon="13.455482">
 <ele>1290.62</ele>
 <time>2010-09-02T09:07:01Z</time>
 </trkpt>
 <trkpt lat="47.170765" lon="13.455246">
 <ele>1291.39</ele>
 <time>2010-09-02T09:07:09Z</time>
 </trkpt>
 <trkpt lat="47.170933" lon="13.455083">
 <ele>1292.14</ele>
 <time>2010-09-02T09:07:15Z</time>
 </trkpt>
 <trkpt lat="47.171177" lon="13.454863">
 <ele>1293.18</ele>
 <time>2010-09-02T09:07:24Z</time>
 </trkpt>
 <trkpt lat="47.171356" lon="13.454605">
 <ele>1293.71</ele>
 <time>2010-09-02T09:07:32Z</time>
 </trkpt>
 <trkpt lat="47.171417" lon="13.454345">
 <ele>1294.46</ele>
 <time>2010-09-02T09:07:38Z</time>
 </trkpt>
 <trkpt lat="47.171524" lon="13.454015">
 <ele>1295.58</ele>
 <time>2010-09-02T09:07:46Z</time>
 </trkpt>
 <trkpt lat="47.171635" lon="13.453840">
 <ele>1296.32</ele>
 <time>2010-09-02T09:07:52Z</time>
 </trkpt>
 <trkpt lat="47.171783" lon="13.453590">
 <ele>1297.62</ele>
 <time>2010-09-02T09:08:02Z</time>
 </trkpt>
 <trkpt lat="47.171856" lon="13.453321">
 <ele>1299.76</ele>
 <time>2010-09-02T09:08:11Z</time>
 </trkpt>
 <trkpt lat="47.171867" lon="13.453039">
 <ele>1301.50</ele>
 <time>2010-09-02T09:08:20Z</time>
 </trkpt>
 <trkpt lat="47.171848" lon="13.452848">
 <ele>1302.04</ele>
 <time>2010-09-02T09:08:27Z</time>
 </trkpt>
 <trkpt lat="47.171848" lon="13.452837">
 <ele>1302.32</ele>
 <time>2010-09-02T09:08:30Z</time>
 </trkpt>
 <trkpt lat="47.171909" lon="13.452734">
 <ele>1301.82</ele>
 <time>2010-09-02T09:08:39Z</time>
 </trkpt>
 <trkpt lat="47.171978" lon="13.452494">
 <ele>1301.95</ele>
 <time>2010-09-02T09:08:48Z</time>
 </trkpt>
 <trkpt lat="47.172050" lon="13.452214">
 <ele>1301.19</ele>
 <time>2010-09-02T09:08:54Z</time>
 </trkpt>
 <trkpt lat="47.172131" lon="13.451789">
 <ele>1300.70</ele>
 <time>2010-09-02T09:09:02Z</time>
 </trkpt>
 <trkpt lat="47.172184" lon="13.451404">
 <ele>1300.77</ele>
 <time>2010-09-02T09:09:09Z</time>
 </trkpt>
 <trkpt lat="47.172291" lon="13.451034">
 <ele>1302.63</ele>
 <time>2010-09-02T09:09:17Z</time>
 </trkpt>
 <trkpt lat="47.172405" lon="13.450744">
 <ele>1303.49</ele>
 <time>2010-09-02T09:09:24Z</time>
 </trkpt>
 <trkpt lat="47.172531" lon="13.450387">
 <ele>1304.47</ele>
 <time>2010-09-02T09:09:33Z</time>
 </trkpt>
 <trkpt lat="47.172630" lon="13.450137">
 <ele>1304.02</ele>
 <time>2010-09-02T09:09:39Z</time>
 </trkpt>
 <trkpt lat="47.172714" lon="13.449713">
 <ele>1303.90</ele>
 <time>2010-09-02T09:09:48Z</time>
 </trkpt>
 <trkpt lat="47.172859" lon="13.449294">
 <ele>1305.39</ele>
 <time>2010-09-02T09:09:56Z</time>
 </trkpt>
 <trkpt lat="47.173027" lon="13.449095">
 <ele>1306.26</ele>
 <time>2010-09-02T09:10:02Z</time>
 </trkpt>
 <trkpt lat="47.173225" lon="13.449001">
 <ele>1307.60</ele>
 <time>2010-09-02T09:10:09Z</time>
 </trkpt>
 <trkpt lat="47.173347" lon="13.448871">
 <ele>1308.07</ele>
 <time>2010-09-02T09:10:14Z</time>
 </trkpt>
 <trkpt lat="47.173481" lon="13.448685">
 <ele>1309.47</ele>
 <time>2010-09-02T09:10:21Z</time>
 </trkpt>
 <trkpt lat="47.173607" lon="13.448568">
 <ele>1310.93</ele>
 <time>2010-09-02T09:10:28Z</time>
 </trkpt>
 <trkpt lat="47.173744" lon="13.448548">
 <ele>1311.91</ele>
 <time>2010-09-02T09:10:34Z</time>
 </trkpt>
 <trkpt lat="47.173859" lon="13.448635">
 <ele>1312.67</ele>
 <time>2010-09-02T09:10:40Z</time>
 </trkpt>
 <trkpt lat="47.173923" lon="13.448635">
 <ele>1313.35</ele>
 <time>2010-09-02T09:10:44Z</time>
 </trkpt>
 <trkpt lat="47.174053" lon="13.448540">
 <ele>1314.31</ele>
 <time>2010-09-02T09:10:49Z</time>
 </trkpt>
 <trkpt lat="47.174171" lon="13.448490">
 <ele>1314.86</ele>
 <time>2010-09-02T09:10:55Z</time>
 </trkpt>
 <trkpt lat="47.174202" lon="13.448471">
 <ele>1314.95</ele>
 <time>2010-09-02T09:10:57Z</time>
 </trkpt>
 <trkpt lat="47.174229" lon="13.448477">
 <ele>1315.49</ele>
 <time>2010-09-02T09:11:01Z</time>
 </trkpt>
 <trkpt lat="47.174328" lon="13.448424">
 <ele>1315.70</ele>
 <time>2010-09-02T09:11:06Z</time>
 </trkpt>
 <trkpt lat="47.174419" lon="13.448399">
 <ele>1316.37</ele>
 <time>2010-09-02T09:11:10Z</time>
 </trkpt>
 <trkpt lat="47.174660" lon="13.448496">
 <ele>1318.13</ele>
 <time>2010-09-02T09:11:17Z</time>
 </trkpt>
 <trkpt lat="47.174900" lon="13.448461">
 <ele>1319.23</ele>
 <time>2010-09-02T09:11:24Z</time>
 </trkpt>
 <trkpt lat="47.175137" lon="13.448363">
 <ele>1319.41</ele>
 <time>2010-09-02T09:11:30Z</time>
 </trkpt>
 <trkpt lat="47.175381" lon="13.448172">
 <ele>1320.12</ele>
 <time>2010-09-02T09:11:38Z</time>
 </trkpt>
 <trkpt lat="47.175606" lon="13.447953">
 <ele>1321.41</ele>
 <time>2010-09-02T09:11:46Z</time>
 </trkpt>
 <trkpt lat="47.175858" lon="13.447785">
 <ele>1322.58</ele>
 <time>2010-09-02T09:11:54Z</time>
 </trkpt>
 <trkpt lat="47.176117" lon="13.447585">
 <ele>1323.43</ele>
 <time>2010-09-02T09:12:03Z</time>
 </trkpt>
 <trkpt lat="47.176296" lon="13.447316">
 <ele>1324.16</ele>
 <time>2010-09-02T09:12:11Z</time>
 </trkpt>
 <trkpt lat="47.176476" lon="13.446994">
 <ele>1324.25</ele>
 <time>2010-09-02T09:12:20Z</time>
 </trkpt>
 <trkpt lat="47.176723" lon="13.446608">
 <ele>1324.95</ele>
 <time>2010-09-02T09:12:31Z</time>
 </trkpt>
 <trkpt lat="47.176876" lon="13.446383">
 <ele>1325.48</ele>
 <time>2010-09-02T09:12:38Z</time>
 </trkpt>
 <trkpt lat="47.177097" lon="13.446195">
 <ele>1326.72</ele>
 <time>2010-09-02T09:12:47Z</time>
 </trkpt>
 <trkpt lat="47.177284" lon="13.446150">
 <ele>1328.08</ele>
 <time>2010-09-02T09:12:54Z</time>
 </trkpt>
 <trkpt lat="47.177502" lon="13.446092">
 <ele>1329.80</ele>
 <time>2010-09-02T09:13:01Z</time>
 </trkpt>
 <trkpt lat="47.177662" lon="13.446017">
 <ele>1330.88</ele>
 <time>2010-09-02T09:13:07Z</time>
 </trkpt>
 <trkpt lat="47.177769" lon="13.445941">
 <ele>1331.57</ele>
 <time>2010-09-02T09:13:12Z</time>
 </trkpt>
 <trkpt lat="47.177853" lon="13.445809">
 <ele>1332.34</ele>
 <time>2010-09-02T09:13:17Z</time>
 </trkpt>
 <trkpt lat="47.177940" lon="13.445447">
 <ele>1333.46</ele>
 <time>2010-09-02T09:13:26Z</time>
 </trkpt>
 <trkpt lat="47.178078" lon="13.445115">
 <ele>1334.79</ele>
 <time>2010-09-02T09:13:36Z</time>
 </trkpt>
 <trkpt lat="47.178219" lon="13.444866">
 <ele>1335.91</ele>
 <time>2010-09-02T09:13:45Z</time>
 </trkpt>
 <trkpt lat="47.178337" lon="13.444668">
 <ele>1336.92</ele>
 <time>2010-09-02T09:13:52Z</time>
 </trkpt>
 <trkpt lat="47.178413" lon="13.444485">
 <ele>1337.38</ele>
 <time>2010-09-02T09:13:59Z</time>
 </trkpt>
 <trkpt lat="47.178524" lon="13.444288">
 <ele>1338.09</ele>
 <time>2010-09-02T09:14:06Z</time>
 </trkpt>
 <trkpt lat="47.178677" lon="13.444016">
 <ele>1339.02</ele>
 <time>2010-09-02T09:14:14Z</time>
 </trkpt>
 <trkpt lat="47.178802" lon="13.443787">
 <ele>1339.54</ele>
 <time>2010-09-02T09:14:21Z</time>
 </trkpt>
 <trkpt lat="47.178955" lon="13.443483">
 <ele>1340.24</ele>
 <time>2010-09-02T09:14:30Z</time>
 </trkpt>
 <trkpt lat="47.179081" lon="13.443193">
 <ele>1340.93</ele>
 <time>2010-09-02T09:14:38Z</time>
 </trkpt>
 <trkpt lat="47.179230" lon="13.442929">
 <ele>1341.54</ele>
 <time>2010-09-02T09:14:46Z</time>
 </trkpt>
 <trkpt lat="47.179451" lon="13.442584">
 <ele>1342.24</ele>
 <time>2010-09-02T09:14:57Z</time>
 </trkpt>
 <trkpt lat="47.179615" lon="13.442275">
 <ele>1342.55</ele>
 <time>2010-09-02T09:15:05Z</time>
 </trkpt>
 <trkpt lat="47.179764" lon="13.442025">
 <ele>1342.57</ele>
 <time>2010-09-02T09:15:12Z</time>
 </trkpt>
 <trkpt lat="47.179939" lon="13.441740">
 <ele>1343.81</ele>
 <time>2010-09-02T09:15:21Z</time>
 </trkpt>
 <trkpt lat="47.180099" lon="13.441486">
 <ele>1345.11</ele>
 <time>2010-09-02T09:15:29Z</time>
 </trkpt>
 <trkpt lat="47.180267" lon="13.441221">
 <ele>1346.61</ele>
 <time>2010-09-02T09:15:37Z</time>
 </trkpt>
 <trkpt lat="47.180412" lon="13.440929">
 <ele>1347.18</ele>
 <time>2010-09-02T09:15:45Z</time>
 </trkpt>
 <trkpt lat="47.180443" lon="13.440595">
 <ele>1347.48</ele>
 <time>2010-09-02T09:15:52Z</time>
 </trkpt>
 <trkpt lat="47.180538" lon="13.440376">
 <ele>1347.78</ele>
 <time>2010-09-02T09:15:58Z</time>
 </trkpt>
 <trkpt lat="47.180588" lon="13.440083">
 <ele>1349.09</ele>
 <time>2010-09-02T09:16:04Z</time>
 </trkpt>
 <trkpt lat="47.180618" lon="13.439782">
 <ele>1349.61</ele>
 <time>2010-09-02T09:16:10Z</time>
 </trkpt>
 <trkpt lat="47.180672" lon="13.439364">
 <ele>1350.53</ele>
 <time>2010-09-02T09:16:19Z</time>
 </trkpt>
 <trkpt lat="47.180775" lon="13.439116">
 <ele>1350.77</ele>
 <time>2010-09-02T09:16:25Z</time>
 </trkpt>
 <trkpt lat="47.180984" lon="13.438710">
 <ele>1351.38</ele>
 <time>2010-09-02T09:16:36Z</time>
 </trkpt>
 <trkpt lat="47.181133" lon="13.438437">
 <ele>1352.50</ele>
 <time>2010-09-02T09:16:44Z</time>
 </trkpt>
 <trkpt lat="47.181293" lon="13.438252">
 <ele>1353.37</ele>
 <time>2010-09-02T09:16:51Z</time>
 </trkpt>
 <trkpt lat="47.181393" lon="13.438025">
 <ele>1354.24</ele>
 <time>2010-09-02T09:16:59Z</time>
 </trkpt>
 <trkpt lat="47.181454" lon="13.437810">
 <ele>1355.54</ele>
 <time>2010-09-02T09:17:06Z</time>
 </trkpt>
 <trkpt lat="47.181530" lon="13.437439">
 <ele>1357.94</ele>
 <time>2010-09-02T09:17:18Z</time>
 </trkpt>
 <trkpt lat="47.181625" lon="13.437177">
 <ele>1359.32</ele>
 <time>2010-09-02T09:17:28Z</time>
 </trkpt>
 <trkpt lat="47.181732" lon="13.436940">
 <ele>1360.50</ele>
 <time>2010-09-02T09:17:38Z</time>
 </trkpt>
 <trkpt lat="47.181847" lon="13.436687">
 <ele>1362.23</ele>
 <time>2010-09-02T09:17:48Z</time>
 </trkpt>
 <trkpt lat="47.181953" lon="13.436488">
 <ele>1363.91</ele>
 <time>2010-09-02T09:17:57Z</time>
 </trkpt>
 <trkpt lat="47.182053" lon="13.436255">
 <ele>1365.45</ele>
 <time>2010-09-02T09:18:07Z</time>
 </trkpt>
 <trkpt lat="47.182159" lon="13.436035">
 <ele>1367.13</ele>
 <time>2010-09-02T09:18:17Z</time>
 </trkpt>
 <trkpt lat="47.182274" lon="13.435849">
 <ele>1368.74</ele>
 <time>2010-09-02T09:18:27Z</time>
 </trkpt>
 <trkpt lat="47.182388" lon="13.435769">
 <ele>1370.68</ele>
 <time>2010-09-02T09:18:35Z</time>
 </trkpt>
 <trkpt lat="47.182480" lon="13.435824">
 <ele>1371.78</ele>
 <time>2010-09-02T09:18:41Z</time>
 </trkpt>
 <trkpt lat="47.182587" lon="13.435984">
 <ele>1373.92</ele>
 <time>2010-09-02T09:18:50Z</time>
 </trkpt>
 <trkpt lat="47.182632" lon="13.436121">
 <ele>1375.26</ele>
 <time>2010-09-02T09:18:56Z</time>
 </trkpt>
 <trkpt lat="47.182671" lon="13.436319">
 <ele>1376.77</ele>
 <time>2010-09-02T09:19:04Z</time>
 </trkpt>
 <trkpt lat="47.182693" lon="13.436580">
 <ele>1378.40</ele>
 <time>2010-09-02T09:19:14Z</time>
 </trkpt>
 <trkpt lat="47.182720" lon="13.436813">
 <ele>1380.21</ele>
 <time>2010-09-02T09:19:23Z</time>
 </trkpt>
 <trkpt lat="47.182762" lon="13.437073">
 <ele>1380.89</ele>
 <time>2010-09-02T09:19:33Z</time>
 </trkpt>
 <trkpt lat="47.182789" lon="13.437248">
 <ele>1381.34</ele>
 <time>2010-09-02T09:19:39Z</time>
 </trkpt>
 <trkpt lat="47.182835" lon="13.437418">
 <ele>1381.26</ele>
 <time>2010-09-02T09:19:45Z</time>
 </trkpt>
 <trkpt lat="47.182907" lon="13.437663">
 <ele>1381.52</ele>
 <time>2010-09-02T09:19:53Z</time>
 </trkpt>
 <trkpt lat="47.182972" lon="13.437911">
 <ele>1381.96</ele>
 <time>2010-09-02T09:20:01Z</time>
 </trkpt>
 <trkpt lat="47.183014" lon="13.438128">
 <ele>1382.83</ele>
 <time>2010-09-02T09:20:08Z</time>
 </trkpt>
 <trkpt lat="47.183067" lon="13.438324">
 <ele>1383.65</ele>
 <time>2010-09-02T09:20:15Z</time>
 </trkpt>
 <trkpt lat="47.183140" lon="13.438560">
 <ele>1383.90</ele>
 <time>2010-09-02T09:20:23Z</time>
 </trkpt>
 <trkpt lat="47.183163" lon="13.438818">
 <ele>1384.41</ele>
 <time>2010-09-02T09:20:31Z</time>
 </trkpt>
 <trkpt lat="47.183136" lon="13.439065">
 <ele>1384.88</ele>
 <time>2010-09-02T09:20:39Z</time>
 </trkpt>
 <trkpt lat="47.183136" lon="13.439273">
 <ele>1384.62</ele>
 <time>2010-09-02T09:20:45Z</time>
 </trkpt>
 <trkpt lat="47.183151" lon="13.439523">
 <ele>1385.04</ele>
 <time>2010-09-02T09:20:52Z</time>
 </trkpt>
 <trkpt lat="47.183128" lon="13.439874">
 <ele>1386.04</ele>
 <time>2010-09-02T09:21:02Z</time>
 </trkpt>
 <trkpt lat="47.183060" lon="13.440081">
 <ele>1386.89</ele>
 <time>2010-09-02T09:21:09Z</time>
 </trkpt>
 <trkpt lat="47.183086" lon="13.440235">
 <ele>1387.58</ele>
 <time>2010-09-02T09:21:14Z</time>
 </trkpt>
 <trkpt lat="47.183205" lon="13.440375">
 <ele>1388.40</ele>
 <time>2010-09-02T09:21:21Z</time>
 </trkpt>
 <trkpt lat="47.183319" lon="13.440462">
 <ele>1390.07</ele>
 <time>2010-09-02T09:21:28Z</time>
 </trkpt>
 <trkpt lat="47.183430" lon="13.440478">
 <ele>1390.89</ele>
 <time>2010-09-02T09:21:35Z</time>
 </trkpt>
 <trkpt lat="47.183540" lon="13.440333">
 <ele>1392.67</ele>
 <time>2010-09-02T09:21:44Z</time>
 </trkpt>
 <trkpt lat="47.183594" lon="13.440118">
 <ele>1394.68</ele>
 <time>2010-09-02T09:21:53Z</time>
 </trkpt>
 <trkpt lat="47.183624" lon="13.439959">
 <ele>1395.90</ele>
 <time>2010-09-02T09:22:00Z</time>
 </trkpt>
 <trkpt lat="47.183666" lon="13.439808">
 <ele>1397.98</ele>
 <time>2010-09-02T09:22:07Z</time>
 </trkpt>
 <trkpt lat="47.183701" lon="13.439613">
 <ele>1400.18</ele>
 <time>2010-09-02T09:22:16Z</time>
 </trkpt>
 <trkpt lat="47.183731" lon="13.439460">
 <ele>1401.39</ele>
 <time>2010-09-02T09:22:23Z</time>
 </trkpt>
 <trkpt lat="47.183746" lon="13.439242">
 <ele>1402.94</ele>
 <time>2010-09-02T09:22:33Z</time>
 </trkpt>
 <trkpt lat="47.183712" lon="13.439015">
 <ele>1404.36</ele>
 <time>2010-09-02T09:22:43Z</time>
 </trkpt>
 <trkpt lat="47.183666" lon="13.438792">
 <ele>1405.41</ele>
 <time>2010-09-02T09:22:53Z</time>
 </trkpt>
 <trkpt lat="47.183613" lon="13.438574">
 <ele>1406.47</ele>
 <time>2010-09-02T09:23:02Z</time>
 </trkpt>
 <trkpt lat="47.183609" lon="13.438323">
 <ele>1407.97</ele>
 <time>2010-09-02T09:23:13Z</time>
 </trkpt>
 <trkpt lat="47.183617" lon="13.438095">
 <ele>1409.65</ele>
 <time>2010-09-02T09:23:23Z</time>
 </trkpt>
 <trkpt lat="47.183643" lon="13.437990">
 <ele>1410.43</ele>
 <time>2010-09-02T09:23:28Z</time>
 </trkpt>
 <trkpt lat="47.183689" lon="13.437768">
 <ele>1412.30</ele>
 <time>2010-09-02T09:23:38Z</time>
 </trkpt>
 <trkpt lat="47.183735" lon="13.437526">
 <ele>1414.33</ele>
 <time>2010-09-02T09:23:49Z</time>
 </trkpt>
 <trkpt lat="47.183765" lon="13.437258">
 <ele>1416.38</ele>
 <time>2010-09-02T09:24:01Z</time>
 </trkpt>
 <trkpt lat="47.183800" lon="13.437032">
 <ele>1417.45</ele>
 <time>2010-09-02T09:24:11Z</time>
 </trkpt>
 <trkpt lat="47.183830" lon="13.436835">
 <ele>1418.82</ele>
 <time>2010-09-02T09:24:20Z</time>
 </trkpt>
 <trkpt lat="47.183887" lon="13.436590">
 <ele>1419.83</ele>
 <time>2010-09-02T09:24:31Z</time>
 </trkpt>
 <trkpt lat="47.183937" lon="13.436406">
 <ele>1420.44</ele>
 <time>2010-09-02T09:24:39Z</time>
 </trkpt>
 <trkpt lat="47.183990" lon="13.436202">
 <ele>1422.13</ele>
 <time>2010-09-02T09:24:48Z</time>
 </trkpt>
 <trkpt lat="47.184036" lon="13.435983">
 <ele>1423.36</ele>
 <time>2010-09-02T09:24:58Z</time>
 </trkpt>
 <trkpt lat="47.184093" lon="13.435746">
 <ele>1425.99</ele>
 <time>2010-09-02T09:25:09Z</time>
 </trkpt>
 <trkpt lat="47.184162" lon="13.435586">
 <ele>1427.51</ele>
 <time>2010-09-02T09:25:18Z</time>
 </trkpt>
 <trkpt lat="47.184254" lon="13.435421">
 <ele>1429.30</ele>
 <time>2010-09-02T09:25:28Z</time>
 </trkpt>
 <trkpt lat="47.184334" lon="13.435250">
 <ele>1431.28</ele>
 <time>2010-09-02T09:25:37Z</time>
 </trkpt>
 <trkpt lat="47.184399" lon="13.435017">
 <ele>1432.93</ele>
 <time>2010-09-02T09:25:48Z</time>
 </trkpt>
 <trkpt lat="47.184441" lon="13.434811">
 <ele>1433.95</ele>
 <time>2010-09-02T09:25:56Z</time>
 </trkpt>
 <trkpt lat="47.184456" lon="13.434582">
 <ele>1435.39</ele>
 <time>2010-09-02T09:26:05Z</time>
 </trkpt>
 <trkpt lat="47.184448" lon="13.434390">
 <ele>1436.17</ele>
 <time>2010-09-02T09:26:12Z</time>
 </trkpt>
 <trkpt lat="47.184452" lon="13.434056">
 <ele>1437.01</ele>
 <time>2010-09-02T09:26:24Z</time>
 </trkpt>
 <trkpt lat="47.184483" lon="13.433773">
 <ele>1437.02</ele>
 <time>2010-09-02T09:26:34Z</time>
 </trkpt>
 <trkpt lat="47.184479" lon="13.433453">
 <ele>1437.15</ele>
 <time>2010-09-02T09:26:43Z</time>
 </trkpt>
 <trkpt lat="47.184460" lon="13.433162">
 <ele>1437.21</ele>
 <time>2010-09-02T09:26:52Z</time>
 </trkpt>
 <trkpt lat="47.184448" lon="13.433022">
 <ele>1438.45</ele>
 <time>2010-09-02T09:26:58Z</time>
 </trkpt>
 <trkpt lat="47.184452" lon="13.433021">
 <ele>1438.61</ele>
 <time>2010-09-02T09:26:59Z</time>
 </trkpt>
 <trkpt lat="47.184483" lon="13.432926">
 <ele>1438.19</ele>
 <time>2010-09-02T09:27:08Z</time>
 </trkpt>
 <trkpt lat="47.184490" lon="13.432906">
 <ele>1438.27</ele>
 <time>2010-09-02T09:27:09Z</time>
 </trkpt>
 <trkpt lat="47.184525" lon="13.432882">
 <ele>1438.71</ele>
 <time>2010-09-02T09:27:13Z</time>
 </trkpt>
 <trkpt lat="47.184502" lon="13.432788">
 <ele>1438.87</ele>
 <time>2010-09-02T09:27:19Z</time>
 </trkpt>
 <trkpt lat="47.184509" lon="13.432756">
 <ele>1438.99</ele>
 <time>2010-09-02T09:27:23Z</time>
 </trkpt>
 <trkpt lat="47.184532" lon="13.432671">
 <ele>1439.12</ele>
 <time>2010-09-02T09:27:46Z</time>
 </trkpt>
 <trkpt lat="47.184540" lon="13.432647">
 <ele>1438.99</ele>
 <time>2010-09-02T09:27:47Z</time>
 </trkpt>
 <trkpt lat="47.184593" lon="13.432500">
 <ele>1439.43</ele>
 <time>2010-09-02T09:27:53Z</time>
 </trkpt>
 <trkpt lat="47.184650" lon="13.432307">
 <ele>1439.40</ele>
 <time>2010-09-02T09:27:59Z</time>
 </trkpt>
 <trkpt lat="47.184750" lon="13.432009">
 <ele>1440.52</ele>
 <time>2010-09-02T09:28:08Z</time>
 </trkpt>
 <trkpt lat="47.184788" lon="13.431758">
 <ele>1441.10</ele>
 <time>2010-09-02T09:28:15Z</time>
 </trkpt>
 <trkpt lat="47.184826" lon="13.431468">
 <ele>1441.24</ele>
 <time>2010-09-02T09:28:23Z</time>
 </trkpt>
 <trkpt lat="47.184875" lon="13.431225">
 <ele>1441.53</ele>
 <time>2010-09-02T09:28:30Z</time>
 </trkpt>
 <trkpt lat="47.184910" lon="13.430916">
 <ele>1442.88</ele>
 <time>2010-09-02T09:28:39Z</time>
 </trkpt>
 <trkpt lat="47.184952" lon="13.430585">
 <ele>1443.97</ele>
 <time>2010-09-02T09:28:49Z</time>
 </trkpt>
 <trkpt lat="47.185032" lon="13.430384">
 <ele>1445.44</ele>
 <time>2010-09-02T09:28:56Z</time>
 </trkpt>
 <trkpt lat="47.185104" lon="13.430130">
 <ele>1445.91</ele>
 <time>2010-09-02T09:29:04Z</time>
 </trkpt>
 <trkpt lat="47.185181" lon="13.429853">
 <ele>1447.31</ele>
 <time>2010-09-02T09:29:13Z</time>
 </trkpt>
 <trkpt lat="47.185234" lon="13.429609">
 <ele>1448.69</ele>
 <time>2010-09-02T09:29:21Z</time>
 </trkpt>
 <trkpt lat="47.185268" lon="13.429325">
 <ele>1449.74</ele>
 <time>2010-09-02T09:29:31Z</time>
 </trkpt>
 <trkpt lat="47.185314" lon="13.429066">
 <ele>1451.47</ele>
 <time>2010-09-02T09:29:41Z</time>
 </trkpt>
 <trkpt lat="47.185349" lon="13.428835">
 <ele>1454.17</ele>
 <time>2010-09-02T09:29:50Z</time>
 </trkpt>
 <trkpt lat="47.185398" lon="13.428619">
 <ele>1455.95</ele>
 <time>2010-09-02T09:29:59Z</time>
 </trkpt>
 <trkpt lat="47.185444" lon="13.428423">
 <ele>1457.44</ele>
 <time>2010-09-02T09:30:07Z</time>
 </trkpt>
 <trkpt lat="47.185555" lon="13.428255">
 <ele>1459.87</ele>
 <time>2010-09-02T09:30:16Z</time>
 </trkpt>
 <trkpt lat="47.185570" lon="13.427978">
 <ele>1462.36</ele>
 <time>2010-09-02T09:30:28Z</time>
 </trkpt>
 <trkpt lat="47.185505" lon="13.427790">
 <ele>1463.97</ele>
 <time>2010-09-02T09:30:37Z</time>
 </trkpt>
 <trkpt lat="47.185467" lon="13.427608">
 <ele>1465.77</ele>
 <time>2010-09-02T09:30:45Z</time>
 </trkpt>
 <trkpt lat="47.185452" lon="13.427369">
 <ele>1467.22</ele>
 <time>2010-09-02T09:30:55Z</time>
 </trkpt>
 <trkpt lat="47.185551" lon="13.427220">
 <ele>1469.70</ele>
 <time>2010-09-02T09:31:03Z</time>
 </trkpt>
 <trkpt lat="47.185600" lon="13.426988">
 <ele>1470.05</ele>
 <time>2010-09-02T09:31:12Z</time>
 </trkpt>
 <trkpt lat="47.185612" lon="13.426794">
 <ele>1471.29</ele>
 <time>2010-09-02T09:31:19Z</time>
 </trkpt>
 <trkpt lat="47.185631" lon="13.426532">
 <ele>1471.99</ele>
 <time>2010-09-02T09:31:29Z</time>
 </trkpt>
 <trkpt lat="47.185650" lon="13.426316">
 <ele>1474.51</ele>
 <time>2010-09-02T09:31:38Z</time>
 </trkpt>
 <trkpt lat="47.185650" lon="13.426135">
 <ele>1475.90</ele>
 <time>2010-09-02T09:31:46Z</time>
 </trkpt>
 <trkpt lat="47.185616" lon="13.425928">
 <ele>1478.21</ele>
 <time>2010-09-02T09:31:55Z</time>
 </trkpt>
 <trkpt lat="47.185646" lon="13.425782">
 <ele>1480.11</ele>
 <time>2010-09-02T09:32:03Z</time>
 </trkpt>
 <trkpt lat="47.185638" lon="13.425534">
 <ele>1481.63</ele>
 <time>2010-09-02T09:32:15Z</time>
 </trkpt>
 <trkpt lat="47.185646" lon="13.425334">
 <ele>1483.18</ele>
 <time>2010-09-02T09:32:25Z</time>
 </trkpt>
 <trkpt lat="47.185627" lon="13.425116">
 <ele>1485.06</ele>
 <time>2010-09-02T09:32:34Z</time>
 </trkpt>
 <trkpt lat="47.185593" lon="13.424869">
 <ele>1486.48</ele>
 <time>2010-09-02T09:32:44Z</time>
 </trkpt>
 <trkpt lat="47.185555" lon="13.424626">
 <ele>1487.62</ele>
 <time>2010-09-02T09:32:54Z</time>
 </trkpt>
 <trkpt lat="47.185543" lon="13.424429">
 <ele>1489.47</ele>
 <time>2010-09-02T09:33:03Z</time>
 </trkpt>
 <trkpt lat="47.185589" lon="13.424268">
 <ele>1491.21</ele>
 <time>2010-09-02T09:33:12Z</time>
 </trkpt>
 <trkpt lat="47.185635" lon="13.424096">
 <ele>1493.19</ele>
 <time>2010-09-02T09:33:21Z</time>
 </trkpt>
 <trkpt lat="47.185650" lon="13.423909">
 <ele>1494.63</ele>
 <time>2010-09-02T09:33:30Z</time>
 </trkpt>
 <trkpt lat="47.185699" lon="13.423714">
 <ele>1496.90</ele>
 <time>2010-09-02T09:33:40Z</time>
 </trkpt>
 <trkpt lat="47.185738" lon="13.423532">
 <ele>1498.64</ele>
 <time>2010-09-02T09:33:49Z</time>
 </trkpt>
 <trkpt lat="47.185715" lon="13.423328">
 <ele>1501.07</ele>
 <time>2010-09-02T09:34:00Z</time>
 </trkpt>
 <trkpt lat="47.185680" lon="13.423174">
 <ele>1502.41</ele>
 <time>2010-09-02T09:34:08Z</time>
 </trkpt>
 <trkpt lat="47.185680" lon="13.423014">
 <ele>1504.28</ele>
 <time>2010-09-02T09:34:17Z</time>
 </trkpt>
 <trkpt lat="47.185646" lon="13.422820">
 <ele>1506.24</ele>
 <time>2010-09-02T09:34:27Z</time>
 </trkpt>
 <trkpt lat="47.185631" lon="13.422632">
 <ele>1507.38</ele>
 <time>2010-09-02T09:34:36Z</time>
 </trkpt>
 <trkpt lat="47.185635" lon="13.422397">
 <ele>1509.10</ele>
 <time>2010-09-02T09:34:47Z</time>
 </trkpt>
 <trkpt lat="47.185635" lon="13.422376">
 <ele>1509.23</ele>
 <time>2010-09-02T09:34:48Z</time>
 </trkpt>
 <trkpt lat="47.185684" lon="13.422160">
 <ele>1511.02</ele>
 <time>2010-09-02T09:34:58Z</time>
 </trkpt>
 <trkpt lat="47.185722" lon="13.422015">
 <ele>1512.40</ele>
 <time>2010-09-02T09:35:05Z</time>
 </trkpt>
 <trkpt lat="47.185780" lon="13.421775">
 <ele>1513.76</ele>
 <time>2010-09-02T09:35:16Z</time>
 </trkpt>
 <trkpt lat="47.185818" lon="13.421527">
 <ele>1514.61</ele>
 <time>2010-09-02T09:35:26Z</time>
 </trkpt>
 <trkpt lat="47.185856" lon="13.421243">
 <ele>1514.93</ele>
 <time>2010-09-02T09:35:36Z</time>
 </trkpt>
 <trkpt lat="47.185875" lon="13.421129">
 <ele>1514.89</ele>
 <time>2010-09-02T09:35:42Z</time>
 </trkpt>
 <trkpt lat="47.185863" lon="13.421084">
 <ele>1514.56</ele>
 <time>2010-09-02T09:36:27Z</time>
 </trkpt>
 <trkpt lat="47.185863" lon="13.421060">
 <ele>1514.53</ele>
 <time>2010-09-02T09:36:28Z</time>
 </trkpt>
 <trkpt lat="47.185867" lon="13.420867">
 <ele>1514.10</ele>
 <time>2010-09-02T09:36:34Z</time>
 </trkpt>
 <trkpt lat="47.185871" lon="13.420661">
 <ele>1513.94</ele>
 <time>2010-09-02T09:36:39Z</time>
 </trkpt>
 <trkpt lat="47.185871" lon="13.420418">
 <ele>1513.79</ele>
 <time>2010-09-02T09:36:44Z</time>
 </trkpt>
 <trkpt lat="47.185898" lon="13.419946">
 <ele>1513.94</ele>
 <time>2010-09-02T09:36:54Z</time>
 </trkpt>
 <trkpt lat="47.185936" lon="13.419509">
 <ele>1513.48</ele>
 <time>2010-09-02T09:37:04Z</time>
 </trkpt>
 <trkpt lat="47.185989" lon="13.419233">
 <ele>1513.67</ele>
 <time>2010-09-02T09:37:11Z</time>
 </trkpt>
 <trkpt lat="47.186100" lon="13.418826">
 <ele>1514.39</ele>
 <time>2010-09-02T09:37:20Z</time>
 </trkpt>
 <trkpt lat="47.186195" lon="13.418357">
 <ele>1515.35</ele>
 <time>2010-09-02T09:37:30Z</time>
 </trkpt>
 <trkpt lat="47.186272" lon="13.417927">
 <ele>1515.85</ele>
 <time>2010-09-02T09:37:40Z</time>
 </trkpt>
 <trkpt lat="47.186298" lon="13.417685">
 <ele>1516.90</ele>
 <time>2010-09-02T09:37:47Z</time>
 </trkpt>
 <trkpt lat="47.186317" lon="13.417440">
 <ele>1518.06</ele>
 <time>2010-09-02T09:37:55Z</time>
 </trkpt>
 <trkpt lat="47.186314" lon="13.417195">
 <ele>1518.25</ele>
 <time>2010-09-02T09:38:03Z</time>
 </trkpt>
 <trkpt lat="47.186333" lon="13.416994">
 <ele>1519.28</ele>
 <time>2010-09-02T09:38:10Z</time>
 </trkpt>
 <trkpt lat="47.186340" lon="13.416874">
 <ele>1521.27</ele>
 <time>2010-09-02T09:38:14Z</time>
 </trkpt>
 <trkpt lat="47.186348" lon="13.416614">
 <ele>1522.83</ele>
 <time>2010-09-02T09:38:23Z</time>
 </trkpt>
 <trkpt lat="47.186359" lon="13.416352">
 <ele>1524.57</ele>
 <time>2010-09-02T09:38:33Z</time>
 </trkpt>
 <trkpt lat="47.186314" lon="13.416097">
 <ele>1526.56</ele>
 <time>2010-09-02T09:38:43Z</time>
 </trkpt>
 <trkpt lat="47.186298" lon="13.415841">
 <ele>1528.69</ele>
 <time>2010-09-02T09:38:54Z</time>
 </trkpt>
 <trkpt lat="47.186314" lon="13.415617">
 <ele>1530.30</ele>
 <time>2010-09-02T09:39:03Z</time>
 </trkpt>
 <trkpt lat="47.186340" lon="13.415412">
 <ele>1531.52</ele>
 <time>2010-09-02T09:39:12Z</time>
 </trkpt>
 <trkpt lat="47.186298" lon="13.415157">
 <ele>1533.05</ele>
 <time>2010-09-02T09:39:22Z</time>
 </trkpt>
 <trkpt lat="47.186329" lon="13.414933">
 <ele>1534.32</ele>
 <time>2010-09-02T09:39:32Z</time>
 </trkpt>
 <trkpt lat="47.186363" lon="13.414762">
 <ele>1535.76</ele>
 <time>2010-09-02T09:39:39Z</time>
 </trkpt>
 <trkpt lat="47.186424" lon="13.414558">
 <ele>1537.01</ele>
 <time>2010-09-02T09:39:48Z</time>
 </trkpt>
 <trkpt lat="47.186493" lon="13.414321">
 <ele>1538.15</ele>
 <time>2010-09-02T09:39:58Z</time>
 </trkpt>
 <trkpt lat="47.186558" lon="13.414082">
 <ele>1539.16</ele>
 <time>2010-09-02T09:40:07Z</time>
 </trkpt>
 <trkpt lat="47.186623" lon="13.413811">
 <ele>1540.40</ele>
 <time>2010-09-02T09:40:17Z</time>
 </trkpt>
 <trkpt lat="47.186672" lon="13.413592">
 <ele>1540.98</ele>
 <time>2010-09-02T09:40:25Z</time>
 </trkpt>
 <trkpt lat="47.186703" lon="13.413413">
 <ele>1540.81</ele>
 <time>2010-09-02T09:40:31Z</time>
 </trkpt>
 <trkpt lat="47.186756" lon="13.413111">
 <ele>1540.74</ele>
 <time>2010-09-02T09:40:39Z</time>
 </trkpt>
 <trkpt lat="47.186848" lon="13.412745">
 <ele>1539.70</ele>
 <time>2010-09-02T09:40:46Z</time>
 </trkpt>
 <trkpt lat="47.186947" lon="13.412367">
 <ele>1536.62</ele>
 <time>2010-09-02T09:40:51Z</time>
 </trkpt>
 <trkpt lat="47.187054" lon="13.411908">
 <ele>1534.40</ele>
 <time>2010-09-02T09:40:56Z</time>
 </trkpt>
 <trkpt lat="47.187073" lon="13.411812">
 <ele>1533.68</ele>
 <time>2010-09-02T09:40:57Z</time>
 </trkpt>
 <trkpt lat="47.187267" lon="13.411056">
 <ele>1527.68</ele>
 <time>2010-09-02T09:41:04Z</time>
 </trkpt>
 <trkpt lat="47.187515" lon="13.410283">
 <ele>1520.35</ele>
 <time>2010-09-02T09:41:10Z</time>
 </trkpt>
 <trkpt lat="47.187599" lon="13.410039">
 <ele>1519.56</ele>
 <time>2010-09-02T09:41:12Z</time>
 </trkpt>
 <trkpt lat="47.187794" lon="13.409342">
 <ele>1520.04</ele>
 <time>2010-09-02T09:41:18Z</time>
 </trkpt>
 <trkpt lat="47.187901" lon="13.408980">
 <ele>1520.30</ele>
 <time>2010-09-02T09:41:22Z</time>
 </trkpt>
 <trkpt lat="47.187958" lon="13.408357">
 <ele>1519.61</ele>
 <time>2010-09-02T09:41:29Z</time>
 </trkpt>
 <trkpt lat="47.187965" lon="13.407751">
 <ele>1519.20</ele>
 <time>2010-09-02T09:41:36Z</time>
 </trkpt>
 <trkpt lat="47.187962" lon="13.407124">
 <ele>1517.64</ele>
 <time>2010-09-02T09:41:43Z</time>
 </trkpt>
 <trkpt lat="47.187885" lon="13.406581">
 <ele>1516.17</ele>
 <time>2010-09-02T09:41:49Z</time>
 </trkpt>
 <trkpt lat="47.187855" lon="13.406079">
 <ele>1514.84</ele>
 <time>2010-09-02T09:41:55Z</time>
 </trkpt>
 <trkpt lat="47.187786" lon="13.405769">
 <ele>1513.64</ele>
 <time>2010-09-02T09:42:00Z</time>
 </trkpt>
 <trkpt lat="47.187572" lon="13.405296">
 <ele>1513.24</ele>
 <time>2010-09-02T09:42:07Z</time>
 </trkpt>
 <trkpt lat="47.187424" lon="13.405042">
 <ele>1512.24</ele>
 <time>2010-09-02T09:42:11Z</time>
 </trkpt>
 <trkpt lat="47.187347" lon="13.404710">
 <ele>1514.59</ele>
 <time>2010-09-02T09:42:17Z</time>
 </trkpt>
 <trkpt lat="47.187325" lon="13.404242">
 <ele>1514.81</ele>
 <time>2010-09-02T09:42:27Z</time>
 </trkpt>
 <trkpt lat="47.187302" lon="13.404030">
 <ele>1515.24</ele>
 <time>2010-09-02T09:42:33Z</time>
 </trkpt>
 <trkpt lat="47.187252" lon="13.403748">
 <ele>1515.21</ele>
 <time>2010-09-02T09:42:40Z</time>
 </trkpt>
 <trkpt lat="47.187160" lon="13.403355">
 <ele>1516.01</ele>
 <time>2010-09-02T09:42:49Z</time>
 </trkpt>
 <trkpt lat="47.187073" lon="13.403031">
 <ele>1517.01</ele>
 <time>2010-09-02T09:42:57Z</time>
 </trkpt>
 <trkpt lat="47.187016" lon="13.402732">
 <ele>1516.63</ele>
 <time>2010-09-02T09:43:04Z</time>
 </trkpt>
 <trkpt lat="47.186909" lon="13.402322">
 <ele>1515.86</ele>
 <time>2010-09-02T09:43:13Z</time>
 </trkpt>
 <trkpt lat="47.186764" lon="13.402147">
 <ele>1516.42</ele>
 <time>2010-09-02T09:43:18Z</time>
 </trkpt>
 <trkpt lat="47.186630" lon="13.402034">
 <ele>1516.82</ele>
 <time>2010-09-02T09:43:23Z</time>
 </trkpt>
 <trkpt lat="47.186478" lon="13.401933">
 <ele>1517.25</ele>
 <time>2010-09-02T09:43:29Z</time>
 </trkpt>
 <trkpt lat="47.186283" lon="13.401818">
 <ele>1518.23</ele>
 <time>2010-09-02T09:43:37Z</time>
 </trkpt>
 <trkpt lat="47.186104" lon="13.401641">
 <ele>1519.63</ele>
 <time>2010-09-02T09:43:46Z</time>
 </trkpt>
 <trkpt lat="47.185951" lon="13.401420">
 <ele>1520.40</ele>
 <time>2010-09-02T09:43:54Z</time>
 </trkpt>
 <trkpt lat="47.185825" lon="13.401228">
 <ele>1521.15</ele>
 <time>2010-09-02T09:44:02Z</time>
 </trkpt>
 <trkpt lat="47.185696" lon="13.400964">
 <ele>1521.41</ele>
 <time>2010-09-02T09:44:10Z</time>
 </trkpt>
 <trkpt lat="47.185608" lon="13.400746">
 <ele>1522.03</ele>
 <time>2010-09-02T09:44:18Z</time>
 </trkpt>
 <trkpt lat="47.185635" lon="13.400720">
 <ele>1522.38</ele>
 <time>2010-09-02T09:44:23Z</time>
 </trkpt>
 <trkpt lat="47.185551" lon="13.400667">
 <ele>1521.99</ele>
 <time>2010-09-02T09:44:38Z</time>
 </trkpt>
 <trkpt lat="47.185497" lon="13.400567">
 <ele>1522.31</ele>
 <time>2010-09-02T09:44:42Z</time>
 </trkpt>
 <trkpt lat="47.185379" lon="13.400362">
 <ele>1523.58</ele>
 <time>2010-09-02T09:44:49Z</time>
 </trkpt>
 <trkpt lat="47.185257" lon="13.400129">
 <ele>1523.59</ele>
 <time>2010-09-02T09:44:56Z</time>
 </trkpt>
 <trkpt lat="47.185165" lon="13.399909">
 <ele>1523.77</ele>
 <time>2010-09-02T09:45:02Z</time>
 </trkpt>
 <trkpt lat="47.185150" lon="13.399665">
 <ele>1523.94</ele>
 <time>2010-09-02T09:45:09Z</time>
 </trkpt>
 <trkpt lat="47.185135" lon="13.399338">
 <ele>1525.13</ele>
 <time>2010-09-02T09:45:18Z</time>
 </trkpt>
 <trkpt lat="47.185123" lon="13.399026">
 <ele>1525.77</ele>
 <time>2010-09-02T09:45:26Z</time>
 </trkpt>
 <trkpt lat="47.185139" lon="13.398733">
 <ele>1526.76</ele>
 <time>2010-09-02T09:45:33Z</time>
 </trkpt>
 <trkpt lat="47.185116" lon="13.398310">
 <ele>1527.09</ele>
 <time>2010-09-02T09:45:42Z</time>
 </trkpt>
 <trkpt lat="47.185032" lon="13.398096">
 <ele>1526.83</ele>
 <time>2010-09-02T09:45:47Z</time>
 </trkpt>
 <trkpt lat="47.185001" lon="13.397821">
 <ele>1527.31</ele>
 <time>2010-09-02T09:45:54Z</time>
 </trkpt>
 <trkpt lat="47.185017" lon="13.397549">
 <ele>1527.75</ele>
 <time>2010-09-02T09:46:00Z</time>
 </trkpt>
 <trkpt lat="47.185036" lon="13.397095">
 <ele>1527.95</ele>
 <time>2010-09-02T09:46:09Z</time>
 </trkpt>
 <trkpt lat="47.185043" lon="13.396678">
 <ele>1528.69</ele>
 <time>2010-09-02T09:46:17Z</time>
 </trkpt>
 <trkpt lat="47.185173" lon="13.396273">
 <ele>1529.97</ele>
 <time>2010-09-02T09:46:26Z</time>
 </trkpt>
 <trkpt lat="47.185261" lon="13.395958">
 <ele>1530.22</ele>
 <time>2010-09-02T09:46:32Z</time>
 </trkpt>
 <trkpt lat="47.185284" lon="13.395667">
 <ele>1529.78</ele>
 <time>2010-09-02T09:46:37Z</time>
 </trkpt>
 <trkpt lat="47.185238" lon="13.395358">
 <ele>1530.51</ele>
 <time>2010-09-02T09:46:43Z</time>
 </trkpt>
 <trkpt lat="47.185146" lon="13.395088">
 <ele>1530.73</ele>
 <time>2010-09-02T09:46:49Z</time>
 </trkpt>
 <trkpt lat="47.185085" lon="13.394735">
 <ele>1531.59</ele>
 <time>2010-09-02T09:46:56Z</time>
 </trkpt>
 <trkpt lat="47.185051" lon="13.394326">
 <ele>1531.90</ele>
 <time>2010-09-02T09:47:04Z</time>
 </trkpt>
 <trkpt lat="47.185101" lon="13.393985">
 <ele>1533.18</ele>
 <time>2010-09-02T09:47:11Z</time>
 </trkpt>
 <trkpt lat="47.185104" lon="13.393615">
 <ele>1533.82</ele>
 <time>2010-09-02T09:47:18Z</time>
 </trkpt>
 <trkpt lat="47.185066" lon="13.393195">
 <ele>1533.87</ele>
 <time>2010-09-02T09:47:25Z</time>
 </trkpt>
 <trkpt lat="47.185032" lon="13.392809">
 <ele>1534.36</ele>
 <time>2010-09-02T09:47:32Z</time>
 </trkpt>
 <trkpt lat="47.185040" lon="13.392395">
 <ele>1534.89</ele>
 <time>2010-09-02T09:47:40Z</time>
 </trkpt>
 <trkpt lat="47.185059" lon="13.392036">
 <ele>1535.10</ele>
 <time>2010-09-02T09:47:46Z</time>
 </trkpt>
 <trkpt lat="47.185139" lon="13.391549">
 <ele>1534.99</ele>
 <time>2010-09-02T09:47:54Z</time>
 </trkpt>
 <trkpt lat="47.185169" lon="13.391103">
 <ele>1536.22</ele>
 <time>2010-09-02T09:48:02Z</time>
 </trkpt>
 <trkpt lat="47.185215" lon="13.390642">
 <ele>1537.00</ele>
 <time>2010-09-02T09:48:10Z</time>
 </trkpt>
 <trkpt lat="47.185215" lon="13.390165">
 <ele>1537.66</ele>
 <time>2010-09-02T09:48:19Z</time>
 </trkpt>
 <trkpt lat="47.185230" lon="13.389879">
 <ele>1537.80</ele>
 <time>2010-09-02T09:48:24Z</time>
 </trkpt>
 <trkpt lat="47.185246" lon="13.389704">
 <ele>1537.99</ele>
 <time>2010-09-02T09:48:27Z</time>
 </trkpt>
 <trkpt lat="47.185329" lon="13.389179">
 <ele>1538.52</ele>
 <time>2010-09-02T09:48:36Z</time>
 </trkpt>
 <trkpt lat="47.185436" lon="13.388707">
 <ele>1539.31</ele>
 <time>2010-09-02T09:48:45Z</time>
 </trkpt>
 <trkpt lat="47.185486" lon="13.388481">
 <ele>1539.43</ele>
 <time>2010-09-02T09:48:49Z</time>
 </trkpt>
 <trkpt lat="47.185581" lon="13.387985">
 <ele>1539.76</ele>
 <time>2010-09-02T09:48:58Z</time>
 </trkpt>
 <trkpt lat="47.185581" lon="13.387498">
 <ele>1540.81</ele>
 <time>2010-09-02T09:49:07Z</time>
 </trkpt>
 <trkpt lat="47.185665" lon="13.387128">
 <ele>1541.18</ele>
 <time>2010-09-02T09:49:14Z</time>
 </trkpt>
 <trkpt lat="47.185692" lon="13.387057">
 <ele>1541.52</ele>
 <time>2010-09-02T09:49:17Z</time>
 </trkpt>
 <trkpt lat="47.185707" lon="13.386879">
 <ele>1541.72</ele>
 <time>2010-09-02T09:49:22Z</time>
 </trkpt>
 <trkpt lat="47.185776" lon="13.386599">
 <ele>1541.01</ele>
 <time>2010-09-02T09:49:27Z</time>
 </trkpt>
 <trkpt lat="47.185844" lon="13.386053">
 <ele>1539.46</ele>
 <time>2010-09-02T09:49:36Z</time>
 </trkpt>
 <trkpt lat="47.185921" lon="13.385613">
 <ele>1539.47</ele>
 <time>2010-09-02T09:49:44Z</time>
 </trkpt>
 <trkpt lat="47.186047" lon="13.385249">
 <ele>1538.56</ele>
 <time>2010-09-02T09:49:51Z</time>
 </trkpt>
 <trkpt lat="47.186180" lon="13.384894">
 <ele>1539.74</ele>
 <time>2010-09-02T09:49:58Z</time>
 </trkpt>
 <trkpt lat="47.186398" lon="13.384340">
 <ele>1540.34</ele>
 <time>2010-09-02T09:50:09Z</time>
 </trkpt>
 <trkpt lat="47.186455" lon="13.384018">
 <ele>1540.42</ele>
 <time>2010-09-02T09:50:15Z</time>
 </trkpt>
 <trkpt lat="47.186523" lon="13.383578">
 <ele>1539.62</ele>
 <time>2010-09-02T09:50:22Z</time>
 </trkpt>
 <trkpt lat="47.186565" lon="13.383456">
 <ele>1539.29</ele>
 <time>2010-09-02T09:50:24Z</time>
 </trkpt>
 <trkpt lat="47.186657" lon="13.382895">
 <ele>1539.50</ele>
 <time>2010-09-02T09:50:33Z</time>
 </trkpt>
 <trkpt lat="47.186672" lon="13.382406">
 <ele>1539.02</ele>
 <time>2010-09-02T09:50:41Z</time>
 </trkpt>
 <trkpt lat="47.186653" lon="13.381957">
 <ele>1540.59</ele>
 <time>2010-09-02T09:50:49Z</time>
 </trkpt>
 <trkpt lat="47.186569" lon="13.381458">
 <ele>1542.78</ele>
 <time>2010-09-02T09:50:59Z</time>
 </trkpt>
 <trkpt lat="47.186577" lon="13.381155">
 <ele>1543.59</ele>
 <time>2010-09-02T09:51:05Z</time>
 </trkpt>
 <trkpt lat="47.186611" lon="13.380800">
 <ele>1543.70</ele>
 <time>2010-09-02T09:51:12Z</time>
 </trkpt>
 <trkpt lat="47.186714" lon="13.380436">
 <ele>1545.00</ele>
 <time>2010-09-02T09:51:20Z</time>
 </trkpt>
 <trkpt lat="47.186882" lon="13.380045">
 <ele>1546.24</ele>
 <time>2010-09-02T09:51:30Z</time>
 </trkpt>
 <trkpt lat="47.186890" lon="13.380038">
 <ele>1546.56</ele>
 <time>2010-09-02T09:51:32Z</time>
 </trkpt>
 <trkpt lat="47.186939" lon="13.379922">
 <ele>1546.70</ele>
 <time>2010-09-02T09:51:40Z</time>
 </trkpt>
 <trkpt lat="47.187153" lon="13.379620">
 <ele>1546.79</ele>
 <time>2010-09-02T09:51:49Z</time>
 </trkpt>
 <trkpt lat="47.187313" lon="13.379258">
 <ele>1547.61</ele>
 <time>2010-09-02T09:51:57Z</time>
 </trkpt>
 <trkpt lat="47.187416" lon="13.378879">
 <ele>1548.37</ele>
 <time>2010-09-02T09:52:05Z</time>
 </trkpt>
 <trkpt lat="47.187496" lon="13.378423">
 <ele>1549.14</ele>
 <time>2010-09-02T09:52:14Z</time>
 </trkpt>
 <trkpt lat="47.187637" lon="13.377911">
 <ele>1550.10</ele>
 <time>2010-09-02T09:52:24Z</time>
 </trkpt>
 <trkpt lat="47.187737" lon="13.377524">
 <ele>1550.30</ele>
 <time>2010-09-02T09:52:32Z</time>
 </trkpt>
 <trkpt lat="47.187763" lon="13.377207">
 <ele>1550.29</ele>
 <time>2010-09-02T09:52:38Z</time>
 </trkpt>
 <trkpt lat="47.187737" lon="13.376852">
 <ele>1550.66</ele>
 <time>2010-09-02T09:52:45Z</time>
 </trkpt>
 <trkpt lat="47.187729" lon="13.376571">
 <ele>1551.74</ele>
 <time>2010-09-02T09:52:51Z</time>
 </trkpt>
 <trkpt lat="47.187733" lon="13.376204">
 <ele>1552.45</ele>
 <time>2010-09-02T09:52:59Z</time>
 </trkpt>
 <trkpt lat="47.187759" lon="13.375896">
 <ele>1553.42</ele>
 <time>2010-09-02T09:53:06Z</time>
 </trkpt>
 <trkpt lat="47.187771" lon="13.375461">
 <ele>1554.26</ele>
 <time>2010-09-02T09:53:16Z</time>
 </trkpt>
 <trkpt lat="47.187775" lon="13.375069">
 <ele>1555.11</ele>
 <time>2010-09-02T09:53:25Z</time>
 </trkpt>
 <trkpt lat="47.187840" lon="13.374620">
 <ele>1555.33</ele>
 <time>2010-09-02T09:53:35Z</time>
 </trkpt>
 <trkpt lat="47.187881" lon="13.374330">
 <ele>1556.55</ele>
 <time>2010-09-02T09:53:42Z</time>
 </trkpt>
 <trkpt lat="47.187908" lon="13.373977">
 <ele>1557.59</ele>
 <time>2010-09-02T09:53:50Z</time>
 </trkpt>
 <trkpt lat="47.187893" lon="13.373726">
 <ele>1558.15</ele>
 <time>2010-09-02T09:53:56Z</time>
 </trkpt>
 <trkpt lat="47.187847" lon="13.373483">
 <ele>1559.32</ele>
 <time>2010-09-02T09:54:03Z</time>
 </trkpt>
 <trkpt lat="47.187775" lon="13.373224">
 <ele>1561.36</ele>
 <time>2010-09-02T09:54:12Z</time>
 </trkpt>
 <trkpt lat="47.187752" lon="13.372977">
 <ele>1562.76</ele>
 <time>2010-09-02T09:54:20Z</time>
 </trkpt>
 <trkpt lat="47.187756" lon="13.372766">
 <ele>1563.93</ele>
 <time>2010-09-02T09:54:27Z</time>
 </trkpt>
 <trkpt lat="47.187828" lon="13.372533">
 <ele>1564.89</ele>
 <time>2010-09-02T09:54:35Z</time>
 </trkpt>
 <trkpt lat="47.187874" lon="13.372287">
 <ele>1565.21</ele>
 <time>2010-09-02T09:54:43Z</time>
 </trkpt>
 <trkpt lat="47.187836" lon="13.372039">
 <ele>1566.64</ele>
 <time>2010-09-02T09:54:51Z</time>
 </trkpt>
 <trkpt lat="47.187782" lon="13.371785">
 <ele>1568.31</ele>
 <time>2010-09-02T09:55:00Z</time>
 </trkpt>
 <trkpt lat="47.187725" lon="13.371556">
 <ele>1569.55</ele>
 <time>2010-09-02T09:55:09Z</time>
 </trkpt>
 <trkpt lat="47.187668" lon="13.371274">
 <ele>1571.28</ele>
 <time>2010-09-02T09:55:19Z</time>
 </trkpt>
 <trkpt lat="47.187698" lon="13.371108">
 <ele>1572.10</ele>
 <time>2010-09-02T09:55:25Z</time>
 </trkpt>
 <trkpt lat="47.187737" lon="13.370895">
 <ele>1573.08</ele>
 <time>2010-09-02T09:55:34Z</time>
 </trkpt>
 <trkpt lat="47.187763" lon="13.370718">
 <ele>1573.36</ele>
 <time>2010-09-02T09:55:41Z</time>
 </trkpt>
 <trkpt lat="47.187794" lon="13.370541">
 <ele>1574.49</ele>
 <time>2010-09-02T09:55:48Z</time>
 </trkpt>
 <trkpt lat="47.187801" lon="13.370345">
 <ele>1576.44</ele>
 <time>2010-09-02T09:55:56Z</time>
 </trkpt>
 <trkpt lat="47.187798" lon="13.370142">
 <ele>1577.60</ele>
 <time>2010-09-02T09:56:04Z</time>
 </trkpt>
 <trkpt lat="47.187756" lon="13.369931">
 <ele>1579.44</ele>
 <time>2010-09-02T09:56:13Z</time>
 </trkpt>
 <trkpt lat="47.187759" lon="13.369744">
 <ele>1580.73</ele>
 <time>2010-09-02T09:56:20Z</time>
 </trkpt>
 <trkpt lat="47.187710" lon="13.369512">
 <ele>1581.91</ele>
 <time>2010-09-02T09:56:29Z</time>
 </trkpt>
 <trkpt lat="47.187706" lon="13.369248">
 <ele>1583.60</ele>
 <time>2010-09-02T09:56:39Z</time>
 </trkpt>
 <trkpt lat="47.187599" lon="13.369068">
 <ele>1584.37</ele>
 <time>2010-09-02T09:56:48Z</time>
 </trkpt>
 <trkpt lat="47.187519" lon="13.368901">
 <ele>1585.72</ele>
 <time>2010-09-02T09:56:56Z</time>
 </trkpt>
 <trkpt lat="47.187454" lon="13.368734">
 <ele>1587.19</ele>
 <time>2010-09-02T09:57:03Z</time>
 </trkpt>
 <trkpt lat="47.187435" lon="13.368589">
 <ele>1587.92</ele>
 <time>2010-09-02T09:57:09Z</time>
 </trkpt>
 <trkpt lat="47.187378" lon="13.368347">
 <ele>1589.89</ele>
 <time>2010-09-02T09:57:19Z</time>
 </trkpt>
 <trkpt lat="47.187351" lon="13.368093">
 <ele>1592.06</ele>
 <time>2010-09-02T09:57:29Z</time>
 </trkpt>
 <trkpt lat="47.187347" lon="13.367902">
 <ele>1592.67</ele>
 <time>2010-09-02T09:57:36Z</time>
 </trkpt>
 <trkpt lat="47.187340" lon="13.367616">
 <ele>1593.36</ele>
 <time>2010-09-02T09:57:45Z</time>
 </trkpt>
 <trkpt lat="47.187317" lon="13.367278">
 <ele>1592.62</ele>
 <time>2010-09-02T09:57:53Z</time>
 </trkpt>
 <trkpt lat="47.187248" lon="13.366992">
 <ele>1593.70</ele>
 <time>2010-09-02T09:58:01Z</time>
 </trkpt>
 <trkpt lat="47.187080" lon="13.366773">
 <ele>1594.70</ele>
 <time>2010-09-02T09:58:07Z</time>
 </trkpt>
 <trkpt lat="47.186954" lon="13.366424">
 <ele>1594.86</ele>
 <time>2010-09-02T09:58:15Z</time>
 </trkpt>
 <trkpt lat="47.186935" lon="13.366080">
 <ele>1593.96</ele>
 <time>2010-09-02T09:58:21Z</time>
 </trkpt>
 <trkpt lat="47.186954" lon="13.365595">
 <ele>1593.97</ele>
 <time>2010-09-02T09:58:29Z</time>
 </trkpt>
 <trkpt lat="47.186962" lon="13.365051">
 <ele>1593.54</ele>
 <time>2010-09-02T09:58:38Z</time>
 </trkpt>
 <trkpt lat="47.186954" lon="13.364855">
 <ele>1594.46</ele>
 <time>2010-09-02T09:58:43Z</time>
 </trkpt>
 <trkpt lat="47.186954" lon="13.364853">
 <ele>1594.79</ele>
 <time>2010-09-02T09:58:45Z</time>
 </trkpt>
 <trkpt lat="47.186951" lon="13.364802">
 <ele>1594.78</ele>
 <time>2010-09-02T09:58:52Z</time>
 </trkpt>
 <trkpt lat="47.186905" lon="13.364777">
 <ele>1596.59</ele>
 <time>2010-09-02T10:00:43Z</time>
 </trkpt>
 <trkpt lat="47.186901" lon="13.364754">
 <ele>1596.17</ele>
 <time>2010-09-02T10:00:44Z</time>
 </trkpt>
 <trkpt lat="47.186867" lon="13.364572">
 <ele>1595.20</ele>
 <time>2010-09-02T10:00:49Z</time>
 </trkpt>
 <trkpt lat="47.186775" lon="13.364361">
 <ele>1594.81</ele>
 <time>2010-09-02T10:00:54Z</time>
 </trkpt>
 <trkpt lat="47.186615" lon="13.364126">
 <ele>1595.10</ele>
 <time>2010-09-02T10:01:00Z</time>
 </trkpt>
 <trkpt lat="47.186401" lon="13.363779">
 <ele>1595.72</ele>
 <time>2010-09-02T10:01:09Z</time>
 </trkpt>
 <trkpt lat="47.186310" lon="13.363571">
 <ele>1597.46</ele>
 <time>2010-09-02T10:01:15Z</time>
 </trkpt>
 <trkpt lat="47.186214" lon="13.363362">
 <ele>1598.33</ele>
 <time>2010-09-02T10:01:21Z</time>
 </trkpt>
 <trkpt lat="47.186066" lon="13.363025">
 <ele>1599.93</ele>
 <time>2010-09-02T10:01:31Z</time>
 </trkpt>
 <trkpt lat="47.185993" lon="13.362804">
 <ele>1601.18</ele>
 <time>2010-09-02T10:01:39Z</time>
 </trkpt>
 <trkpt lat="47.185944" lon="13.362655">
 <ele>1601.77</ele>
 <time>2010-09-02T10:01:45Z</time>
 </trkpt>
 <trkpt lat="47.185879" lon="13.362554">
 <ele>1601.82</ele>
 <time>2010-09-02T10:01:49Z</time>
 </trkpt>
 <trkpt lat="47.185753" lon="13.362324">
 <ele>1602.61</ele>
 <time>2010-09-02T10:01:58Z</time>
 </trkpt>
 <trkpt lat="47.185707" lon="13.362144">
 <ele>1603.75</ele>
 <time>2010-09-02T10:02:05Z</time>
 </trkpt>
 <trkpt lat="47.185680" lon="13.361866">
 <ele>1605.24</ele>
 <time>2010-09-02T10:02:13Z</time>
 </trkpt>
 <trkpt lat="47.185600" lon="13.361583">
 <ele>1605.69</ele>
 <time>2010-09-02T10:02:21Z</time>
 </trkpt>
 <trkpt lat="47.185417" lon="13.361214">
 <ele>1607.05</ele>
 <time>2010-09-02T10:02:32Z</time>
 </trkpt>
 <trkpt lat="47.185299" lon="13.360891">
 <ele>1608.20</ele>
 <time>2010-09-02T10:02:42Z</time>
 </trkpt>
 <trkpt lat="47.185207" lon="13.360625">
 <ele>1609.77</ele>
 <time>2010-09-02T10:02:51Z</time>
 </trkpt>
 <trkpt lat="47.185081" lon="13.360386">
 <ele>1610.60</ele>
 <time>2010-09-02T10:03:00Z</time>
 </trkpt>
 <trkpt lat="47.184963" lon="13.360165">
 <ele>1612.14</ele>
 <time>2010-09-02T10:03:09Z</time>
 </trkpt>
 <trkpt lat="47.184845" lon="13.359954">
 <ele>1614.81</ele>
 <time>2010-09-02T10:03:19Z</time>
 </trkpt>
 <trkpt lat="47.184742" lon="13.359783">
 <ele>1615.72</ele>
 <time>2010-09-02T10:03:27Z</time>
 </trkpt>
 <trkpt lat="47.184631" lon="13.359567">
 <ele>1617.87</ele>
 <time>2010-09-02T10:03:36Z</time>
 </trkpt>
 <trkpt lat="47.184601" lon="13.359332">
 <ele>1619.23</ele>
 <time>2010-09-02T10:03:44Z</time>
 </trkpt>
 <trkpt lat="47.184502" lon="13.359112">
 <ele>1619.91</ele>
 <time>2010-09-02T10:03:52Z</time>
 </trkpt>
 <trkpt lat="47.184433" lon="13.358873">
 <ele>1620.86</ele>
 <time>2010-09-02T10:04:02Z</time>
 </trkpt>
 <trkpt lat="47.184418" lon="13.358644">
 <ele>1622.38</ele>
 <time>2010-09-02T10:04:12Z</time>
 </trkpt>
 <trkpt lat="47.184391" lon="13.358414">
 <ele>1624.50</ele>
 <time>2010-09-02T10:04:22Z</time>
 </trkpt>
 <trkpt lat="47.184349" lon="13.358144">
 <ele>1626.58</ele>
 <time>2010-09-02T10:04:34Z</time>
 </trkpt>
 <trkpt lat="47.184315" lon="13.357933">
 <ele>1628.12</ele>
 <time>2010-09-02T10:04:44Z</time>
 </trkpt>
 <trkpt lat="47.184292" lon="13.357782">
 <ele>1629.27</ele>
 <time>2010-09-02T10:04:51Z</time>
 </trkpt>
 <trkpt lat="47.184231" lon="13.357595">
 <ele>1630.71</ele>
 <time>2010-09-02T10:05:00Z</time>
 </trkpt>
 <trkpt lat="47.184124" lon="13.357442">
 <ele>1631.96</ele>
 <time>2010-09-02T10:05:09Z</time>
 </trkpt>
 <trkpt lat="47.183983" lon="13.357360">
 <ele>1632.99</ele>
 <time>2010-09-02T10:05:18Z</time>
 </trkpt>
 <trkpt lat="47.183834" lon="13.357324">
 <ele>1634.46</ele>
 <time>2010-09-02T10:05:28Z</time>
 </trkpt>
 <trkpt lat="47.183670" lon="13.357236">
 <ele>1636.84</ele>
 <time>2010-09-02T10:05:40Z</time>
 </trkpt>
 <trkpt lat="47.183605" lon="13.357139">
 <ele>1637.69</ele>
 <time>2010-09-02T10:05:46Z</time>
 </trkpt>
 <trkpt lat="47.183491" lon="13.357015">
 <ele>1638.82</ele>
 <time>2010-09-02T10:05:54Z</time>
 </trkpt>
 <trkpt lat="47.183388" lon="13.356923">
 <ele>1639.95</ele>
 <time>2010-09-02T10:06:02Z</time>
 </trkpt>
 <trkpt lat="47.183289" lon="13.356868">
 <ele>1640.70</ele>
 <time>2010-09-02T10:06:09Z</time>
 </trkpt>
 <trkpt lat="47.183178" lon="13.356801">
 <ele>1641.22</ele>
 <time>2010-09-02T10:06:17Z</time>
 </trkpt>
 <trkpt lat="47.183064" lon="13.356718">
 <ele>1641.92</ele>
 <time>2010-09-02T10:06:25Z</time>
 </trkpt>
 <trkpt lat="47.182968" lon="13.356648">
 <ele>1642.92</ele>
 <time>2010-09-02T10:06:32Z</time>
 </trkpt>
 <trkpt lat="47.182831" lon="13.356563">
 <ele>1643.20</ele>
 <time>2010-09-02T10:06:40Z</time>
 </trkpt>
 <trkpt lat="47.182682" lon="13.356441">
 <ele>1644.00</ele>
 <time>2010-09-02T10:06:49Z</time>
 </trkpt>
 <trkpt lat="47.182583" lon="13.356340">
 <ele>1644.86</ele>
 <time>2010-09-02T10:06:56Z</time>
 </trkpt>
 <trkpt lat="47.182472" lon="13.356241">
 <ele>1645.64</ele>
 <time>2010-09-02T10:07:03Z</time>
 </trkpt>
 <trkpt lat="47.182320" lon="13.356116">
 <ele>1646.26</ele>
 <time>2010-09-02T10:07:12Z</time>
 </trkpt>
 <trkpt lat="47.182220" lon="13.356060">
 <ele>1647.07</ele>
 <time>2010-09-02T10:07:18Z</time>
 </trkpt>
 <trkpt lat="47.182156" lon="13.356024">
 <ele>1647.75</ele>
 <time>2010-09-02T10:07:22Z</time>
 </trkpt>
 <trkpt lat="47.182076" lon="13.355923">
 <ele>1648.82</ele>
 <time>2010-09-02T10:07:28Z</time>
 </trkpt>
 <trkpt lat="47.181984" lon="13.355771">
 <ele>1649.73</ele>
 <time>2010-09-02T10:07:35Z</time>
 </trkpt>
 <trkpt lat="47.181885" lon="13.355659">
 <ele>1650.36</ele>
 <time>2010-09-02T10:07:42Z</time>
 </trkpt>
 <trkpt lat="47.181789" lon="13.355561">
 <ele>1650.88</ele>
 <time>2010-09-02T10:07:47Z</time>
 </trkpt>
 <trkpt lat="47.181667" lon="13.355466">
 <ele>1651.56</ele>
 <time>2010-09-02T10:07:54Z</time>
 </trkpt>
 <trkpt lat="47.181561" lon="13.355357">
 <ele>1652.28</ele>
 <time>2010-09-02T10:08:01Z</time>
 </trkpt>
 <trkpt lat="47.181492" lon="13.355211">
 <ele>1653.03</ele>
 <time>2010-09-02T10:08:08Z</time>
 </trkpt>
 <trkpt lat="47.181438" lon="13.355099">
 <ele>1654.02</ele>
 <time>2010-09-02T10:08:14Z</time>
 </trkpt>
 <trkpt lat="47.181343" lon="13.354949">
 <ele>1654.59</ele>
 <time>2010-09-02T10:08:21Z</time>
 </trkpt>
 <trkpt lat="47.181278" lon="13.354806">
 <ele>1655.05</ele>
 <time>2010-09-02T10:08:27Z</time>
 </trkpt>
 <trkpt lat="47.181183" lon="13.354633">
 <ele>1655.58</ele>
 <time>2010-09-02T10:08:33Z</time>
 </trkpt>
 <trkpt lat="47.181080" lon="13.354557">
 <ele>1656.60</ele>
 <time>2010-09-02T10:08:39Z</time>
 </trkpt>
 <trkpt lat="47.180965" lon="13.354686">
 <ele>1657.92</ele>
 <time>2010-09-02T10:08:48Z</time>
 </trkpt>
 <trkpt lat="47.180801" lon="13.354862">
 <ele>1659.12</ele>
 <time>2010-09-02T10:09:00Z</time>
 </trkpt>
 <trkpt lat="47.180664" lon="13.354954">
 <ele>1660.00</ele>
 <time>2010-09-02T10:09:09Z</time>
 </trkpt>
 <trkpt lat="47.180573" lon="13.355026">
 <ele>1660.74</ele>
 <time>2010-09-02T10:09:15Z</time>
 </trkpt>
 <trkpt lat="47.180386" lon="13.355079">
 <ele>1662.30</ele>
 <time>2010-09-02T10:09:26Z</time>
 </trkpt>
 <trkpt lat="47.180283" lon="13.355029">
 <ele>1663.39</ele>
 <time>2010-09-02T10:09:32Z</time>
 </trkpt>
 <trkpt lat="47.180191" lon="13.354882">
 <ele>1663.64</ele>
 <time>2010-09-02T10:09:39Z</time>
 </trkpt>
 <trkpt lat="47.180096" lon="13.354739">
 <ele>1664.41</ele>
 <time>2010-09-02T10:09:47Z</time>
 </trkpt>
 <trkpt lat="47.179981" lon="13.354682">
 <ele>1665.85</ele>
 <time>2010-09-02T10:09:54Z</time>
 </trkpt>
 <trkpt lat="47.179802" lon="13.354656">
 <ele>1667.30</ele>
 <time>2010-09-02T10:10:04Z</time>
 </trkpt>
 <trkpt lat="47.179623" lon="13.354641">
 <ele>1668.28</ele>
 <time>2010-09-02T10:10:14Z</time>
 </trkpt>
 <trkpt lat="47.179611" lon="13.354635">
 <ele>1668.48</ele>
 <time>2010-09-02T10:10:15Z</time>
 </trkpt>
 <trkpt lat="47.179497" lon="13.354517">
 <ele>1669.44</ele>
 <time>2010-09-02T10:10:24Z</time>
 </trkpt>
 <trkpt lat="47.179382" lon="13.354362">
 <ele>1670.39</ele>
 <time>2010-09-02T10:10:32Z</time>
 </trkpt>
 <trkpt lat="47.179348" lon="13.354294">
 <ele>1670.74</ele>
 <time>2010-09-02T10:10:37Z</time>
 </trkpt>
 <trkpt lat="47.179352" lon="13.354282">
 <ele>1671.90</ele>
 <time>2010-09-02T10:11:46Z</time>
 </trkpt>
 <trkpt lat="47.179337" lon="13.354264">
 <ele>1670.86</ele>
 <time>2010-09-02T10:11:47Z</time>
 </trkpt>
 <trkpt lat="47.179268" lon="13.354135">
 <ele>1671.30</ele>
 <time>2010-09-02T10:11:54Z</time>
 </trkpt>
 <trkpt lat="47.179173" lon="13.353993">
 <ele>1671.85</ele>
 <time>2010-09-02T10:12:01Z</time>
 </trkpt>
 <trkpt lat="47.179012" lon="13.353830">
 <ele>1672.68</ele>
 <time>2010-09-02T10:12:11Z</time>
 </trkpt>
 <trkpt lat="47.178860" lon="13.353743">
 <ele>1674.00</ele>
 <time>2010-09-02T10:12:20Z</time>
 </trkpt>
 <trkpt lat="47.178719" lon="13.353703">
 <ele>1674.87</ele>
 <time>2010-09-02T10:12:29Z</time>
 </trkpt>
 <trkpt lat="47.178585" lon="13.353677">
 <ele>1676.59</ele>
 <time>2010-09-02T10:12:38Z</time>
 </trkpt>
 <trkpt lat="47.178444" lon="13.353643">
 <ele>1679.02</ele>
 <time>2010-09-02T10:12:48Z</time>
 </trkpt>
 <trkpt lat="47.178314" lon="13.353608">
 <ele>1681.12</ele>
 <time>2010-09-02T10:12:57Z</time>
 </trkpt>
 <trkpt lat="47.178173" lon="13.353562">
 <ele>1683.41</ele>
 <time>2010-09-02T10:13:07Z</time>
 </trkpt>
 <trkpt lat="47.178066" lon="13.353581">
 <ele>1684.83</ele>
 <time>2010-09-02T10:13:14Z</time>
 </trkpt>
 <trkpt lat="47.177975" lon="13.353637">
 <ele>1685.46</ele>
 <time>2010-09-02T10:13:21Z</time>
 </trkpt>
 <trkpt lat="47.177841" lon="13.353626">
 <ele>1687.74</ele>
 <time>2010-09-02T10:13:30Z</time>
 </trkpt>
 <trkpt lat="47.177734" lon="13.353643">
 <ele>1688.54</ele>
 <time>2010-09-02T10:13:37Z</time>
 </trkpt>
 <trkpt lat="47.177608" lon="13.353625">
 <ele>1688.37</ele>
 <time>2010-09-02T10:13:44Z</time>
 </trkpt>
 <trkpt lat="47.177422" lon="13.353612">
 <ele>1688.55</ele>
 <time>2010-09-02T10:13:52Z</time>
 </trkpt>
 <trkpt lat="47.177242" lon="13.353682">
 <ele>1688.92</ele>
 <time>2010-09-02T10:14:00Z</time>
 </trkpt>
 <trkpt lat="47.177036" lon="13.353711">
 <ele>1689.28</ele>
 <time>2010-09-02T10:14:10Z</time>
 </trkpt>
 <trkpt lat="47.176857" lon="13.353696">
 <ele>1689.12</ele>
 <time>2010-09-02T10:14:18Z</time>
 </trkpt>
 <trkpt lat="47.176712" lon="13.353792">
 <ele>1689.38</ele>
 <time>2010-09-02T10:14:25Z</time>
 </trkpt>
 <trkpt lat="47.176598" lon="13.353915">
 <ele>1689.15</ele>
 <time>2010-09-02T10:14:32Z</time>
 </trkpt>
 <trkpt lat="47.176514" lon="13.353955">
 <ele>1689.38</ele>
 <time>2010-09-02T10:14:37Z</time>
 </trkpt>
 <trkpt lat="47.176395" lon="13.353992">
 <ele>1690.14</ele>
 <time>2010-09-02T10:14:45Z</time>
 </trkpt>
 <trkpt lat="47.176281" lon="13.354010">
 <ele>1691.80</ele>
 <time>2010-09-02T10:14:52Z</time>
 </trkpt>
 <trkpt lat="47.176266" lon="13.354014">
 <ele>1692.14</ele>
 <time>2010-09-02T10:14:53Z</time>
 </trkpt>
 <trkpt lat="47.176247" lon="13.353961">
 <ele>1692.69</ele>
 <time>2010-09-02T10:14:58Z</time>
 </trkpt>
 <trkpt lat="47.176254" lon="13.353958">
 <ele>1693.11</ele>
 <time>2010-09-02T10:15:01Z</time>
 </trkpt>
 <trkpt lat="47.176250" lon="13.353901">
 <ele>1693.23</ele>
 <time>2010-09-02T10:15:09Z</time>
 </trkpt>
 <trkpt lat="47.176239" lon="13.353813">
 <ele>1693.14</ele>
 <time>2010-09-02T10:15:18Z</time>
 </trkpt>
 <trkpt lat="47.176250" lon="13.353811">
 <ele>1693.03</ele>
 <time>2010-09-02T10:15:32Z</time>
 </trkpt>
 <trkpt lat="47.176247" lon="13.353784">
 <ele>1693.54</ele>
 <time>2010-09-02T10:15:46Z</time>
 </trkpt>
 <trkpt lat="47.176247" lon="13.353774">
 <ele>1693.60</ele>
 <time>2010-09-02T10:15:47Z</time>
 </trkpt>
 <trkpt lat="47.176250" lon="13.353770">
 <ele>1693.71</ele>
 <time>2010-09-02T10:15:52Z</time>
 </trkpt>
 <trkpt lat="47.176178" lon="13.353805">
 <ele>1693.80</ele>
 <time>2010-09-02T10:15:59Z</time>
 </trkpt>
 <trkpt lat="47.176174" lon="13.353802">
 <ele>1693.79</ele>
 <time>2010-09-02T10:16:00Z</time>
 </trkpt>
 <trkpt lat="47.176208" lon="13.353799">
 <ele>1693.77</ele>
 <time>2010-09-02T10:16:13Z</time>
 </trkpt>
 <trkpt lat="47.176231" lon="13.353722">
 <ele>1694.09</ele>
 <time>2010-09-02T10:16:22Z</time>
 </trkpt>
 <trkpt lat="47.176235" lon="13.353714">
 <ele>1694.03</ele>
 <time>2010-09-02T10:16:23Z</time>
 </trkpt>
 <trkpt lat="47.176174" lon="13.353649">
 <ele>1693.93</ele>
 <time>2010-09-02T10:17:07Z</time>
 </trkpt>
 <trkpt lat="47.176167" lon="13.353647">
 <ele>1693.92</ele>
 <time>2010-09-02T10:17:08Z</time>
 </trkpt>
 <trkpt lat="47.176193" lon="13.353686">
 <ele>1693.73</ele>
 <time>2010-09-02T10:17:13Z</time>
 </trkpt>
 <trkpt lat="47.176331" lon="13.353755">
 <ele>1693.78</ele>
 <time>2010-09-02T10:18:17Z</time>
 </trkpt>
 <trkpt lat="47.176334" lon="13.353781">
 <ele>1693.59</ele>
 <time>2010-09-02T10:18:20Z</time>
 </trkpt>
 <trkpt lat="47.176186" lon="13.353726">
 <ele>1694.74</ele>
 <time>2010-09-02T10:19:35Z</time>
 </trkpt>
 <trkpt lat="47.176186" lon="13.353725">
 <ele>1694.72</ele>
 <time>2010-09-02T10:19:36Z</time>
 </trkpt>
 <trkpt lat="47.176331" lon="13.353830">
 <ele>1694.44</ele>
 <time>2010-09-02T10:19:52Z</time>
 </trkpt>
 <trkpt lat="47.176308" lon="13.353812">
 <ele>1694.57</ele>
 <time>2010-09-02T10:19:54Z</time>
 </trkpt>
 <trkpt lat="47.176399" lon="13.353824">
 <ele>1694.63</ele>
 <time>2010-09-02T10:20:15Z</time>
 </trkpt>
 <trkpt lat="47.176323" lon="13.353662">
 <ele>1694.61</ele>
 <time>2010-09-02T10:20:32Z</time>
 </trkpt>
 <trkpt lat="47.176319" lon="13.353660">
 <ele>1694.85</ele>
 <time>2010-09-02T10:20:35Z</time>
 </trkpt>
 <trkpt lat="47.176388" lon="13.353716">
 <ele>1694.92</ele>
 <time>2010-09-02T10:20:41Z</time>
 </trkpt>
 <trkpt lat="47.176365" lon="13.353705">
 <ele>1695.18</ele>
 <time>2010-09-02T10:20:42Z</time>
 </trkpt>
 <trkpt lat="47.176102" lon="13.353648">
 <ele>1695.29</ele>
 <time>2010-09-02T10:21:02Z</time>
 </trkpt>
 <trkpt lat="47.176266" lon="13.353711">
 <ele>1695.84</ele>
 <time>2010-09-02T10:21:34Z</time>
 </trkpt>
 <trkpt lat="47.176487" lon="13.353840">
 <ele>1695.94</ele>
 <time>2010-09-02T10:21:46Z</time>
 </trkpt>
 <trkpt lat="47.176460" lon="13.353825">
 <ele>1695.99</ele>
 <time>2010-09-02T10:21:53Z</time>
 </trkpt>
 <trkpt lat="47.176414" lon="13.353801">
 <ele>1695.96</ele>
 <time>2010-09-02T10:21:56Z</time>
 </trkpt>
 <trkpt lat="47.176559" lon="13.353854">
 <ele>1696.11</ele>
 <time>2010-09-02T10:23:05Z</time>
 </trkpt>
 <trkpt lat="47.176617" lon="13.353925">
 <ele>1696.25</ele>
 <time>2010-09-02T10:23:10Z</time>
 </trkpt>
 <trkpt lat="47.176693" lon="13.354016">
 <ele>1695.60</ele>
 <time>2010-09-02T10:23:29Z</time>
 </trkpt>
 <trkpt lat="47.176708" lon="13.354030">
 <ele>1695.29</ele>
 <time>2010-09-02T10:23:37Z</time>
 </trkpt>
 <trkpt lat="47.176689" lon="13.354018">
 <ele>1694.98</ele>
 <time>2010-09-02T10:23:46Z</time>
 </trkpt>
 <trkpt lat="47.176380" lon="13.353816">
 <ele>1694.10</ele>
 <time>2010-09-02T10:24:31Z</time>
 </trkpt>
 <trkpt lat="47.176357" lon="13.353796">
 <ele>1694.25</ele>
 <time>2010-09-02T10:24:46Z</time>
 </trkpt>
 <trkpt lat="47.176418" lon="13.353844">
 <ele>1694.46</ele>
 <time>2010-09-02T10:25:00Z</time>
 </trkpt>
 <trkpt lat="47.176388" lon="13.353841">
 <ele>1694.31</ele>
 <time>2010-09-02T10:25:07Z</time>
 </trkpt>
 <trkpt lat="47.176521" lon="13.353888">
 <ele>1693.95</ele>
 <time>2010-09-02T10:25:33Z</time>
 </trkpt>
 <trkpt lat="47.176563" lon="13.353908">
 <ele>1693.99</ele>
 <time>2010-09-02T10:25:38Z</time>
 </trkpt>
 <trkpt lat="47.176441" lon="13.353863">
 <ele>1693.83</ele>
 <time>2010-09-02T10:25:48Z</time>
 </trkpt>
 <trkpt lat="47.176441" lon="13.353816">
 <ele>1693.67</ele>
 <time>2010-09-02T10:25:54Z</time>
 </trkpt>
 <trkpt lat="47.176319" lon="13.353711">
 <ele>1694.03</ele>
 <time>2010-09-02T10:25:58Z</time>
 </trkpt>
 <trkpt lat="47.176311" lon="13.353698">
 <ele>1694.02</ele>
 <time>2010-09-02T10:25:59Z</time>
 </trkpt>
 <trkpt lat="47.176331" lon="13.353673">
 <ele>1693.72</ele>
 <time>2010-09-02T10:26:04Z</time>
 </trkpt>
 <trkpt lat="47.176331" lon="13.353657">
 <ele>1693.76</ele>
 <time>2010-09-02T10:26:07Z</time>
 </trkpt>
 <trkpt lat="47.176281" lon="13.353619">
 <ele>1693.59</ele>
 <time>2010-09-02T10:26:33Z</time>
 </trkpt>
 <trkpt lat="47.176281" lon="13.353618">
 <ele>1693.61</ele>
 <time>2010-09-02T10:26:34Z</time>
 </trkpt>
 <trkpt lat="47.176304" lon="13.353530">
 <ele>1694.82</ele>
 <time>2010-09-02T10:27:31Z</time>
 </trkpt>
 <trkpt lat="47.176285" lon="13.353581">
 <ele>1694.94</ele>
 <time>2010-09-02T10:27:36Z</time>
 </trkpt>
 <trkpt lat="47.176277" lon="13.353593">
 <ele>1695.02</ele>
 <time>2010-09-02T10:27:37Z</time>
 </trkpt>
 <trkpt lat="47.176243" lon="13.353669">
 <ele>1695.65</ele>
 <time>2010-09-02T10:27:46Z</time>
 </trkpt>
 <trkpt lat="47.176304" lon="13.353751">
 <ele>1697.12</ele>
 <time>2010-09-02T10:46:58Z</time>
 </trkpt>
 <trkpt lat="47.176289" lon="13.353789">
 <ele>1697.89</ele>
 <time>2010-09-02T10:47:51Z</time>
 </trkpt>
 <trkpt lat="47.176285" lon="13.353812">
 <ele>1697.70</ele>
 <time>2010-09-02T10:47:53Z</time>
 </trkpt>
 <trkpt lat="47.176319" lon="13.353852">
 <ele>1698.04</ele>
 <time>2010-09-02T10:47:59Z</time>
 </trkpt>
 <trkpt lat="47.176315" lon="13.353848">
 <ele>1697.80</ele>
 <time>2010-09-02T10:48:00Z</time>
 </trkpt>
 <trkpt lat="47.176189" lon="13.353852">
 <ele>1697.87</ele>
 <time>2010-09-02T10:49:02Z</time>
 </trkpt>
 <trkpt lat="47.176178" lon="13.353887">
 <ele>1697.98</ele>
 <time>2010-09-02T10:49:05Z</time>
 </trkpt>
 <trkpt lat="47.176277" lon="13.354005">
 <ele>1697.72</ele>
 <time>2010-09-02T10:49:11Z</time>
 </trkpt>
 <trkpt lat="47.176304" lon="13.354013">
 <ele>1697.34</ele>
 <time>2010-09-02T10:49:15Z</time>
 </trkpt>
 <trkpt lat="47.176460" lon="13.354047">
 <ele>1696.64</ele>
 <time>2010-09-02T10:50:24Z</time>
 </trkpt>
 <trkpt lat="47.176662" lon="13.353983">
 <ele>1695.28</ele>
 <time>2010-09-02T10:50:28Z</time>
 </trkpt>
 <trkpt lat="47.176807" lon="13.353845">
 <ele>1693.84</ele>
 <time>2010-09-02T10:50:31Z</time>
 </trkpt>
 <trkpt lat="47.176994" lon="13.353752">
 <ele>1693.75</ele>
 <time>2010-09-02T10:50:35Z</time>
 </trkpt>
 <trkpt lat="47.177082" lon="13.353757">
 <ele>1693.91</ele>
 <time>2010-09-02T10:50:37Z</time>
 </trkpt>
 <trkpt lat="47.177273" lon="13.353737">
 <ele>1693.85</ele>
 <time>2010-09-02T10:50:41Z</time>
 </trkpt>
 <trkpt lat="47.177429" lon="13.353675">
 <ele>1693.11</ele>
 <time>2010-09-02T10:50:44Z</time>
 </trkpt>
 <trkpt lat="47.177681" lon="13.353665">
 <ele>1692.63</ele>
 <time>2010-09-02T10:50:49Z</time>
 </trkpt>
 <trkpt lat="47.177952" lon="13.353651">
 <ele>1692.45</ele>
 <time>2010-09-02T10:50:55Z</time>
 </trkpt>
 <trkpt lat="47.178181" lon="13.353625">
 <ele>1690.10</ele>
 <time>2010-09-02T10:50:59Z</time>
 </trkpt>
 <trkpt lat="47.178482" lon="13.353690">
 <ele>1685.92</ele>
 <time>2010-09-02T10:51:04Z</time>
 </trkpt>
 <trkpt lat="47.178970" lon="13.353812">
 <ele>1677.86</ele>
 <time>2010-09-02T10:51:11Z</time>
 </trkpt>
 <trkpt lat="47.179249" lon="13.354074">
 <ele>1675.42</ele>
 <time>2010-09-02T10:51:16Z</time>
 </trkpt>
 <trkpt lat="47.179337" lon="13.354232">
 <ele>1674.61</ele>
 <time>2010-09-02T10:51:18Z</time>
 </trkpt>
 <trkpt lat="47.179451" lon="13.354472">
 <ele>1674.11</ele>
 <time>2010-09-02T10:51:21Z</time>
 </trkpt>
 <trkpt lat="47.179688" lon="13.354711">
 <ele>1673.49</ele>
 <time>2010-09-02T10:51:26Z</time>
 </trkpt>
 <trkpt lat="47.179813" lon="13.354733">
 <ele>1672.69</ele>
 <time>2010-09-02T10:51:28Z</time>
 </trkpt>
 <trkpt lat="47.180088" lon="13.354772">
 <ele>1670.37</ele>
 <time>2010-09-02T10:51:33Z</time>
 </trkpt>
 <trkpt lat="47.180256" lon="13.354982">
 <ele>1668.49</ele>
 <time>2010-09-02T10:51:37Z</time>
 </trkpt>
 <trkpt lat="47.180431" lon="13.355135">
 <ele>1667.11</ele>
 <time>2010-09-02T10:51:41Z</time>
 </trkpt>
 <trkpt lat="47.180641" lon="13.355082">
 <ele>1666.02</ele>
 <time>2010-09-02T10:51:45Z</time>
 </trkpt>
 <trkpt lat="47.180904" lon="13.354916">
 <ele>1663.94</ele>
 <time>2010-09-02T10:51:50Z</time>
 </trkpt>
 <trkpt lat="47.181061" lon="13.354734">
 <ele>1662.54</ele>
 <time>2010-09-02T10:51:54Z</time>
 </trkpt>
 <trkpt lat="47.181213" lon="13.354656">
 <ele>1661.38</ele>
 <time>2010-09-02T10:51:58Z</time>
 </trkpt>
 <trkpt lat="47.181332" lon="13.354787">
 <ele>1659.71</ele>
 <time>2010-09-02T10:52:01Z</time>
 </trkpt>
 <trkpt lat="47.181355" lon="13.354846">
 <ele>1659.36</ele>
 <time>2010-09-02T10:52:02Z</time>
 </trkpt>
 <trkpt lat="47.181400" lon="13.355005">
 <ele>1658.79</ele>
 <time>2010-09-02T10:52:04Z</time>
 </trkpt>
 <trkpt lat="47.181580" lon="13.355385">
 <ele>1657.78</ele>
 <time>2010-09-02T10:52:10Z</time>
 </trkpt>
 <trkpt lat="47.181782" lon="13.355581">
 <ele>1656.22</ele>
 <time>2010-09-02T10:52:15Z</time>
 </trkpt>
 <trkpt lat="47.181931" lon="13.355785">
 <ele>1654.63</ele>
 <time>2010-09-02T10:52:19Z</time>
 </trkpt>
 <trkpt lat="47.182034" lon="13.355969">
 <ele>1653.52</ele>
 <time>2010-09-02T10:52:23Z</time>
 </trkpt>
 <trkpt lat="47.182266" lon="13.356138">
 <ele>1651.48</ele>
 <time>2010-09-02T10:52:28Z</time>
 </trkpt>
 <trkpt lat="47.182549" lon="13.356386">
 <ele>1649.77</ele>
 <time>2010-09-02T10:52:34Z</time>
 </trkpt>
 <trkpt lat="47.182648" lon="13.356484">
 <ele>1648.61</ele>
 <time>2010-09-02T10:52:36Z</time>
 </trkpt>
 <trkpt lat="47.182938" lon="13.356695">
 <ele>1646.95</ele>
 <time>2010-09-02T10:52:42Z</time>
 </trkpt>
 <trkpt lat="47.183041" lon="13.356770">
 <ele>1646.36</ele>
 <time>2010-09-02T10:52:47Z</time>
 </trkpt>
 <trkpt lat="47.183037" lon="13.356761">
 <ele>1646.28</ele>
 <time>2010-09-02T10:52:49Z</time>
 </trkpt>
 <trkpt lat="47.183075" lon="13.356751">
 <ele>1646.14</ele>
 <time>2010-09-02T10:52:55Z</time>
 </trkpt>
 <trkpt lat="47.183228" lon="13.356800">
 <ele>1644.85</ele>
 <time>2010-09-02T10:53:00Z</time>
 </trkpt>
 <trkpt lat="47.183315" lon="13.356838">
 <ele>1644.04</ele>
 <time>2010-09-02T10:53:02Z</time>
 </trkpt>
 <trkpt lat="47.183506" lon="13.357042">
 <ele>1642.17</ele>
 <time>2010-09-02T10:53:06Z</time>
 </trkpt>
 <trkpt lat="47.183762" lon="13.357284">
 <ele>1639.83</ele>
 <time>2010-09-02T10:53:11Z</time>
 </trkpt>
 <trkpt lat="47.183964" lon="13.357348">
 <ele>1637.65</ele>
 <time>2010-09-02T10:53:14Z</time>
 </trkpt>
 <trkpt lat="47.184155" lon="13.357557">
 <ele>1635.12</ele>
 <time>2010-09-02T10:53:19Z</time>
 </trkpt>
 <trkpt lat="47.184189" lon="13.357679">
 <ele>1634.54</ele>
 <time>2010-09-02T10:53:21Z</time>
 </trkpt>
 <trkpt lat="47.184269" lon="13.358155">
 <ele>1630.59</ele>
 <time>2010-09-02T10:53:27Z</time>
 </trkpt>
 <trkpt lat="47.184353" lon="13.358707">
 <ele>1625.56</ele>
 <time>2010-09-02T10:53:32Z</time>
 </trkpt>
 <trkpt lat="47.184364" lon="13.358813">
 <ele>1624.82</ele>
 <time>2010-09-02T10:53:33Z</time>
 </trkpt>
 <trkpt lat="47.184513" lon="13.359234">
 <ele>1622.58</ele>
 <time>2010-09-02T10:53:38Z</time>
 </trkpt>
 <trkpt lat="47.184566" lon="13.359440">
 <ele>1622.22</ele>
 <time>2010-09-02T10:53:41Z</time>
 </trkpt>
 <trkpt lat="47.184669" lon="13.359692">
 <ele>1620.96</ele>
 <time>2010-09-02T10:53:45Z</time>
 </trkpt>
 <trkpt lat="47.184929" lon="13.360094">
 <ele>1617.53</ele>
 <time>2010-09-02T10:53:51Z</time>
 </trkpt>
 <trkpt lat="47.185150" lon="13.360565">
 <ele>1612.93</ele>
 <time>2010-09-02T10:53:56Z</time>
 </trkpt>
 <trkpt lat="47.185364" lon="13.361139">
 <ele>1610.33</ele>
 <time>2010-09-02T10:54:01Z</time>
 </trkpt>
 <trkpt lat="47.185570" lon="13.361686">
 <ele>1608.64</ele>
 <time>2010-09-02T10:54:06Z</time>
 </trkpt>
 <trkpt lat="47.185642" lon="13.362091">
 <ele>1608.29</ele>
 <time>2010-09-02T10:54:10Z</time>
 </trkpt>
 <trkpt lat="47.185829" lon="13.362552">
 <ele>1606.75</ele>
 <time>2010-09-02T10:54:16Z</time>
 </trkpt>
 <trkpt lat="47.186028" lon="13.362890">
 <ele>1605.53</ele>
 <time>2010-09-02T10:54:21Z</time>
 </trkpt>
 <trkpt lat="47.186218" lon="13.363354">
 <ele>1602.28</ele>
 <time>2010-09-02T10:54:26Z</time>
 </trkpt>
 <trkpt lat="47.186493" lon="13.363943">
 <ele>1598.38</ele>
 <time>2010-09-02T10:54:32Z</time>
 </trkpt>
 <trkpt lat="47.186657" lon="13.364203">
 <ele>1597.02</ele>
 <time>2010-09-02T10:54:35Z</time>
 </trkpt>
 <trkpt lat="47.186829" lon="13.364549">
 <ele>1596.52</ele>
 <time>2010-09-02T10:54:39Z</time>
 </trkpt>
 <trkpt lat="47.186890" lon="13.364745">
 <ele>1597.26</ele>
 <time>2010-09-02T10:54:42Z</time>
 </trkpt>
 <trkpt lat="47.186901" lon="13.364816">
 <ele>1598.68</ele>
 <time>2010-09-02T10:54:45Z</time>
 </trkpt>
 <trkpt lat="47.186909" lon="13.364886">
 <ele>1598.45</ele>
 <time>2010-09-02T10:54:51Z</time>
 </trkpt>
 <trkpt lat="47.186916" lon="13.365020">
 <ele>1598.29</ele>
 <time>2010-09-02T10:54:56Z</time>
 </trkpt>
 <trkpt lat="47.186905" lon="13.365310">
 <ele>1597.86</ele>
 <time>2010-09-02T10:55:02Z</time>
 </trkpt>
 <trkpt lat="47.186913" lon="13.365569">
 <ele>1597.79</ele>
 <time>2010-09-02T10:55:08Z</time>
 </trkpt>
 <trkpt lat="47.186928" lon="13.365757">
 <ele>1598.00</ele>
 <time>2010-09-02T10:55:13Z</time>
 </trkpt>
 <trkpt lat="47.186943" lon="13.366160">
 <ele>1598.32</ele>
 <time>2010-09-02T10:55:19Z</time>
 </trkpt>
 <trkpt lat="47.186962" lon="13.366337">
 <ele>1598.49</ele>
 <time>2010-09-02T10:55:22Z</time>
 </trkpt>
 <trkpt lat="47.186996" lon="13.366513">
 <ele>1598.89</ele>
 <time>2010-09-02T10:55:27Z</time>
 </trkpt>
 <trkpt lat="47.187073" lon="13.366764">
 <ele>1599.47</ele>
 <time>2010-09-02T10:55:32Z</time>
 </trkpt>
 <trkpt lat="47.187187" lon="13.367134">
 <ele>1599.02</ele>
 <time>2010-09-02T10:55:37Z</time>
 </trkpt>
 <trkpt lat="47.187244" lon="13.367328">
 <ele>1598.03</ele>
 <time>2010-09-02T10:55:39Z</time>
 </trkpt>
 <trkpt lat="47.187309" lon="13.367817">
 <ele>1596.52</ele>
 <time>2010-09-02T10:55:44Z</time>
 </trkpt>
 <trkpt lat="47.187321" lon="13.368115">
 <ele>1596.93</ele>
 <time>2010-09-02T10:55:48Z</time>
 </trkpt>
 <trkpt lat="47.187386" lon="13.368481">
 <ele>1595.64</ele>
 <time>2010-09-02T10:55:52Z</time>
 </trkpt>
 <trkpt lat="47.187466" lon="13.368846">
 <ele>1592.53</ele>
 <time>2010-09-02T10:55:56Z</time>
 </trkpt>
 <trkpt lat="47.187614" lon="13.369160">
 <ele>1589.69</ele>
 <time>2010-09-02T10:56:01Z</time>
 </trkpt>
 <trkpt lat="47.187706" lon="13.369451">
 <ele>1587.77</ele>
 <time>2010-09-02T10:56:05Z</time>
 </trkpt>
 <trkpt lat="47.187763" lon="13.369863">
 <ele>1585.49</ele>
 <time>2010-09-02T10:56:10Z</time>
 </trkpt>
 <trkpt lat="47.187801" lon="13.370117">
 <ele>1583.93</ele>
 <time>2010-09-02T10:56:13Z</time>
 </trkpt>
 <trkpt lat="47.187790" lon="13.370517">
 <ele>1581.72</ele>
 <time>2010-09-02T10:56:18Z</time>
 </trkpt>
 <trkpt lat="47.187714" lon="13.370778">
 <ele>1579.56</ele>
 <time>2010-09-02T10:56:21Z</time>
 </trkpt>
 <trkpt lat="47.187664" lon="13.371082">
 <ele>1578.41</ele>
 <time>2010-09-02T10:56:26Z</time>
 </trkpt>
 <trkpt lat="47.187679" lon="13.371231">
 <ele>1577.43</ele>
 <time>2010-09-02T10:56:32Z</time>
 </trkpt>
 <trkpt lat="47.187691" lon="13.371324">
 <ele>1577.13</ele>
 <time>2010-09-02T10:56:37Z</time>
 </trkpt>
 <trkpt lat="47.187740" lon="13.371536">
 <ele>1576.26</ele>
 <time>2010-09-02T10:56:46Z</time>
 </trkpt>
 <trkpt lat="47.187771" lon="13.371751">
 <ele>1575.31</ele>
 <time>2010-09-02T10:56:50Z</time>
 </trkpt>
 <trkpt lat="47.187790" lon="13.371921">
 <ele>1574.30</ele>
 <time>2010-09-02T10:56:52Z</time>
 </trkpt>
 <trkpt lat="47.187836" lon="13.372401">
 <ele>1570.96</ele>
 <time>2010-09-02T10:56:57Z</time>
 </trkpt>
 <trkpt lat="47.187794" lon="13.372594">
 <ele>1570.12</ele>
 <time>2010-09-02T10:56:59Z</time>
 </trkpt>
 <trkpt lat="47.187748" lon="13.373200">
 <ele>1567.68</ele>
 <time>2010-09-02T10:57:05Z</time>
 </trkpt>
 <trkpt lat="47.187767" lon="13.373306">
 <ele>1567.15</ele>
 <time>2010-09-02T10:57:06Z</time>
 </trkpt>
 <trkpt lat="47.187878" lon="13.374046">
 <ele>1563.03</ele>
 <time>2010-09-02T10:57:12Z</time>
 </trkpt>
 <trkpt lat="47.187866" lon="13.374417">
 <ele>1561.55</ele>
 <time>2010-09-02T10:57:15Z</time>
 </trkpt>
 <trkpt lat="47.187786" lon="13.375025">
 <ele>1560.33</ele>
 <time>2010-09-02T10:57:20Z</time>
 </trkpt>
 <trkpt lat="47.187752" lon="13.375751">
 <ele>1558.88</ele>
 <time>2010-09-02T10:57:26Z</time>
 </trkpt>
 <trkpt lat="47.187756" lon="13.376967">
 <ele>1555.85</ele>
 <time>2010-09-02T10:57:36Z</time>
 </trkpt>
 <trkpt lat="47.187767" lon="13.377445">
 <ele>1554.20</ele>
 <time>2010-09-02T10:57:40Z</time>
 </trkpt>
 <trkpt lat="47.187672" lon="13.377895">
 <ele>1554.99</ele>
 <time>2010-09-02T10:57:45Z</time>
 </trkpt>
 <trkpt lat="47.187435" lon="13.378699">
 <ele>1553.91</ele>
 <time>2010-09-02T10:57:55Z</time>
 </trkpt>
 <trkpt lat="47.187378" lon="13.379040">
 <ele>1553.65</ele>
 <time>2010-09-02T10:57:59Z</time>
 </trkpt>
 <trkpt lat="47.187256" lon="13.379375">
 <ele>1552.05</ele>
 <time>2010-09-02T10:58:03Z</time>
 </trkpt>
 <trkpt lat="47.187153" lon="13.379614">
 <ele>1551.67</ele>
 <time>2010-09-02T10:58:06Z</time>
 </trkpt>
 <trkpt lat="47.186939" lon="13.379925">
 <ele>1550.87</ele>
 <time>2010-09-02T10:58:11Z</time>
 </trkpt>
 <trkpt lat="47.186695" lon="13.380425">
 <ele>1550.04</ele>
 <time>2010-09-02T10:58:18Z</time>
 </trkpt>
 <trkpt lat="47.186611" lon="13.380687">
 <ele>1549.32</ele>
 <time>2010-09-02T10:58:21Z</time>
 </trkpt>
 <trkpt lat="47.186550" lon="13.381182">
 <ele>1548.23</ele>
 <time>2010-09-02T10:58:26Z</time>
 </trkpt>
 <trkpt lat="47.186543" lon="13.381281">
 <ele>1548.05</ele>
 <time>2010-09-02T10:58:27Z</time>
 </trkpt>
 <trkpt lat="47.186588" lon="13.381669">
 <ele>1547.18</ele>
 <time>2010-09-02T10:58:31Z</time>
 </trkpt>
 <trkpt lat="47.186634" lon="13.381855">
 <ele>1546.66</ele>
 <time>2010-09-02T10:58:33Z</time>
 </trkpt>
 <trkpt lat="47.186695" lon="13.382668">
 <ele>1545.25</ele>
 <time>2010-09-02T10:58:41Z</time>
 </trkpt>
 <trkpt lat="47.186649" lon="13.383213">
 <ele>1545.66</ele>
 <time>2010-09-02T10:58:47Z</time>
 </trkpt>
 <trkpt lat="47.186588" lon="13.383513">
 <ele>1545.67</ele>
 <time>2010-09-02T10:58:51Z</time>
 </trkpt>
 <trkpt lat="47.186497" lon="13.383868">
 <ele>1546.28</ele>
 <time>2010-09-02T10:58:57Z</time>
 </trkpt>
 <trkpt lat="47.186466" lon="13.384185">
 <ele>1546.99</ele>
 <time>2010-09-02T10:59:02Z</time>
 </trkpt>
 <trkpt lat="47.186401" lon="13.384469">
 <ele>1546.79</ele>
 <time>2010-09-02T10:59:06Z</time>
 </trkpt>
 <trkpt lat="47.186211" lon="13.384982">
 <ele>1546.56</ele>
 <time>2010-09-02T10:59:14Z</time>
 </trkpt>
 <trkpt lat="47.186054" lon="13.385320">
 <ele>1546.54</ele>
 <time>2010-09-02T10:59:21Z</time>
 </trkpt>
 <trkpt lat="47.186050" lon="13.385321">
 <ele>1546.71</ele>
 <time>2010-09-02T10:59:23Z</time>
 </trkpt>
 <trkpt lat="47.186043" lon="13.385359">
 <ele>1546.80</ele>
 <time>2010-09-02T11:00:18Z</time>
 </trkpt>
 <trkpt lat="47.186031" lon="13.385381">
 <ele>1546.84</ele>
 <time>2010-09-02T11:00:19Z</time>
 </trkpt>
 <trkpt lat="47.185925" lon="13.385571">
 <ele>1546.46</ele>
 <time>2010-09-02T11:00:25Z</time>
 </trkpt>
 <trkpt lat="47.185841" lon="13.385876">
 <ele>1546.85</ele>
 <time>2010-09-02T11:00:32Z</time>
 </trkpt>
 <trkpt lat="47.185806" lon="13.386261">
 <ele>1546.57</ele>
 <time>2010-09-02T11:00:38Z</time>
 </trkpt>
 <trkpt lat="47.185764" lon="13.386739">
 <ele>1546.93</ele>
 <time>2010-09-02T11:00:45Z</time>
 </trkpt>
 <trkpt lat="47.185760" lon="13.386806">
 <ele>1547.03</ele>
 <time>2010-09-02T11:00:46Z</time>
 </trkpt>
 <trkpt lat="47.185719" lon="13.387259">
 <ele>1547.86</ele>
 <time>2010-09-02T11:00:53Z</time>
 </trkpt>
 <trkpt lat="47.185692" lon="13.387738">
 <ele>1547.62</ele>
 <time>2010-09-02T11:01:00Z</time>
 </trkpt>
 <trkpt lat="47.185692" lon="13.387893">
 <ele>1547.23</ele>
 <time>2010-09-02T11:01:02Z</time>
 </trkpt>
 <trkpt lat="47.185600" lon="13.388371">
 <ele>1545.85</ele>
 <time>2010-09-02T11:01:08Z</time>
 </trkpt>
 <trkpt lat="47.185402" lon="13.389057">
 <ele>1545.19</ele>
 <time>2010-09-02T11:01:17Z</time>
 </trkpt>
 <trkpt lat="47.185253" lon="13.389611">
 <ele>1544.16</ele>
 <time>2010-09-02T11:01:24Z</time>
 </trkpt>
 <trkpt lat="47.185196" lon="13.390071">
 <ele>1544.36</ele>
 <time>2010-09-02T11:01:30Z</time>
 </trkpt>
 <trkpt lat="47.185165" lon="13.390754">
 <ele>1543.08</ele>
 <time>2010-09-02T11:01:38Z</time>
 </trkpt>
 <trkpt lat="47.185139" lon="13.391418">
 <ele>1541.87</ele>
 <time>2010-09-02T11:01:45Z</time>
 </trkpt>
 <trkpt lat="47.185150" lon="13.392126">
 <ele>1540.24</ele>
 <time>2010-09-02T11:01:52Z</time>
 </trkpt>
 <trkpt lat="47.185139" lon="13.392311">
 <ele>1540.25</ele>
 <time>2010-09-02T11:01:54Z</time>
 </trkpt>
 <trkpt lat="47.185116" lon="13.392572">
 <ele>1541.60</ele>
 <time>2010-09-02T11:01:58Z</time>
 </trkpt>
 <trkpt lat="47.185104" lon="13.392610">
 <ele>1542.18</ele>
 <time>2010-09-02T11:02:02Z</time>
 </trkpt>
 <trkpt lat="47.185116" lon="13.392621">
 <ele>1542.19</ele>
 <time>2010-09-02T11:02:07Z</time>
 </trkpt>
 <trkpt lat="47.185173" lon="13.392676">
 <ele>1541.89</ele>
 <time>2010-09-02T11:02:43Z</time>
 </trkpt>
 <trkpt lat="47.185158" lon="13.392858">
 <ele>1541.28</ele>
 <time>2010-09-02T11:02:48Z</time>
 </trkpt>
 <trkpt lat="47.185150" lon="13.393175">
 <ele>1540.86</ele>
 <time>2010-09-02T11:02:53Z</time>
 </trkpt>
 <trkpt lat="47.185120" lon="13.393669">
 <ele>1540.06</ele>
 <time>2010-09-02T11:03:00Z</time>
 </trkpt>
 <trkpt lat="47.185116" lon="13.393796">
 <ele>1540.05</ele>
 <time>2010-09-02T11:03:02Z</time>
 </trkpt>
 <trkpt lat="47.185085" lon="13.394126">
 <ele>1539.65</ele>
 <time>2010-09-02T11:03:07Z</time>
 </trkpt>
 <trkpt lat="47.185078" lon="13.394474">
 <ele>1538.83</ele>
 <time>2010-09-02T11:03:12Z</time>
 </trkpt>
 <trkpt lat="47.185108" lon="13.394637">
 <ele>1538.61</ele>
 <time>2010-09-02T11:03:14Z</time>
 </trkpt>
 <trkpt lat="47.185184" lon="13.395007">
 <ele>1538.08</ele>
 <time>2010-09-02T11:03:19Z</time>
 </trkpt>
 <trkpt lat="47.185333" lon="13.395397">
 <ele>1537.37</ele>
 <time>2010-09-02T11:03:25Z</time>
 </trkpt>
 <trkpt lat="47.185375" lon="13.395716">
 <ele>1536.17</ele>
 <time>2010-09-02T11:03:30Z</time>
 </trkpt>
 <trkpt lat="47.185314" lon="13.395903">
 <ele>1535.65</ele>
 <time>2010-09-02T11:03:34Z</time>
 </trkpt>
 <trkpt lat="47.185287" lon="13.396006">
 <ele>1535.35</ele>
 <time>2010-09-02T11:03:38Z</time>
 </trkpt>
 <trkpt lat="47.185284" lon="13.396010">
 <ele>1535.40</ele>
 <time>2010-09-02T11:03:39Z</time>
 </trkpt>
 <trkpt lat="47.185287" lon="13.396058">
 <ele>1536.81</ele>
 <time>2010-09-02T11:05:12Z</time>
 </trkpt>
 <trkpt lat="47.185284" lon="13.396083">
 <ele>1536.79</ele>
 <time>2010-09-02T11:05:13Z</time>
 </trkpt>
 <trkpt lat="47.185242" lon="13.396270">
 <ele>1536.68</ele>
 <time>2010-09-02T11:05:18Z</time>
 </trkpt>
 <trkpt lat="47.185146" lon="13.396546">
 <ele>1536.48</ele>
 <time>2010-09-02T11:05:24Z</time>
 </trkpt>
 <trkpt lat="47.185101" lon="13.396710">
 <ele>1536.30</ele>
 <time>2010-09-02T11:05:27Z</time>
 </trkpt>
 <trkpt lat="47.185066" lon="13.397103">
 <ele>1535.46</ele>
 <time>2010-09-02T11:05:32Z</time>
 </trkpt>
 <trkpt lat="47.185066" lon="13.397373">
 <ele>1534.75</ele>
 <time>2010-09-02T11:05:35Z</time>
 </trkpt>
 <trkpt lat="47.185051" lon="13.397637">
 <ele>1534.34</ele>
 <time>2010-09-02T11:05:38Z</time>
 </trkpt>
 <trkpt lat="47.185059" lon="13.397883">
 <ele>1534.49</ele>
 <time>2010-09-02T11:05:41Z</time>
 </trkpt>
 <trkpt lat="47.185158" lon="13.398246">
 <ele>1534.06</ele>
 <time>2010-09-02T11:05:46Z</time>
 </trkpt>
 <trkpt lat="47.185207" lon="13.398474">
 <ele>1533.30</ele>
 <time>2010-09-02T11:05:49Z</time>
 </trkpt>
 <trkpt lat="47.185200" lon="13.398751">
 <ele>1533.17</ele>
 <time>2010-09-02T11:05:54Z</time>
 </trkpt>
 <trkpt lat="47.185169" lon="13.399024">
 <ele>1533.13</ele>
 <time>2010-09-02T11:06:00Z</time>
 </trkpt>
 <trkpt lat="47.185150" lon="13.399158">
 <ele>1532.59</ele>
 <time>2010-09-02T11:06:02Z</time>
 </trkpt>
 <trkpt lat="47.185188" lon="13.399665">
 <ele>1531.22</ele>
 <time>2010-09-02T11:06:08Z</time>
 </trkpt>
 <trkpt lat="47.185257" lon="13.399961">
 <ele>1530.95</ele>
 <time>2010-09-02T11:06:13Z</time>
 </trkpt>
 <trkpt lat="47.185287" lon="13.400064">
 <ele>1530.89</ele>
 <time>2010-09-02T11:06:15Z</time>
 </trkpt>
 <trkpt lat="47.185421" lon="13.400329">
 <ele>1530.54</ele>
 <time>2010-09-02T11:06:21Z</time>
 </trkpt>
 <trkpt lat="47.185421" lon="13.400354">
 <ele>1530.37</ele>
 <time>2010-09-02T11:06:24Z</time>
 </trkpt>
 <trkpt lat="47.185436" lon="13.400377">
 <ele>1530.13</ele>
 <time>2010-09-02T11:07:24Z</time>
 </trkpt>
 <trkpt lat="47.185539" lon="13.400557">
 <ele>1529.60</ele>
 <time>2010-09-02T11:07:31Z</time>
 </trkpt>
 <trkpt lat="47.185635" lon="13.400692">
 <ele>1529.06</ele>
 <time>2010-09-02T11:07:36Z</time>
 </trkpt>
 <trkpt lat="47.185711" lon="13.400815">
 <ele>1528.64</ele>
 <time>2010-09-02T11:07:42Z</time>
 </trkpt>
 <trkpt lat="47.185753" lon="13.400957">
 <ele>1528.32</ele>
 <time>2010-09-02T11:07:48Z</time>
 </trkpt>
 <trkpt lat="47.185829" lon="13.401118">
 <ele>1527.98</ele>
 <time>2010-09-02T11:07:53Z</time>
 </trkpt>
 <trkpt lat="47.185829" lon="13.401157">
 <ele>1527.69</ele>
 <time>2010-09-02T11:07:56Z</time>
 </trkpt>
 <trkpt lat="47.185818" lon="13.401228">
 <ele>1527.34</ele>
 <time>2010-09-02T11:08:02Z</time>
 </trkpt>
 <trkpt lat="47.185822" lon="13.401233">
 <ele>1527.37</ele>
 <time>2010-09-02T11:08:03Z</time>
 </trkpt>
 <trkpt lat="47.185822" lon="13.401262">
 <ele>1527.53</ele>
 <time>2010-09-02T11:08:13Z</time>
 </trkpt>
 <trkpt lat="47.185909" lon="13.401250">
 <ele>1527.47</ele>
 <time>2010-09-02T11:08:59Z</time>
 </trkpt>
 <trkpt lat="47.185951" lon="13.401307">
 <ele>1527.62</ele>
 <time>2010-09-02T11:09:04Z</time>
 </trkpt>
 <trkpt lat="47.186043" lon="13.401458">
 <ele>1527.27</ele>
 <time>2010-09-02T11:09:11Z</time>
 </trkpt>
 <trkpt lat="47.186085" lon="13.401566">
 <ele>1526.73</ele>
 <time>2010-09-02T11:09:18Z</time>
 </trkpt>
 <trkpt lat="47.186085" lon="13.401580">
 <ele>1526.56</ele>
 <time>2010-09-02T11:09:21Z</time>
 </trkpt>
 <trkpt lat="47.186085" lon="13.401616">
 <ele>1526.76</ele>
 <time>2010-09-02T11:11:56Z</time>
 </trkpt>
 <trkpt lat="47.186089" lon="13.401616">
 <ele>1526.66</ele>
 <time>2010-09-02T11:11:57Z</time>
 </trkpt>
 <trkpt lat="47.186211" lon="13.401749">
 <ele>1526.31</ele>
 <time>2010-09-02T11:12:07Z</time>
 </trkpt>
 <trkpt lat="47.186337" lon="13.401860">
 <ele>1526.09</ele>
 <time>2010-09-02T11:12:10Z</time>
 </trkpt>
 <trkpt lat="47.186623" lon="13.402032">
 <ele>1524.63</ele>
 <time>2010-09-02T11:12:15Z</time>
 </trkpt>
 <trkpt lat="47.186810" lon="13.402152">
 <ele>1523.79</ele>
 <time>2010-09-02T11:12:18Z</time>
 </trkpt>
 <trkpt lat="47.186958" lon="13.402347">
 <ele>1523.66</ele>
 <time>2010-09-02T11:12:22Z</time>
 </trkpt>
 <trkpt lat="47.187073" lon="13.402884">
 <ele>1523.37</ele>
 <time>2010-09-02T11:12:30Z</time>
 </trkpt>
 <trkpt lat="47.187199" lon="13.403417">
 <ele>1522.80</ele>
 <time>2010-09-02T11:12:37Z</time>
 </trkpt>
 <trkpt lat="47.187305" lon="13.403966">
 <ele>1521.99</ele>
 <time>2010-09-02T11:12:44Z</time>
 </trkpt>
 <trkpt lat="47.187340" lon="13.404559">
 <ele>1521.10</ele>
 <time>2010-09-02T11:12:51Z</time>
 </trkpt>
 <trkpt lat="47.187363" lon="13.404916">
 <ele>1519.93</ele>
 <time>2010-09-02T11:12:55Z</time>
 </trkpt>
 <trkpt lat="47.187527" lon="13.405309">
 <ele>1519.49</ele>
 <time>2010-09-02T11:13:00Z</time>
 </trkpt>
 <trkpt lat="47.187733" lon="13.405742">
 <ele>1519.65</ele>
 <time>2010-09-02T11:13:06Z</time>
 </trkpt>
 <trkpt lat="47.187756" lon="13.405806">
 <ele>1520.05</ele>
 <time>2010-09-02T11:13:07Z</time>
 </trkpt>
 <trkpt lat="47.187843" lon="13.406111">
 <ele>1521.92</ele>
 <time>2010-09-02T11:13:12Z</time>
 </trkpt>
 <trkpt lat="47.187874" lon="13.406563">
 <ele>1522.44</ele>
 <time>2010-09-02T11:13:19Z</time>
 </trkpt>
 <trkpt lat="47.187935" lon="13.407110">
 <ele>1523.89</ele>
 <time>2010-09-02T11:13:28Z</time>
 </trkpt>
 <trkpt lat="47.187954" lon="13.407285">
 <ele>1524.05</ele>
 <time>2010-09-02T11:13:31Z</time>
 </trkpt>
 <trkpt lat="47.187958" lon="13.407828">
 <ele>1524.92</ele>
 <time>2010-09-02T11:13:40Z</time>
 </trkpt>
 <trkpt lat="47.187958" lon="13.408413">
 <ele>1526.93</ele>
 <time>2010-09-02T11:13:50Z</time>
 </trkpt>
 <trkpt lat="47.187950" lon="13.408931">
 <ele>1528.06</ele>
 <time>2010-09-02T11:13:59Z</time>
 </trkpt>
 <trkpt lat="47.187874" lon="13.409194">
 <ele>1528.62</ele>
 <time>2010-09-02T11:14:04Z</time>
 </trkpt>
 <trkpt lat="47.187763" lon="13.409586">
 <ele>1528.50</ele>
 <time>2010-09-02T11:14:11Z</time>
 </trkpt>
 <trkpt lat="47.187626" lon="13.410092">
 <ele>1528.93</ele>
 <time>2010-09-02T11:14:20Z</time>
 </trkpt>
 <trkpt lat="47.187492" lon="13.410443">
 <ele>1529.84</ele>
 <time>2010-09-02T11:14:27Z</time>
 </trkpt>
 <trkpt lat="47.187420" lon="13.410672">
 <ele>1531.43</ele>
 <time>2010-09-02T11:14:33Z</time>
 </trkpt>
 <trkpt lat="47.187336" lon="13.410926">
 <ele>1533.22</ele>
 <time>2010-09-02T11:14:41Z</time>
 </trkpt>
 <trkpt lat="47.187260" lon="13.411214">
 <ele>1535.17</ele>
 <time>2010-09-02T11:14:50Z</time>
 </trkpt>
 <trkpt lat="47.187195" lon="13.411478">
 <ele>1537.14</ele>
 <time>2010-09-02T11:14:59Z</time>
 </trkpt>
 <trkpt lat="47.187130" lon="13.411729">
 <ele>1538.44</ele>
 <time>2010-09-02T11:15:08Z</time>
 </trkpt>
 <trkpt lat="47.187069" lon="13.411981">
 <ele>1539.92</ele>
 <time>2010-09-02T11:15:17Z</time>
 </trkpt>
 <trkpt lat="47.187016" lon="13.412204">
 <ele>1541.21</ele>
 <time>2010-09-02T11:15:25Z</time>
 </trkpt>
 <trkpt lat="47.186939" lon="13.412509">
 <ele>1542.85</ele>
 <time>2010-09-02T11:15:36Z</time>
 </trkpt>
 <trkpt lat="47.186874" lon="13.412814">
 <ele>1544.64</ele>
 <time>2010-09-02T11:15:47Z</time>
 </trkpt>
 <trkpt lat="47.186802" lon="13.413111">
 <ele>1545.75</ele>
 <time>2010-09-02T11:15:57Z</time>
 </trkpt>
 <trkpt lat="47.186729" lon="13.413466">
 <ele>1545.94</ele>
 <time>2010-09-02T11:16:07Z</time>
 </trkpt>
 <trkpt lat="47.186657" lon="13.413791">
 <ele>1545.38</ele>
 <time>2010-09-02T11:16:15Z</time>
 </trkpt>
 <trkpt lat="47.186546" lon="13.414220">
 <ele>1544.79</ele>
 <time>2010-09-02T11:16:23Z</time>
 </trkpt>
 <trkpt lat="47.186428" lon="13.414622">
 <ele>1542.28</ele>
 <time>2010-09-02T11:16:28Z</time>
 </trkpt>
 <trkpt lat="47.186333" lon="13.414991">
 <ele>1539.27</ele>
 <time>2010-09-02T11:16:32Z</time>
 </trkpt>
 <trkpt lat="47.186310" lon="13.415599">
 <ele>1535.53</ele>
 <time>2010-09-02T11:16:38Z</time>
 </trkpt>
 <trkpt lat="47.186340" lon="13.416251">
 <ele>1531.28</ele>
 <time>2010-09-02T11:16:44Z</time>
 </trkpt>
 <trkpt lat="47.186356" lon="13.416476">
 <ele>1530.31</ele>
 <time>2010-09-02T11:16:46Z</time>
 </trkpt>
 <trkpt lat="47.186352" lon="13.417050">
 <ele>1525.69</ele>
 <time>2010-09-02T11:16:51Z</time>
 </trkpt>
 <trkpt lat="47.186310" lon="13.417748">
 <ele>1521.66</ele>
 <time>2010-09-02T11:16:57Z</time>
 </trkpt>
 <trkpt lat="47.186268" lon="13.418121">
 <ele>1519.81</ele>
 <time>2010-09-02T11:17:00Z</time>
 </trkpt>
 <trkpt lat="47.186230" lon="13.418360">
 <ele>1518.91</ele>
 <time>2010-09-02T11:17:02Z</time>
 </trkpt>
 <trkpt lat="47.186050" lon="13.419146">
 <ele>1517.44</ele>
 <time>2010-09-02T11:17:09Z</time>
 </trkpt>
 <trkpt lat="47.185974" lon="13.419450">
 <ele>1517.06</ele>
 <time>2010-09-02T11:17:12Z</time>
 </trkpt>
 <trkpt lat="47.185894" lon="13.420140">
 <ele>1516.97</ele>
 <time>2010-09-02T11:17:19Z</time>
 </trkpt>
 <trkpt lat="47.185867" lon="13.420716">
 <ele>1516.68</ele>
 <time>2010-09-02T11:17:25Z</time>
 </trkpt>
 <trkpt lat="47.185848" lon="13.421233">
 <ele>1517.41</ele>
 <time>2010-09-02T11:17:31Z</time>
 </trkpt>
 <trkpt lat="47.185757" lon="13.421857">
 <ele>1517.36</ele>
 <time>2010-09-02T11:17:39Z</time>
 </trkpt>
 <trkpt lat="47.185650" lon="13.422425">
 <ele>1514.35</ele>
 <time>2010-09-02T11:17:45Z</time>
 </trkpt>
 <trkpt lat="47.185650" lon="13.422744">
 <ele>1511.42</ele>
 <time>2010-09-02T11:17:49Z</time>
 </trkpt>
 <trkpt lat="47.185661" lon="13.422841">
 <ele>1510.71</ele>
 <time>2010-09-02T11:17:50Z</time>
 </trkpt>
 <trkpt lat="47.185780" lon="13.423523">
 <ele>1503.32</ele>
 <time>2010-09-02T11:17:57Z</time>
 </trkpt>
 <trkpt lat="47.185791" lon="13.423611">
 <ele>1503.31</ele>
 <time>2010-09-02T11:17:58Z</time>
 </trkpt>
 <trkpt lat="47.185768" lon="13.424008">
 <ele>1500.07</ele>
 <time>2010-09-02T11:18:02Z</time>
 </trkpt>
 <trkpt lat="47.185692" lon="13.424659">
 <ele>1494.02</ele>
 <time>2010-09-02T11:18:08Z</time>
 </trkpt>
 <trkpt lat="47.185677" lon="13.425245">
 <ele>1488.86</ele>
 <time>2010-09-02T11:18:13Z</time>
 </trkpt>
 <trkpt lat="47.185699" lon="13.425765">
 <ele>1485.51</ele>
 <time>2010-09-02T11:18:18Z</time>
 </trkpt>
 <trkpt lat="47.185741" lon="13.426384">
 <ele>1480.21</ele>
 <time>2010-09-02T11:18:24Z</time>
 </trkpt>
 <trkpt lat="47.185711" lon="13.426822">
 <ele>1477.44</ele>
 <time>2010-09-02T11:18:28Z</time>
 </trkpt>
 <trkpt lat="47.185680" lon="13.427025">
 <ele>1476.18</ele>
 <time>2010-09-02T11:18:30Z</time>
 </trkpt>
 <trkpt lat="47.185619" lon="13.427237">
 <ele>1474.85</ele>
 <time>2010-09-02T11:18:33Z</time>
 </trkpt>
 <trkpt lat="47.185596" lon="13.427306">
 <ele>1474.70</ele>
 <time>2010-09-02T11:18:36Z</time>
 </trkpt>
 <trkpt lat="47.185596" lon="13.427307">
 <ele>1474.94</ele>
 <time>2010-09-02T11:18:37Z</time>
 </trkpt>
 <trkpt lat="47.185585" lon="13.427485">
 <ele>1474.26</ele>
 <time>2010-09-02T11:18:43Z</time>
 </trkpt>
 <trkpt lat="47.185612" lon="13.427734">
 <ele>1472.98</ele>
 <time>2010-09-02T11:18:47Z</time>
 </trkpt>
 <trkpt lat="47.185658" lon="13.427923">
 <ele>1471.74</ele>
 <time>2010-09-02T11:18:52Z</time>
 </trkpt>
 <trkpt lat="47.185658" lon="13.427931">
 <ele>1471.09</ele>
 <time>2010-09-02T11:18:54Z</time>
 </trkpt>
 <trkpt lat="47.185680" lon="13.427953">
 <ele>1470.77</ele>
 <time>2010-09-02T11:19:51Z</time>
 </trkpt>
 <trkpt lat="47.185696" lon="13.427997">
 <ele>1470.52</ele>
 <time>2010-09-02T11:19:52Z</time>
 </trkpt>
 <trkpt lat="47.185715" lon="13.428049">
 <ele>1470.11</ele>
 <time>2010-09-02T11:19:53Z</time>
 </trkpt>
 <trkpt lat="47.185734" lon="13.428357">
 <ele>1467.67</ele>
 <time>2010-09-02T11:19:57Z</time>
 </trkpt>
 <trkpt lat="47.185642" lon="13.428607">
 <ele>1465.17</ele>
 <time>2010-09-02T11:20:00Z</time>
 </trkpt>
 <trkpt lat="47.185555" lon="13.428765">
 <ele>1463.52</ele>
 <time>2010-09-02T11:20:02Z</time>
 </trkpt>
 <trkpt lat="47.185356" lon="13.429337">
 <ele>1459.29</ele>
 <time>2010-09-02T11:20:08Z</time>
 </trkpt>
 <trkpt lat="47.185204" lon="13.429945">
 <ele>1454.95</ele>
 <time>2010-09-02T11:20:14Z</time>
 </trkpt>
 <trkpt lat="47.185173" lon="13.430036">
 <ele>1454.57</ele>
 <time>2010-09-02T11:20:15Z</time>
 </trkpt>
 <trkpt lat="47.185036" lon="13.430663">
 <ele>1451.08</ele>
 <time>2010-09-02T11:20:21Z</time>
 </trkpt>
 <trkpt lat="47.184917" lon="13.431371">
 <ele>1447.79</ele>
 <time>2010-09-02T11:20:27Z</time>
 </trkpt>
 <trkpt lat="47.184753" lon="13.432190">
 <ele>1445.68</ele>
 <time>2010-09-02T11:20:34Z</time>
 </trkpt>
 <trkpt lat="47.184662" lon="13.432486">
 <ele>1446.28</ele>
 <time>2010-09-02T11:20:38Z</time>
 </trkpt>
 <trkpt lat="47.184608" lon="13.432632">
 <ele>1446.65</ele>
 <time>2010-09-02T11:20:42Z</time>
 </trkpt>
 <trkpt lat="47.184589" lon="13.432687">
 <ele>1446.72</ele>
 <time>2010-09-02T11:20:48Z</time>
 </trkpt>
 <trkpt lat="47.184586" lon="13.432769">
 <ele>1446.27</ele>
 <time>2010-09-02T11:21:00Z</time>
 </trkpt>
 <trkpt lat="47.184509" lon="13.432905">
 <ele>1446.22</ele>
 <time>2010-09-02T11:21:03Z</time>
 </trkpt>
 <trkpt lat="47.184486" lon="13.433131">
 <ele>1445.62</ele>
 <time>2010-09-02T11:21:07Z</time>
 </trkpt>
 <trkpt lat="47.184521" lon="13.433590">
 <ele>1444.59</ele>
 <time>2010-09-02T11:21:13Z</time>
 </trkpt>
 <trkpt lat="47.184517" lon="13.434086">
 <ele>1444.05</ele>
 <time>2010-09-02T11:21:19Z</time>
 </trkpt>
 <trkpt lat="47.184471" lon="13.434862">
 <ele>1440.82</ele>
 <time>2010-09-02T11:21:27Z</time>
 </trkpt>
 <trkpt lat="47.184338" lon="13.435291">
 <ele>1438.22</ele>
 <time>2010-09-02T11:21:32Z</time>
 </trkpt>
 <trkpt lat="47.184292" lon="13.435370">
 <ele>1437.51</ele>
 <time>2010-09-02T11:21:33Z</time>
 </trkpt>
 <trkpt lat="47.184200" lon="13.435531">
 <ele>1435.68</ele>
 <time>2010-09-02T11:21:35Z</time>
 </trkpt>
 <trkpt lat="47.184048" lon="13.436033">
 <ele>1430.98</ele>
 <time>2010-09-02T11:21:40Z</time>
 </trkpt>
 <trkpt lat="47.183884" lon="13.436751">
 <ele>1425.11</ele>
 <time>2010-09-02T11:21:46Z</time>
 </trkpt>
 <trkpt lat="47.183781" lon="13.437443">
 <ele>1423.44</ele>
 <time>2010-09-02T11:21:52Z</time>
 </trkpt>
 <trkpt lat="47.183678" lon="13.437977">
 <ele>1418.56</ele>
 <time>2010-09-02T11:21:58Z</time>
 </trkpt>
 <trkpt lat="47.183640" lon="13.438190">
 <ele>1416.77</ele>
 <time>2010-09-02T11:22:02Z</time>
 </trkpt>
 <trkpt lat="47.183620" lon="13.438424">
 <ele>1415.05</ele>
 <time>2010-09-02T11:22:06Z</time>
 </trkpt>
 <trkpt lat="47.183628" lon="13.438572">
 <ele>1413.96</ele>
 <time>2010-09-02T11:22:11Z</time>
 </trkpt>
 <trkpt lat="47.183628" lon="13.438571">
 <ele>1413.87</ele>
 <time>2010-09-02T11:22:12Z</time>
 </trkpt>
 <trkpt lat="47.183632" lon="13.438611">
 <ele>1413.51</ele>
 <time>2010-09-02T11:23:10Z</time>
 </trkpt>
 <trkpt lat="47.183636" lon="13.438652">
 <ele>1413.28</ele>
 <time>2010-09-02T11:23:11Z</time>
 </trkpt>
 <trkpt lat="47.183681" lon="13.438892">
 <ele>1412.29</ele>
 <time>2010-09-02T11:23:15Z</time>
 </trkpt>
 <trkpt lat="47.183731" lon="13.439190">
 <ele>1410.52</ele>
 <time>2010-09-02T11:23:19Z</time>
 </trkpt>
 <trkpt lat="47.183720" lon="13.439488">
 <ele>1408.50</ele>
 <time>2010-09-02T11:23:23Z</time>
 </trkpt>
 <trkpt lat="47.183674" lon="13.439748">
 <ele>1406.27</ele>
 <time>2010-09-02T11:23:27Z</time>
 </trkpt>
 <trkpt lat="47.183666" lon="13.439804">
 <ele>1405.64</ele>
 <time>2010-09-02T11:23:28Z</time>
 </trkpt>
 <trkpt lat="47.183628" lon="13.439951">
 <ele>1404.69</ele>
 <time>2010-09-02T11:23:32Z</time>
 </trkpt>
 <trkpt lat="47.183613" lon="13.440023">
 <ele>1403.42</ele>
 <time>2010-09-02T11:23:37Z</time>
 </trkpt>
 <trkpt lat="47.183636" lon="13.440114">
 <ele>1402.55</ele>
 <time>2010-09-02T11:24:25Z</time>
 </trkpt>
 <trkpt lat="47.183540" lon="13.440388">
 <ele>1399.98</ele>
 <time>2010-09-02T11:24:30Z</time>
 </trkpt>
 <trkpt lat="47.183384" lon="13.440445">
 <ele>1397.35</ele>
 <time>2010-09-02T11:24:34Z</time>
 </trkpt>
 <trkpt lat="47.183304" lon="13.440407">
 <ele>1396.31</ele>
 <time>2010-09-02T11:24:36Z</time>
 </trkpt>
 <trkpt lat="47.183262" lon="13.440378">
 <ele>1395.79</ele>
 <time>2010-09-02T11:24:37Z</time>
 </trkpt>
 <trkpt lat="47.183144" lon="13.440191">
 <ele>1393.78</ele>
 <time>2010-09-02T11:24:41Z</time>
 </trkpt>
 <trkpt lat="47.183182" lon="13.439994">
 <ele>1393.01</ele>
 <time>2010-09-02T11:24:44Z</time>
 </trkpt>
 <trkpt lat="47.183254" lon="13.439594">
 <ele>1391.42</ele>
 <time>2010-09-02T11:24:49Z</time>
 </trkpt>
 <trkpt lat="47.183250" lon="13.439427">
 <ele>1390.74</ele>
 <time>2010-09-02T11:24:51Z</time>
 </trkpt>
 <trkpt lat="47.183270" lon="13.439030">
 <ele>1390.03</ele>
 <time>2010-09-02T11:24:56Z</time>
 </trkpt>
 <trkpt lat="47.183277" lon="13.438947">
 <ele>1389.80</ele>
 <time>2010-09-02T11:24:57Z</time>
 </trkpt>
 <trkpt lat="47.183262" lon="13.438604">
 <ele>1389.12</ele>
 <time>2010-09-02T11:25:01Z</time>
 </trkpt>
 <trkpt lat="47.183090" lon="13.437815">
 <ele>1387.59</ele>
 <time>2010-09-02T11:25:10Z</time>
 </trkpt>
 <trkpt lat="47.182964" lon="13.437165">
 <ele>1385.74</ele>
 <time>2010-09-02T11:25:17Z</time>
 </trkpt>
 <trkpt lat="47.182838" lon="13.436422">
 <ele>1382.99</ele>
 <time>2010-09-02T11:25:24Z</time>
 </trkpt>
 <trkpt lat="47.182800" lon="13.436202">
 <ele>1381.21</ele>
 <time>2010-09-02T11:25:26Z</time>
 </trkpt>
 <trkpt lat="47.182629" lon="13.435813">
 <ele>1377.38</ele>
 <time>2010-09-02T11:25:31Z</time>
 </trkpt>
 <trkpt lat="47.182465" lon="13.435760">
 <ele>1375.79</ele>
 <time>2010-09-02T11:25:34Z</time>
 </trkpt>
 <trkpt lat="47.182301" lon="13.435883">
 <ele>1374.77</ele>
 <time>2010-09-02T11:25:37Z</time>
 </trkpt>
 <trkpt lat="47.182201" lon="13.436045">
 <ele>1373.20</ele>
 <time>2010-09-02T11:25:39Z</time>
 </trkpt>
 <trkpt lat="47.181854" lon="13.436762">
 <ele>1367.49</ele>
 <time>2010-09-02T11:25:46Z</time>
 </trkpt>
 <trkpt lat="47.181641" lon="13.437256">
 <ele>1364.58</ele>
 <time>2010-09-02T11:25:51Z</time>
 </trkpt>
 <trkpt lat="47.181488" lon="13.437849">
 <ele>1360.98</ele>
 <time>2010-09-02T11:25:56Z</time>
 </trkpt>
 <trkpt lat="47.181458" lon="13.437964">
 <ele>1360.31</ele>
 <time>2010-09-02T11:25:57Z</time>
 </trkpt>
 <trkpt lat="47.181328" lon="13.438256">
 <ele>1358.98</ele>
 <time>2010-09-02T11:26:00Z</time>
 </trkpt>
 <trkpt lat="47.181107" lon="13.438541">
 <ele>1357.13</ele>
 <time>2010-09-02T11:26:04Z</time>
 </trkpt>
 <trkpt lat="47.181007" lon="13.438708">
 <ele>1356.63</ele>
 <time>2010-09-02T11:26:06Z</time>
 </trkpt>
 <trkpt lat="47.180786" lon="13.439165">
 <ele>1355.63</ele>
 <time>2010-09-02T11:26:11Z</time>
 </trkpt>
 <trkpt lat="47.180653" lon="13.439687">
 <ele>1354.32</ele>
 <time>2010-09-02T11:26:16Z</time>
 </trkpt>
 <trkpt lat="47.180614" lon="13.439897">
 <ele>1354.13</ele>
 <time>2010-09-02T11:26:18Z</time>
 </trkpt>
 <trkpt lat="47.180595" lon="13.440116">
 <ele>1353.59</ele>
 <time>2010-09-02T11:26:20Z</time>
 </trkpt>
 <trkpt lat="47.180637" lon="13.440514">
 <ele>1352.23</ele>
 <time>2010-09-02T11:26:23Z</time>
 </trkpt>
 <trkpt lat="47.180603" lon="13.440806">
 <ele>1351.33</ele>
 <time>2010-09-02T11:26:26Z</time>
 </trkpt>
 <trkpt lat="47.180435" lon="13.441292">
 <ele>1350.16</ele>
 <time>2010-09-02T11:26:31Z</time>
 </trkpt>
 <trkpt lat="47.180096" lon="13.441771">
 <ele>1348.90</ele>
 <time>2010-09-02T11:26:37Z</time>
 </trkpt>
 <trkpt lat="47.179974" lon="13.441946">
 <ele>1347.89</ele>
 <time>2010-09-02T11:26:39Z</time>
 </trkpt>
 <trkpt lat="47.179741" lon="13.442317">
 <ele>1346.10</ele>
 <time>2010-09-02T11:26:43Z</time>
 </trkpt>
 <trkpt lat="47.179310" lon="13.443015">
 <ele>1345.22</ele>
 <time>2010-09-02T11:26:51Z</time>
 </trkpt>
 <trkpt lat="47.179016" lon="13.443563">
 <ele>1343.62</ele>
 <time>2010-09-02T11:26:57Z</time>
 </trkpt>
 <trkpt lat="47.178658" lon="13.444283">
 <ele>1341.97</ele>
 <time>2010-09-02T11:27:05Z</time>
 </trkpt>
 <trkpt lat="47.178604" lon="13.444355">
 <ele>1341.69</ele>
 <time>2010-09-02T11:27:06Z</time>
 </trkpt>
 <trkpt lat="47.178452" lon="13.444676">
 <ele>1341.15</ele>
 <time>2010-09-02T11:27:10Z</time>
 </trkpt>
 <trkpt lat="47.178276" lon="13.444973">
 <ele>1339.69</ele>
 <time>2010-09-02T11:27:14Z</time>
 </trkpt>
 <trkpt lat="47.178230" lon="13.445046">
 <ele>1339.21</ele>
 <time>2010-09-02T11:27:15Z</time>
 </trkpt>
 <trkpt lat="47.178047" lon="13.445631">
 <ele>1336.79</ele>
 <time>2010-09-02T11:27:21Z</time>
 </trkpt>
 <trkpt lat="47.177959" lon="13.445946">
 <ele>1335.86</ele>
 <time>2010-09-02T11:27:25Z</time>
 </trkpt>
 <trkpt lat="47.177769" lon="13.446141">
 <ele>1334.13</ele>
 <time>2010-09-02T11:27:30Z</time>
 </trkpt>
 <trkpt lat="47.177567" lon="13.446227">
 <ele>1333.12</ele>
 <time>2010-09-02T11:27:33Z</time>
 </trkpt>
 <trkpt lat="47.177135" lon="13.446479">
 <ele>1330.29</ele>
 <time>2010-09-02T11:27:39Z</time>
 </trkpt>
 <trkpt lat="47.176792" lon="13.446819">
 <ele>1328.64</ele>
 <time>2010-09-02T11:27:44Z</time>
 </trkpt>
 <trkpt lat="47.176529" lon="13.447216">
 <ele>1327.98</ele>
 <time>2010-09-02T11:27:49Z</time>
 </trkpt>
 <trkpt lat="47.176304" lon="13.447648">
 <ele>1327.31</ele>
 <time>2010-09-02T11:27:54Z</time>
 </trkpt>
 <trkpt lat="47.175930" lon="13.448012">
 <ele>1325.75</ele>
 <time>2010-09-02T11:28:00Z</time>
 </trkpt>
 <trkpt lat="47.175797" lon="13.448111">
 <ele>1325.08</ele>
 <time>2010-09-02T11:28:02Z</time>
 </trkpt>
 <trkpt lat="47.175541" lon="13.448479">
 <ele>1324.06</ele>
 <time>2010-09-02T11:28:07Z</time>
 </trkpt>
 <trkpt lat="47.175488" lon="13.448560">
 <ele>1323.74</ele>
 <time>2010-09-02T11:28:08Z</time>
 </trkpt>
 <trkpt lat="47.175163" lon="13.448807">
 <ele>1321.86</ele>
 <time>2010-09-02T11:28:13Z</time>
 </trkpt>
 <trkpt lat="47.174984" lon="13.448803">
 <ele>1321.65</ele>
 <time>2010-09-02T11:28:16Z</time>
 </trkpt>
 <trkpt lat="47.174927" lon="13.448774">
 <ele>1321.59</ele>
 <time>2010-09-02T11:28:17Z</time>
 </trkpt>
 <trkpt lat="47.174446" lon="13.448555">
 <ele>1320.22</ele>
 <time>2010-09-02T11:28:23Z</time>
 </trkpt>
 <trkpt lat="47.174229" lon="13.448453">
 <ele>1320.11</ele>
 <time>2010-09-02T11:28:26Z</time>
 </trkpt>
 <trkpt lat="47.174168" lon="13.448471">
 <ele>1319.85</ele>
 <time>2010-09-02T11:28:27Z</time>
 </trkpt>
 <trkpt lat="47.173927" lon="13.448384">
 <ele>1319.02</ele>
 <time>2010-09-02T11:28:32Z</time>
 </trkpt>
 <trkpt lat="47.173721" lon="13.448429">
 <ele>1317.55</ele>
 <time>2010-09-02T11:28:36Z</time>
 </trkpt>
 <trkpt lat="47.173615" lon="13.448544">
 <ele>1316.48</ele>
 <time>2010-09-02T11:28:38Z</time>
 </trkpt>
 <trkpt lat="47.173527" lon="13.448656">
 <ele>1315.20</ele>
 <time>2010-09-02T11:28:40Z</time>
 </trkpt>
 <trkpt lat="47.173229" lon="13.448825">
 <ele>1312.88</ele>
 <time>2010-09-02T11:28:45Z</time>
 </trkpt>
 <trkpt lat="47.173038" lon="13.448902">
 <ele>1311.13</ele>
 <time>2010-09-02T11:28:48Z</time>
 </trkpt>
 <trkpt lat="47.172821" lon="13.449228">
 <ele>1309.68</ele>
 <time>2010-09-02T11:28:52Z</time>
 </trkpt>
 <trkpt lat="47.172707" lon="13.449525">
 <ele>1309.22</ele>
 <time>2010-09-02T11:28:55Z</time>
 </trkpt>
 <trkpt lat="47.172508" lon="13.450327">
 <ele>1308.75</ele>
 <time>2010-09-02T11:29:03Z</time>
 </trkpt>
 <trkpt lat="47.172417" lon="13.450700">
 <ele>1308.68</ele>
 <time>2010-09-02T11:29:07Z</time>
 </trkpt>
 <trkpt lat="47.172237" lon="13.451388">
 <ele>1306.16</ele>
 <time>2010-09-02T11:29:14Z</time>
 </trkpt>
 <trkpt lat="47.172142" lon="13.451998">
 <ele>1305.54</ele>
 <time>2010-09-02T11:29:20Z</time>
 </trkpt>
 <trkpt lat="47.172012" lon="13.452514">
 <ele>1305.90</ele>
 <time>2010-09-02T11:29:26Z</time>
 </trkpt>
 <trkpt lat="47.171902" lon="13.453035">
 <ele>1306.07</ele>
 <time>2010-09-02T11:29:33Z</time>
 </trkpt>
 <trkpt lat="47.171879" lon="13.453191">
 <ele>1305.83</ele>
 <time>2010-09-02T11:29:35Z</time>
 </trkpt>
 <trkpt lat="47.171776" lon="13.453641">
 <ele>1303.37</ele>
 <time>2010-09-02T11:29:40Z</time>
 </trkpt>
 <trkpt lat="47.171677" lon="13.453796">
 <ele>1301.43</ele>
 <time>2010-09-02T11:29:42Z</time>
 </trkpt>
 <trkpt lat="47.171436" lon="13.454326">
 <ele>1298.87</ele>
 <time>2010-09-02T11:29:48Z</time>
 </trkpt>
 <trkpt lat="47.171387" lon="13.454608">
 <ele>1298.06</ele>
 <time>2010-09-02T11:29:51Z</time>
 </trkpt>
 <trkpt lat="47.171211" lon="13.454865">
 <ele>1297.63</ele>
 <time>2010-09-02T11:29:55Z</time>
 </trkpt>
 <trkpt lat="47.171001" lon="13.455077">
 <ele>1295.74</ele>
 <time>2010-09-02T11:29:59Z</time>
 </trkpt>
 <trkpt lat="47.170799" lon="13.455284">
 <ele>1295.08</ele>
 <time>2010-09-02T11:30:03Z</time>
 </trkpt>
 <trkpt lat="47.170654" lon="13.455437">
 <ele>1294.88</ele>
 <time>2010-09-02T11:30:06Z</time>
 </trkpt>
 <trkpt lat="47.170536" lon="13.455734">
 <ele>1295.00</ele>
 <time>2010-09-02T11:30:10Z</time>
 </trkpt>
 <trkpt lat="47.170517" lon="13.456235">
 <ele>1294.26</ele>
 <time>2010-09-02T11:30:15Z</time>
 </trkpt>
 <trkpt lat="47.170486" lon="13.456574">
 <ele>1292.66</ele>
 <time>2010-09-02T11:30:18Z</time>
 </trkpt>
 <trkpt lat="47.170372" lon="13.457145">
 <ele>1290.18</ele>
 <time>2010-09-02T11:30:23Z</time>
 </trkpt>
 <trkpt lat="47.170193" lon="13.457679">
 <ele>1288.75</ele>
 <time>2010-09-02T11:30:28Z</time>
 </trkpt>
 <trkpt lat="47.170063" lon="13.457972">
 <ele>1287.96</ele>
 <time>2010-09-02T11:30:31Z</time>
 </trkpt>
 <trkpt lat="47.169991" lon="13.458391">
 <ele>1287.22</ele>
 <time>2010-09-02T11:30:35Z</time>
 </trkpt>
 <trkpt lat="47.170017" lon="13.458598">
 <ele>1287.01</ele>
 <time>2010-09-02T11:30:37Z</time>
 </trkpt>
 <trkpt lat="47.170200" lon="13.459402">
 <ele>1285.93</ele>
 <time>2010-09-02T11:30:45Z</time>
 </trkpt>
 <trkpt lat="47.170189" lon="13.459766">
 <ele>1286.17</ele>
 <time>2010-09-02T11:30:49Z</time>
 </trkpt>
 <trkpt lat="47.170116" lon="13.459921">
 <ele>1286.00</ele>
 <time>2010-09-02T11:30:51Z</time>
 </trkpt>
 <trkpt lat="47.169930" lon="13.460226">
 <ele>1285.23</ele>
 <time>2010-09-02T11:30:55Z</time>
 </trkpt>
 <trkpt lat="47.169800" lon="13.460601">
 <ele>1284.53</ele>
 <time>2010-09-02T11:30:59Z</time>
 </trkpt>
 <trkpt lat="47.169594" lon="13.461527">
 <ele>1282.52</ele>
 <time>2010-09-02T11:31:08Z</time>
 </trkpt>
 <trkpt lat="47.169281" lon="13.462480">
 <ele>1280.91</ele>
 <time>2010-09-02T11:31:18Z</time>
 </trkpt>
 <trkpt lat="47.169010" lon="13.463190">
 <ele>1280.58</ele>
 <time>2010-09-02T11:31:26Z</time>
 </trkpt>
 <trkpt lat="47.168831" lon="13.463771">
 <ele>1279.90</ele>
 <time>2010-09-02T11:31:33Z</time>
 </trkpt>
 <trkpt lat="47.168861" lon="13.464253">
 <ele>1278.83</ele>
 <time>2010-09-02T11:31:38Z</time>
 </trkpt>
 <trkpt lat="47.168789" lon="13.464732">
 <ele>1277.53</ele>
 <time>2010-09-02T11:31:43Z</time>
 </trkpt>
 <trkpt lat="47.168667" lon="13.465498">
 <ele>1277.53</ele>
 <time>2010-09-02T11:31:51Z</time>
 </trkpt>
 <trkpt lat="47.168522" lon="13.466207">
 <ele>1276.83</ele>
 <time>2010-09-02T11:31:58Z</time>
 </trkpt>
 <trkpt lat="47.168404" lon="13.466716">
 <ele>1275.96</ele>
 <time>2010-09-02T11:32:03Z</time>
 </trkpt>
 <trkpt lat="47.168243" lon="13.467010">
 <ele>1275.83</ele>
 <time>2010-09-02T11:32:07Z</time>
 </trkpt>
 <trkpt lat="47.167965" lon="13.467355">
 <ele>1277.41</ele>
 <time>2010-09-02T11:32:14Z</time>
 </trkpt>
 <trkpt lat="47.167660" lon="13.467868">
 <ele>1277.32</ele>
 <time>2010-09-02T11:32:23Z</time>
 </trkpt>
 <trkpt lat="47.167366" lon="13.468342">
 <ele>1278.62</ele>
 <time>2010-09-02T11:32:32Z</time>
 </trkpt>
 <trkpt lat="47.167152" lon="13.468737">
 <ele>1278.94</ele>
 <time>2010-09-02T11:32:41Z</time>
 </trkpt>
 <trkpt lat="47.167126" lon="13.468785">
 <ele>1279.04</ele>
 <time>2010-09-02T11:32:45Z</time>
 </trkpt>
 <trkpt lat="47.167110" lon="13.468815">
 <ele>1278.89</ele>
 <time>2010-09-02T11:33:46Z</time>
 </trkpt>
 <trkpt lat="47.167103" lon="13.468846">
 <ele>1278.84</ele>
 <time>2010-09-02T11:33:47Z</time>
 </trkpt>
 <trkpt lat="47.167030" lon="13.469144">
 <ele>1277.90</ele>
 <time>2010-09-02T11:33:53Z</time>
 </trkpt>
 <trkpt lat="47.166939" lon="13.469604">
 <ele>1276.16</ele>
 <time>2010-09-02T11:33:59Z</time>
 </trkpt>
 <trkpt lat="47.166847" lon="13.469962">
 <ele>1275.19</ele>
 <time>2010-09-02T11:34:03Z</time>
 </trkpt>
 <trkpt lat="47.166737" lon="13.470366">
 <ele>1273.07</ele>
 <time>2010-09-02T11:34:07Z</time>
 </trkpt>
 <trkpt lat="47.166527" lon="13.471267">
 <ele>1269.22</ele>
 <time>2010-09-02T11:34:15Z</time>
 </trkpt>
 <trkpt lat="47.166401" lon="13.471998">
 <ele>1267.07</ele>
 <time>2010-09-02T11:34:21Z</time>
 </trkpt>
 <trkpt lat="47.166153" lon="13.472801">
 <ele>1265.09</ele>
 <time>2010-09-02T11:34:28Z</time>
 </trkpt>
 <trkpt lat="47.165821" lon="13.473813">
 <ele>1263.73</ele>
 <time>2010-09-02T11:34:37Z</time>
 </trkpt>
 <trkpt lat="47.165501" lon="13.474947">
 <ele>1263.35</ele>
 <time>2010-09-02T11:34:47Z</time>
 </trkpt>
 <trkpt lat="47.165108" lon="13.475596">
 <ele>1260.70</ele>
 <time>2010-09-02T11:34:54Z</time>
 </trkpt>
 <trkpt lat="47.164745" lon="13.476370">
 <ele>1260.23</ele>
 <time>2010-09-02T11:35:02Z</time>
 </trkpt>
 <trkpt lat="47.164646" lon="13.476543">
 <ele>1260.20</ele>
 <time>2010-09-02T11:35:04Z</time>
 </trkpt>
 <trkpt lat="47.164295" lon="13.476911">
 <ele>1260.43</ele>
 <time>2010-09-02T11:35:10Z</time>
 </trkpt>
 <trkpt lat="47.164047" lon="13.477260">
 <ele>1261.37</ele>
 <time>2010-09-02T11:35:15Z</time>
 </trkpt>
 <trkpt lat="47.163918" lon="13.477479">
 <ele>1261.40</ele>
 <time>2010-09-02T11:35:18Z</time>
 </trkpt>
 <trkpt lat="47.163841" lon="13.477831">
 <ele>1261.12</ele>
 <time>2010-09-02T11:35:22Z</time>
 </trkpt>
 <trkpt lat="47.163841" lon="13.477929">
 <ele>1260.78</ele>
 <time>2010-09-02T11:35:23Z</time>
 </trkpt>
 <trkpt lat="47.163811" lon="13.478741">
 <ele>1258.63</ele>
 <time>2010-09-02T11:35:31Z</time>
 </trkpt>
 <trkpt lat="47.163750" lon="13.479574">
 <ele>1258.37</ele>
 <time>2010-09-02T11:35:39Z</time>
 </trkpt>
 <trkpt lat="47.163689" lon="13.479869">
 <ele>1258.40</ele>
 <time>2010-09-02T11:35:42Z</time>
 </trkpt>
 <trkpt lat="47.163479" lon="13.480385">
 <ele>1258.73</ele>
 <time>2010-09-02T11:35:48Z</time>
 </trkpt>
 <trkpt lat="47.163254" lon="13.480866">
 <ele>1259.05</ele>
 <time>2010-09-02T11:35:54Z</time>
 </trkpt>
 <trkpt lat="47.163025" lon="13.481400">
 <ele>1259.32</ele>
 <time>2010-09-02T11:36:01Z</time>
 </trkpt>
 <trkpt lat="47.162701" lon="13.482004">
 <ele>1260.46</ele>
 <time>2010-09-02T11:36:10Z</time>
 </trkpt>
 <trkpt lat="47.162437" lon="13.482464">
 <ele>1258.72</ele>
 <time>2010-09-02T11:36:16Z</time>
 </trkpt>
 <trkpt lat="47.162109" lon="13.483153">
 <ele>1255.21</ele>
 <time>2010-09-02T11:36:23Z</time>
 </trkpt>
 <trkpt lat="47.161674" lon="13.484203">
 <ele>1253.18</ele>
 <time>2010-09-02T11:36:33Z</time>
 </trkpt>
 <trkpt lat="47.161373" lon="13.485056">
 <ele>1252.11</ele>
 <time>2010-09-02T11:36:41Z</time>
 </trkpt>
 <trkpt lat="47.161152" lon="13.485900">
 <ele>1251.38</ele>
 <time>2010-09-02T11:36:49Z</time>
 </trkpt>
 <trkpt lat="47.160885" lon="13.486418">
 <ele>1250.95</ele>
 <time>2010-09-02T11:36:55Z</time>
 </trkpt>
 <trkpt lat="47.160599" lon="13.487044">
 <ele>1250.41</ele>
 <time>2010-09-02T11:37:02Z</time>
 </trkpt>
 <trkpt lat="47.160343" lon="13.487798">
 <ele>1250.29</ele>
 <time>2010-09-02T11:37:10Z</time>
 </trkpt>
 <trkpt lat="47.160236" lon="13.488620">
 <ele>1249.96</ele>
 <time>2010-09-02T11:37:18Z</time>
 </trkpt>
 <trkpt lat="47.160179" lon="13.489564">
 <ele>1249.71</ele>
 <time>2010-09-02T11:37:27Z</time>
 </trkpt>
 <trkpt lat="47.160152" lon="13.489837">
 <ele>1249.69</ele>
 <time>2010-09-02T11:37:30Z</time>
 </trkpt>
 <trkpt lat="47.160000" lon="13.490308">
 <ele>1249.49</ele>
 <time>2010-09-02T11:37:36Z</time>
 </trkpt>
 <trkpt lat="47.159824" lon="13.490659">
 <ele>1249.65</ele>
 <time>2010-09-02T11:37:42Z</time>
 </trkpt>
 <trkpt lat="47.159786" lon="13.490795">
 <ele>1250.44</ele>
 <time>2010-09-02T11:37:46Z</time>
 </trkpt>
 <trkpt lat="47.159775" lon="13.490854">
 <ele>1250.82</ele>
 <time>2010-09-02T11:37:51Z</time>
 </trkpt>
 <trkpt lat="47.159805" lon="13.490750">
 <ele>1250.62</ele>
 <time>2010-09-02T11:39:08Z</time>
 </trkpt>
 <trkpt lat="47.159756" lon="13.490733">
 <ele>1250.77</ele>
 <time>2010-09-02T11:39:10Z</time>
 </trkpt>
 <trkpt lat="47.159580" lon="13.490716">
 <ele>1250.35</ele>
 <time>2010-09-02T11:39:15Z</time>
 </trkpt>
 <trkpt lat="47.159451" lon="13.490875">
 <ele>1250.29</ele>
 <time>2010-09-02T11:39:19Z</time>
 </trkpt>
 <trkpt lat="47.159172" lon="13.491455">
 <ele>1249.45</ele>
 <time>2010-09-02T11:39:28Z</time>
 </trkpt>
 <trkpt lat="47.158955" lon="13.491973">
 <ele>1249.80</ele>
 <time>2010-09-02T11:39:35Z</time>
 </trkpt>
 <trkpt lat="47.158775" lon="13.492637">
 <ele>1248.23</ele>
 <time>2010-09-02T11:39:42Z</time>
 </trkpt>
 <trkpt lat="47.158585" lon="13.493329">
 <ele>1245.76</ele>
 <time>2010-09-02T11:39:48Z</time>
 </trkpt>
 <trkpt lat="47.158283" lon="13.494452">
 <ele>1242.07</ele>
 <time>2010-09-02T11:39:57Z</time>
 </trkpt>
 <trkpt lat="47.158173" lon="13.494924">
 <ele>1241.54</ele>
 <time>2010-09-02T11:40:01Z</time>
 </trkpt>
 <trkpt lat="47.158146" lon="13.495504">
 <ele>1242.24</ele>
 <time>2010-09-02T11:40:06Z</time>
 </trkpt>
 <trkpt lat="47.158195" lon="13.496090">
 <ele>1241.75</ele>
 <time>2010-09-02T11:40:11Z</time>
 </trkpt>
 <trkpt lat="47.158096" lon="13.496850">
 <ele>1240.05</ele>
 <time>2010-09-02T11:40:17Z</time>
 </trkpt>
 <trkpt lat="47.157894" lon="13.497444">
 <ele>1239.01</ele>
 <time>2010-09-02T11:40:22Z</time>
 </trkpt>
 <trkpt lat="47.157440" lon="13.498674">
 <ele>1237.52</ele>
 <time>2010-09-02T11:40:33Z</time>
 </trkpt>
 <trkpt lat="47.156998" lon="13.499896">
 <ele>1236.54</ele>
 <time>2010-09-02T11:40:44Z</time>
 </trkpt>
 <trkpt lat="47.156498" lon="13.501274">
 <ele>1236.93</ele>
 <time>2010-09-02T11:40:57Z</time>
 </trkpt>
 <trkpt lat="47.156269" lon="13.501705">
 <ele>1237.55</ele>
 <time>2010-09-02T11:41:02Z</time>
 </trkpt>
 <trkpt lat="47.155952" lon="13.502071">
 <ele>1238.96</ele>
 <time>2010-09-02T11:41:08Z</time>
 </trkpt>
 <trkpt lat="47.155502" lon="13.502545">
 <ele>1241.03</ele>
 <time>2010-09-02T11:41:17Z</time>
 </trkpt>
 <trkpt lat="47.155209" lon="13.503020">
 <ele>1241.33</ele>
 <time>2010-09-02T11:41:24Z</time>
 </trkpt>
 <trkpt lat="47.154888" lon="13.503767">
 <ele>1240.74</ele>
 <time>2010-09-02T11:41:33Z</time>
 </trkpt>
 <trkpt lat="47.154587" lon="13.504411">
 <ele>1239.76</ele>
 <time>2010-09-02T11:41:41Z</time>
 </trkpt>
 <trkpt lat="47.154213" lon="13.505002">
 <ele>1238.71</ele>
 <time>2010-09-02T11:41:49Z</time>
 </trkpt>
 <trkpt lat="47.153790" lon="13.505637">
 <ele>1236.21</ele>
 <time>2010-09-02T11:41:57Z</time>
 </trkpt>
 <trkpt lat="47.153683" lon="13.505816">
 <ele>1236.00</ele>
 <time>2010-09-02T11:41:59Z</time>
 </trkpt>
 <trkpt lat="47.153366" lon="13.506323">
 <ele>1235.08</ele>
 <time>2010-09-02T11:42:05Z</time>
 </trkpt>
 <trkpt lat="47.153324" lon="13.506417">
 <ele>1234.77</ele>
 <time>2010-09-02T11:42:06Z</time>
 </trkpt>
 <trkpt lat="47.153053" lon="13.506908">
 <ele>1234.85</ele>
 <time>2010-09-02T11:42:12Z</time>
 </trkpt>
 <trkpt lat="47.152672" lon="13.507292">
 <ele>1235.55</ele>
 <time>2010-09-02T11:42:19Z</time>
 </trkpt>
 <trkpt lat="47.152420" lon="13.507521">
 <ele>1235.23</ele>
 <time>2010-09-02T11:42:23Z</time>
 </trkpt>
 <trkpt lat="47.152084" lon="13.508061">
 <ele>1228.10</ele>
 <time>2010-09-02T11:42:28Z</time>
 </trkpt>
 <trkpt lat="47.151733" lon="13.508754">
 <ele>1220.08</ele>
 <time>2010-09-02T11:42:33Z</time>
 </trkpt>
 <trkpt lat="47.151562" lon="13.509154">
 <ele>1217.91</ele>
 <time>2010-09-02T11:42:36Z</time>
 </trkpt>
 <trkpt lat="47.151295" lon="13.509613">
 <ele>1216.22</ele>
 <time>2010-09-02T11:42:40Z</time>
 </trkpt>
 <trkpt lat="47.151089" lon="13.509940">
 <ele>1214.99</ele>
 <time>2010-09-02T11:42:43Z</time>
 </trkpt>
 <trkpt lat="47.150780" lon="13.510509">
 <ele>1213.10</ele>
 <time>2010-09-02T11:42:48Z</time>
 </trkpt>
 <trkpt lat="47.150486" lon="13.510796">
 <ele>1212.64</ele>
 <time>2010-09-02T11:42:52Z</time>
 </trkpt>
 <trkpt lat="47.149948" lon="13.511124">
 <ele>1212.37</ele>
 <time>2010-09-02T11:42:59Z</time>
 </trkpt>
 <trkpt lat="47.149635" lon="13.511478">
 <ele>1211.68</ele>
 <time>2010-09-02T11:43:04Z</time>
 </trkpt>
 <trkpt lat="47.149345" lon="13.512028">
 <ele>1211.43</ele>
 <time>2010-09-02T11:43:10Z</time>
 </trkpt>
 <trkpt lat="47.149246" lon="13.512253">
 <ele>1211.49</ele>
 <time>2010-09-02T11:43:13Z</time>
 </trkpt>
 <trkpt lat="47.149075" lon="13.512691">
 <ele>1210.97</ele>
 <time>2010-09-02T11:43:20Z</time>
 </trkpt>
 <trkpt lat="47.148876" lon="13.513199">
 <ele>1210.17</ele>
 <time>2010-09-02T11:43:26Z</time>
 </trkpt>
 <trkpt lat="47.148769" lon="13.513719">
 <ele>1208.92</ele>
 <time>2010-09-02T11:43:31Z</time>
 </trkpt>
 <trkpt lat="47.148586" lon="13.514649">
 <ele>1206.98</ele>
 <time>2010-09-02T11:43:39Z</time>
 </trkpt>
 <trkpt lat="47.148560" lon="13.514769">
 <ele>1206.67</ele>
 <time>2010-09-02T11:43:40Z</time>
 </trkpt>
 <trkpt lat="47.148354" lon="13.515159">
 <ele>1205.71</ele>
 <time>2010-09-02T11:43:44Z</time>
 </trkpt>
 <trkpt lat="47.148281" lon="13.515229">
 <ele>1205.41</ele>
 <time>2010-09-02T11:43:45Z</time>
 </trkpt>
 <trkpt lat="47.148144" lon="13.515361">
 <ele>1205.29</ele>
 <time>2010-09-02T11:43:47Z</time>
 </trkpt>
 <trkpt lat="47.147942" lon="13.515717">
 <ele>1205.32</ele>
 <time>2010-09-02T11:43:51Z</time>
 </trkpt>
 <trkpt lat="47.147854" lon="13.516167">
 <ele>1204.89</ele>
 <time>2010-09-02T11:43:55Z</time>
 </trkpt>
 <trkpt lat="47.147743" lon="13.516956">
 <ele>1204.44</ele>
 <time>2010-09-02T11:44:02Z</time>
 </trkpt>
 <trkpt lat="47.147579" lon="13.517475">
 <ele>1204.34</ele>
 <time>2010-09-02T11:44:07Z</time>
 </trkpt>
 <trkpt lat="47.147236" lon="13.518120">
 <ele>1203.42</ele>
 <time>2010-09-02T11:44:14Z</time>
 </trkpt>
 <trkpt lat="47.146835" lon="13.518853">
 <ele>1202.31</ele>
 <time>2010-09-02T11:44:22Z</time>
 </trkpt>
 <trkpt lat="47.146591" lon="13.519243">
 <ele>1201.09</ele>
 <time>2010-09-02T11:44:27Z</time>
 </trkpt>
 <trkpt lat="47.146580" lon="13.519310">
 <ele>1201.01</ele>
 <time>2010-09-02T11:44:28Z</time>
 </trkpt>
 <trkpt lat="47.146313" lon="13.519299">
 <ele>1201.50</ele>
 <time>2010-09-02T11:44:31Z</time>
 </trkpt>
 <trkpt lat="47.145782" lon="13.519355">
 <ele>1200.71</ele>
 <time>2010-09-02T11:44:37Z</time>
 </trkpt>
 <trkpt lat="47.145634" lon="13.519413">
 <ele>1200.61</ele>
 <time>2010-09-02T11:44:39Z</time>
 </trkpt>
 <trkpt lat="47.145329" lon="13.519702">
 <ele>1200.84</ele>
 <time>2010-09-02T11:44:44Z</time>
 </trkpt>
 <trkpt lat="47.144665" lon="13.520657">
 <ele>1199.14</ele>
 <time>2010-09-02T11:44:56Z</time>
 </trkpt>
 <trkpt lat="47.144279" lon="13.521156">
 <ele>1197.27</ele>
 <time>2010-09-02T11:45:02Z</time>
 </trkpt>
 <trkpt lat="47.143848" lon="13.521386">
 <ele>1195.35</ele>
 <time>2010-09-02T11:45:07Z</time>
 </trkpt>
 <trkpt lat="47.143353" lon="13.521596">
 <ele>1194.96</ele>
 <time>2010-09-02T11:45:13Z</time>
 </trkpt>
 <trkpt lat="47.143002" lon="13.521925">
 <ele>1194.67</ele>
 <time>2010-09-02T11:45:18Z</time>
 </trkpt>
 <trkpt lat="47.142624" lon="13.522414">
 <ele>1194.81</ele>
 <time>2010-09-02T11:45:24Z</time>
 </trkpt>
 <trkpt lat="47.142216" lon="13.523086">
 <ele>1193.63</ele>
 <time>2010-09-02T11:45:31Z</time>
 </trkpt>
 <trkpt lat="47.141762" lon="13.523967">
 <ele>1191.79</ele>
 <time>2010-09-02T11:45:40Z</time>
 </trkpt>
 <trkpt lat="47.141556" lon="13.524867">
 <ele>1191.35</ele>
 <time>2010-09-02T11:45:48Z</time>
 </trkpt>
 <trkpt lat="47.141418" lon="13.525617">
 <ele>1192.39</ele>
 <time>2010-09-02T11:45:55Z</time>
 </trkpt>
 <trkpt lat="47.141281" lon="13.526297">
 <ele>1193.54</ele>
 <time>2010-09-02T11:46:02Z</time>
 </trkpt>
 <trkpt lat="47.141041" lon="13.527068">
 <ele>1193.06</ele>
 <time>2010-09-02T11:46:10Z</time>
 </trkpt>
 <trkpt lat="47.140781" lon="13.527829">
 <ele>1190.09</ele>
 <time>2010-09-02T11:46:17Z</time>
 </trkpt>
 <trkpt lat="47.140545" lon="13.528558">
 <ele>1186.86</ele>
 <time>2010-09-02T11:46:23Z</time>
 </trkpt>
 <trkpt lat="47.140461" lon="13.529100">
 <ele>1185.50</ele>
 <time>2010-09-02T11:46:27Z</time>
 </trkpt>
 <trkpt lat="47.140537" lon="13.530114">
 <ele>1184.10</ele>
 <time>2010-09-02T11:46:35Z</time>
 </trkpt>
 <trkpt lat="47.140705" lon="13.530581">
 <ele>1183.49</ele>
 <time>2010-09-02T11:46:38Z</time>
 </trkpt>
 <trkpt lat="47.140530" lon="13.531073">
 <ele>1182.78</ele>
 <time>2010-09-02T11:46:42Z</time>
 </trkpt>
 <trkpt lat="47.140350" lon="13.531489">
 <ele>1182.05</ele>
 <time>2010-09-02T11:46:46Z</time>
 </trkpt>
 <trkpt lat="47.140293" lon="13.531576">
 <ele>1181.72</ele>
 <time>2010-09-02T11:46:47Z</time>
 </trkpt>
 <trkpt lat="47.139946" lon="13.532193">
 <ele>1182.18</ele>
 <time>2010-09-02T11:46:54Z</time>
 </trkpt>
 <trkpt lat="47.139599" lon="13.532998">
 <ele>1181.27</ele>
 <time>2010-09-02T11:47:02Z</time>
 </trkpt>
 <trkpt lat="47.139359" lon="13.533649">
 <ele>1179.49</ele>
 <time>2010-09-02T11:47:08Z</time>
 </trkpt>
 <trkpt lat="47.139084" lon="13.534431">
 <ele>1177.83</ele>
 <time>2010-09-02T11:47:15Z</time>
 </trkpt>
 <trkpt lat="47.139030" lon="13.534542">
 <ele>1177.51</ele>
 <time>2010-09-02T11:47:16Z</time>
 </trkpt>
 <trkpt lat="47.138695" lon="13.534957">
 <ele>1176.66</ele>
 <time>2010-09-02T11:47:21Z</time>
 </trkpt>
 <trkpt lat="47.138611" lon="13.535007">
 <ele>1176.63</ele>
 <time>2010-09-02T11:47:22Z</time>
 </trkpt>
 <trkpt lat="47.138119" lon="13.535307">
 <ele>1176.02</ele>
 <time>2010-09-02T11:47:27Z</time>
 </trkpt>
 <trkpt lat="47.138039" lon="13.535370">
 <ele>1175.85</ele>
 <time>2010-09-02T11:47:28Z</time>
 </trkpt>
 <trkpt lat="47.137779" lon="13.535723">
 <ele>1174.58</ele>
 <time>2010-09-02T11:47:32Z</time>
 </trkpt>
 <trkpt lat="47.137192" lon="13.536838">
 <ele>1172.96</ele>
 <time>2010-09-02T11:47:43Z</time>
 </trkpt>
 <trkpt lat="47.136845" lon="13.537389">
 <ele>1173.21</ele>
 <time>2010-09-02T11:47:49Z</time>
 </trkpt>
 <trkpt lat="47.136795" lon="13.537493">
 <ele>1173.02</ele>
 <time>2010-09-02T11:47:50Z</time>
 </trkpt>
 <trkpt lat="47.136650" lon="13.538080">
 <ele>1171.81</ele>
 <time>2010-09-02T11:47:55Z</time>
 </trkpt>
 <trkpt lat="47.136574" lon="13.538557">
 <ele>1171.16</ele>
 <time>2010-09-02T11:47:59Z</time>
 </trkpt>
 <trkpt lat="47.136383" lon="13.538957">
 <ele>1170.22</ele>
 <time>2010-09-02T11:48:03Z</time>
 </trkpt>
 <trkpt lat="47.136318" lon="13.539042">
 <ele>1170.06</ele>
 <time>2010-09-02T11:48:04Z</time>
 </trkpt>
 <trkpt lat="47.135674" lon="13.539838">
 <ele>1167.99</ele>
 <time>2010-09-02T11:48:14Z</time>
 </trkpt>
 <trkpt lat="47.135368" lon="13.540410">
 <ele>1167.71</ele>
 <time>2010-09-02T11:48:20Z</time>
 </trkpt>
 <trkpt lat="47.135101" lon="13.541023">
 <ele>1166.68</ele>
 <time>2010-09-02T11:48:26Z</time>
 </trkpt>
 <trkpt lat="47.134682" lon="13.541605">
 <ele>1166.14</ele>
 <time>2010-09-02T11:48:33Z</time>
 </trkpt>
 <trkpt lat="47.134159" lon="13.542360">
 <ele>1164.97</ele>
 <time>2010-09-02T11:48:42Z</time>
 </trkpt>
 <trkpt lat="47.133987" lon="13.542835">
 <ele>1165.88</ele>
 <time>2010-09-02T11:48:47Z</time>
 </trkpt>
 <trkpt lat="47.133850" lon="13.543464">
 <ele>1167.93</ele>
 <time>2010-09-02T11:48:54Z</time>
 </trkpt>
 <trkpt lat="47.133682" lon="13.544079">
 <ele>1169.10</ele>
 <time>2010-09-02T11:49:01Z</time>
 </trkpt>
 <trkpt lat="47.133427" lon="13.544548">
 <ele>1168.08</ele>
 <time>2010-09-02T11:49:07Z</time>
 </trkpt>
 <trkpt lat="47.133003" lon="13.545254">
 <ele>1167.09</ele>
 <time>2010-09-02T11:49:16Z</time>
 </trkpt>
 <trkpt lat="47.132793" lon="13.545792">
 <ele>1167.36</ele>
 <time>2010-09-02T11:49:22Z</time>
 </trkpt>
 <trkpt lat="47.132591" lon="13.546313">
 <ele>1167.69</ele>
 <time>2010-09-02T11:49:28Z</time>
 </trkpt>
 <trkpt lat="47.132343" lon="13.546610">
 <ele>1168.18</ele>
 <time>2010-09-02T11:49:33Z</time>
 </trkpt>
 <trkpt lat="47.131828" lon="13.546967">
 <ele>1169.34</ele>
 <time>2010-09-02T11:49:43Z</time>
 </trkpt>
 <trkpt lat="47.131393" lon="13.547295">
 <ele>1170.19</ele>
 <time>2010-09-02T11:49:52Z</time>
 </trkpt>
 <trkpt lat="47.130848" lon="13.547813">
 <ele>1170.67</ele>
 <time>2010-09-02T11:50:03Z</time>
 </trkpt>
 <trkpt lat="47.130371" lon="13.548296">
 <ele>1169.89</ele>
 <time>2010-09-02T11:50:12Z</time>
 </trkpt>
 <trkpt lat="47.129959" lon="13.548619">
 <ele>1168.51</ele>
 <time>2010-09-02T11:50:18Z</time>
 </trkpt>
 <trkpt lat="47.129406" lon="13.549019">
 <ele>1164.54</ele>
 <time>2010-09-02T11:50:25Z</time>
 </trkpt>
 <trkpt lat="47.129025" lon="13.549458">
 <ele>1160.64</ele>
 <time>2010-09-02T11:50:30Z</time>
 </trkpt>
 <trkpt lat="47.128784" lon="13.549942">
 <ele>1158.09</ele>
 <time>2010-09-02T11:50:34Z</time>
 </trkpt>
 <trkpt lat="47.128590" lon="13.550654">
 <ele>1155.68</ele>
 <time>2010-09-02T11:50:39Z</time>
 </trkpt>
 <trkpt lat="47.128353" lon="13.551450">
 <ele>1155.24</ele>
 <time>2010-09-02T11:50:45Z</time>
 </trkpt>
 <trkpt lat="47.128044" lon="13.552247">
 <ele>1155.88</ele>
 <time>2010-09-02T11:50:52Z</time>
 </trkpt>
 <trkpt lat="47.127853" lon="13.552974">
 <ele>1155.43</ele>
 <time>2010-09-02T11:50:58Z</time>
 </trkpt>
 <trkpt lat="47.127766" lon="13.553821">
 <ele>1152.25</ele>
 <time>2010-09-02T11:51:04Z</time>
 </trkpt>
 <trkpt lat="47.127712" lon="13.554837">
 <ele>1151.82</ele>
 <time>2010-09-02T11:51:11Z</time>
 </trkpt>
 <trkpt lat="47.127617" lon="13.555664">
 <ele>1151.35</ele>
 <time>2010-09-02T11:51:17Z</time>
 </trkpt>
 <trkpt lat="47.127480" lon="13.556306">
 <ele>1151.77</ele>
 <time>2010-09-02T11:51:22Z</time>
 </trkpt>
 <trkpt lat="47.127171" lon="13.557276">
 <ele>1150.35</ele>
 <time>2010-09-02T11:51:30Z</time>
 </trkpt>
 <trkpt lat="47.126842" lon="13.557917">
 <ele>1149.67</ele>
 <time>2010-09-02T11:51:36Z</time>
 </trkpt>
 <trkpt lat="47.126503" lon="13.558300">
 <ele>1149.56</ele>
 <time>2010-09-02T11:51:41Z</time>
 </trkpt>
 <trkpt lat="47.125912" lon="13.558947">
 <ele>1149.56</ele>
 <time>2010-09-02T11:51:50Z</time>
 </trkpt>
 <trkpt lat="47.125572" lon="13.559456">
 <ele>1149.66</ele>
 <time>2010-09-02T11:51:56Z</time>
 </trkpt>
 <trkpt lat="47.125340" lon="13.559946">
 <ele>1149.88</ele>
 <time>2010-09-02T11:52:01Z</time>
 </trkpt>
 <trkpt lat="47.125015" lon="13.560889">
 <ele>1149.86</ele>
 <time>2010-09-02T11:52:10Z</time>
 </trkpt>
 <trkpt lat="47.124733" lon="13.561577">
 <ele>1149.53</ele>
 <time>2010-09-02T11:52:17Z</time>
 </trkpt>
 <trkpt lat="47.124340" lon="13.562244">
 <ele>1147.15</ele>
 <time>2010-09-02T11:52:24Z</time>
 </trkpt>
 <trkpt lat="47.124214" lon="13.562452">
 <ele>1145.83</ele>
 <time>2010-09-02T11:52:26Z</time>
 </trkpt>
 <trkpt lat="47.124100" lon="13.562978">
 <ele>1142.84</ele>
 <time>2010-09-02T11:52:30Z</time>
 </trkpt>
 <trkpt lat="47.124184" lon="13.563359">
 <ele>1141.21</ele>
 <time>2010-09-02T11:52:33Z</time>
 </trkpt>
 <trkpt lat="47.124241" lon="13.563463">
 <ele>1140.89</ele>
 <time>2010-09-02T11:52:34Z</time>
 </trkpt>
 <trkpt lat="47.124348" lon="13.563659">
 <ele>1140.32</ele>
 <time>2010-09-02T11:52:36Z</time>
 </trkpt>
 <trkpt lat="47.124546" lon="13.563959">
 <ele>1138.94</ele>
 <time>2010-09-02T11:52:39Z</time>
 </trkpt>
 <trkpt lat="47.124847" lon="13.564324">
 <ele>1138.96</ele>
 <time>2010-09-02T11:52:43Z</time>
 </trkpt>
 <trkpt lat="47.124969" lon="13.564759">
 <ele>1138.69</ele>
 <time>2010-09-02T11:52:47Z</time>
 </trkpt>
 <trkpt lat="47.124847" lon="13.565081">
 <ele>1137.81</ele>
 <time>2010-09-02T11:52:50Z</time>
 </trkpt>
 <trkpt lat="47.124786" lon="13.565171">
 <ele>1137.54</ele>
 <time>2010-09-02T11:52:51Z</time>
 </trkpt>
 <trkpt lat="47.124203" lon="13.565856">
 <ele>1136.31</ele>
 <time>2010-09-02T11:53:00Z</time>
 </trkpt>
 <trkpt lat="47.123878" lon="13.566360">
 <ele>1136.82</ele>
 <time>2010-09-02T11:53:06Z</time>
 </trkpt>
 <trkpt lat="47.123623" lon="13.566986">
 <ele>1135.12</ele>
 <time>2010-09-02T11:53:12Z</time>
 </trkpt>
 <trkpt lat="47.123497" lon="13.567705">
 <ele>1133.93</ele>
 <time>2010-09-02T11:53:18Z</time>
 </trkpt>
 <trkpt lat="47.123211" lon="13.568832">
 <ele>1133.35</ele>
 <time>2010-09-02T11:53:28Z</time>
 </trkpt>
 <trkpt lat="47.123104" lon="13.569152">
 <ele>1132.64</ele>
 <time>2010-09-02T11:53:31Z</time>
 </trkpt>
 <trkpt lat="47.122810" lon="13.569568">
 <ele>1132.35</ele>
 <time>2010-09-02T11:53:36Z</time>
 </trkpt>
 <trkpt lat="47.122574" lon="13.569715">
 <ele>1132.20</ele>
 <time>2010-09-02T11:53:39Z</time>
 </trkpt>
 <trkpt lat="47.122250" lon="13.569883">
 <ele>1131.95</ele>
 <time>2010-09-02T11:53:43Z</time>
 </trkpt>
 <trkpt lat="47.121914" lon="13.570255">
 <ele>1131.13</ele>
 <time>2010-09-02T11:53:48Z</time>
 </trkpt>
 <trkpt lat="47.121819" lon="13.570459">
 <ele>1131.42</ele>
 <time>2010-09-02T11:53:50Z</time>
 </trkpt>
 <trkpt lat="47.121487" lon="13.571475">
 <ele>1131.81</ele>
 <time>2010-09-02T11:53:59Z</time>
 </trkpt>
 <trkpt lat="47.121113" lon="13.572721">
 <ele>1130.95</ele>
 <time>2010-09-02T11:54:10Z</time>
 </trkpt>
 <trkpt lat="47.120785" lon="13.573751">
 <ele>1130.03</ele>
 <time>2010-09-02T11:54:19Z</time>
 </trkpt>
 <trkpt lat="47.120449" lon="13.574330">
 <ele>1129.13</ele>
 <time>2010-09-02T11:54:25Z</time>
 </trkpt>
 <trkpt lat="47.120022" lon="13.574758">
 <ele>1128.70</ele>
 <time>2010-09-02T11:54:31Z</time>
 </trkpt>
 <trkpt lat="47.119534" lon="13.575018">
 <ele>1127.05</ele>
 <time>2010-09-02T11:54:37Z</time>
 </trkpt>
 <trkpt lat="47.119026" lon="13.575098">
 <ele>1126.24</ele>
 <time>2010-09-02T11:54:43Z</time>
 </trkpt>
 <trkpt lat="47.118309" lon="13.575179">
 <ele>1125.85</ele>
 <time>2010-09-02T11:54:52Z</time>
 </trkpt>
 <trkpt lat="47.118153" lon="13.575221">
 <ele>1126.00</ele>
 <time>2010-09-02T11:54:54Z</time>
 </trkpt>
 <trkpt lat="47.117882" lon="13.575455">
 <ele>1125.80</ele>
 <time>2010-09-02T11:54:58Z</time>
 </trkpt>
 <trkpt lat="47.117493" lon="13.576160">
 <ele>1125.61</ele>
 <time>2010-09-02T11:55:06Z</time>
 </trkpt>
 <trkpt lat="47.117146" lon="13.577024">
 <ele>1126.06</ele>
 <time>2010-09-02T11:55:15Z</time>
 </trkpt>
 <trkpt lat="47.116920" lon="13.577842">
 <ele>1125.48</ele>
 <time>2010-09-02T11:55:23Z</time>
 </trkpt>
 <trkpt lat="47.116608" lon="13.579141">
 <ele>1126.49</ele>
 <time>2010-09-02T11:55:36Z</time>
 </trkpt>
 <trkpt lat="47.116409" lon="13.579656">
 <ele>1127.02</ele>
 <time>2010-09-02T11:55:42Z</time>
 </trkpt>
 <trkpt lat="47.116146" lon="13.579983">
 <ele>1126.82</ele>
 <time>2010-09-02T11:55:47Z</time>
 </trkpt>
 <trkpt lat="47.115665" lon="13.580385">
 <ele>1124.46</ele>
 <time>2010-09-02T11:55:54Z</time>
 </trkpt>
 <trkpt lat="47.115044" lon="13.580916">
 <ele>1121.07</ele>
 <time>2010-09-02T11:56:02Z</time>
 </trkpt>
 <trkpt lat="47.114578" lon="13.581401">
 <ele>1119.73</ele>
 <time>2010-09-02T11:56:08Z</time>
 </trkpt>
 <trkpt lat="47.114273" lon="13.581940">
 <ele>1118.92</ele>
 <time>2010-09-02T11:56:13Z</time>
 </trkpt>
 <trkpt lat="47.113800" lon="13.583136">
 <ele>1117.35</ele>
 <time>2010-09-02T11:56:23Z</time>
 </trkpt>
 <trkpt lat="47.113297" lon="13.584408">
 <ele>1115.34</ele>
 <time>2010-09-02T11:56:34Z</time>
 </trkpt>
 <trkpt lat="47.112946" lon="13.585136">
 <ele>1115.30</ele>
 <time>2010-09-02T11:56:41Z</time>
 </trkpt>
 <trkpt lat="47.112564" lon="13.585660">
 <ele>1114.80</ele>
 <time>2010-09-02T11:56:47Z</time>
 </trkpt>
 <trkpt lat="47.111843" lon="13.586497">
 <ele>1114.37</ele>
 <time>2010-09-02T11:56:58Z</time>
 </trkpt>
 <trkpt lat="47.111069" lon="13.587232">
 <ele>1113.53</ele>
 <time>2010-09-02T11:57:09Z</time>
 </trkpt>
 <trkpt lat="47.110298" lon="13.587851">
 <ele>1112.17</ele>
 <time>2010-09-02T11:57:19Z</time>
 </trkpt>
 <trkpt lat="47.109566" lon="13.588466">
 <ele>1111.41</ele>
 <time>2010-09-02T11:57:29Z</time>
 </trkpt>
 <trkpt lat="47.109169" lon="13.588927">
 <ele>1110.93</ele>
 <time>2010-09-02T11:57:35Z</time>
 </trkpt>
 <trkpt lat="47.108711" lon="13.589656">
 <ele>1110.46</ele>
 <time>2010-09-02T11:57:43Z</time>
 </trkpt>
 <trkpt lat="47.108219" lon="13.590631">
 <ele>1109.31</ele>
 <time>2010-09-02T11:57:53Z</time>
 </trkpt>
 <trkpt lat="47.107731" lon="13.591546">
 <ele>1109.48</ele>
 <time>2010-09-02T11:58:03Z</time>
 </trkpt>
 <trkpt lat="47.107311" lon="13.592086">
 <ele>1109.43</ele>
 <time>2010-09-02T11:58:10Z</time>
 </trkpt>
 <trkpt lat="47.106762" lon="13.592595">
 <ele>1108.83</ele>
 <time>2010-09-02T11:58:18Z</time>
 </trkpt>
 <trkpt lat="47.106129" lon="13.592975">
 <ele>1107.28</ele>
 <time>2010-09-02T11:58:26Z</time>
 </trkpt>
 <trkpt lat="47.105270" lon="13.593439">
 <ele>1107.29</ele>
 <time>2010-09-02T11:58:37Z</time>
 </trkpt>
 <trkpt lat="47.104862" lon="13.593774">
 <ele>1107.31</ele>
 <time>2010-09-02T11:58:43Z</time>
 </trkpt>
 <trkpt lat="47.104485" lon="13.594230">
 <ele>1106.30</ele>
 <time>2010-09-02T11:58:49Z</time>
 </trkpt>
 <trkpt lat="47.103951" lon="13.594812">
 <ele>1102.22</ele>
 <time>2010-09-02T11:58:56Z</time>
 </trkpt>
 <trkpt lat="47.103542" lon="13.595344">
 <ele>1101.02</ele>
 <time>2010-09-02T11:59:02Z</time>
 </trkpt>
 <trkpt lat="47.103088" lon="13.595927">
 <ele>1100.31</ele>
 <time>2010-09-02T11:59:09Z</time>
 </trkpt>
 <trkpt lat="47.102524" lon="13.596626">
 <ele>1099.60</ele>
 <time>2010-09-02T11:59:18Z</time>
 </trkpt>
 <trkpt lat="47.101799" lon="13.597404">
 <ele>1098.91</ele>
 <time>2010-09-02T11:59:29Z</time>
 </trkpt>
 <trkpt lat="47.101093" lon="13.598050">
 <ele>1098.13</ele>
 <time>2010-09-02T11:59:39Z</time>
 </trkpt>
 <trkpt lat="47.100269" lon="13.598850">
 <ele>1097.03</ele>
 <time>2010-09-02T11:59:51Z</time>
 </trkpt>
 <trkpt lat="47.099712" lon="13.599528">
 <ele>1096.67</ele>
 <time>2010-09-02T12:00:00Z</time>
 </trkpt>
 <trkpt lat="47.099220" lon="13.600239">
 <ele>1096.21</ele>
 <time>2010-09-02T12:00:09Z</time>
 </trkpt>
 <trkpt lat="47.099091" lon="13.600449">
 <ele>1096.46</ele>
 <time>2010-09-02T12:00:12Z</time>
 </trkpt>
 <trkpt lat="47.098885" lon="13.600589">
 <ele>1096.93</ele>
 <time>2010-09-02T12:00:17Z</time>
 </trkpt>
 <trkpt lat="47.098698" lon="13.600527">
 <ele>1096.87</ele>
 <time>2010-09-02T12:00:21Z</time>
 </trkpt>
 <trkpt lat="47.098656" lon="13.600489">
 <ele>1096.95</ele>
 <time>2010-09-02T12:00:22Z</time>
 </trkpt>
 <trkpt lat="47.098240" lon="13.600022">
 <ele>1097.02</ele>
 <time>2010-09-02T12:00:32Z</time>
 </trkpt>
 <trkpt lat="47.097958" lon="13.599670">
 <ele>1097.30</ele>
 <time>2010-09-02T12:00:39Z</time>
 </trkpt>
 <trkpt lat="47.097591" lon="13.599233">
 <ele>1097.99</ele>
 <time>2010-09-02T12:00:48Z</time>
 </trkpt>
 <trkpt lat="47.097191" lon="13.598786">
 <ele>1098.94</ele>
 <time>2010-09-02T12:00:58Z</time>
 </trkpt>
 <trkpt lat="47.096794" lon="13.598476">
 <ele>1099.46</ele>
 <time>2010-09-02T12:01:07Z</time>
 </trkpt>
 <trkpt lat="47.096355" lon="13.598271">
 <ele>1099.80</ele>
 <time>2010-09-02T12:01:16Z</time>
 </trkpt>
 <trkpt lat="47.095993" lon="13.598193">
 <ele>1100.13</ele>
 <time>2010-09-02T12:01:23Z</time>
 </trkpt>
 <trkpt lat="47.095539" lon="13.598174">
 <ele>1100.10</ele>
 <time>2010-09-02T12:01:31Z</time>
 </trkpt>
 <trkpt lat="47.095146" lon="13.598239">
 <ele>1099.70</ele>
 <time>2010-09-02T12:01:38Z</time>
 </trkpt>
 <trkpt lat="47.094746" lon="13.598360">
 <ele>1098.68</ele>
 <time>2010-09-02T12:01:45Z</time>
 </trkpt>
 <trkpt lat="47.094311" lon="13.598568">
 <ele>1098.10</ele>
 <time>2010-09-02T12:01:52Z</time>
 </trkpt>
 <trkpt lat="47.093731" lon="13.598979">
 <ele>1096.17</ele>
 <time>2010-09-02T12:02:01Z</time>
 </trkpt>
 <trkpt lat="47.093193" lon="13.599325">
 <ele>1094.38</ele>
 <time>2010-09-02T12:02:09Z</time>
 </trkpt>
 <trkpt lat="47.092701" lon="13.599489">
 <ele>1093.71</ele>
 <time>2010-09-02T12:02:16Z</time>
 </trkpt>
 <trkpt lat="47.092121" lon="13.599534">
 <ele>1093.14</ele>
 <time>2010-09-02T12:02:24Z</time>
 </trkpt>
 <trkpt lat="47.091469" lon="13.599485">
 <ele>1092.56</ele>
 <time>2010-09-02T12:02:33Z</time>
 </trkpt>
 <trkpt lat="47.090836" lon="13.599282">
 <ele>1091.73</ele>
 <time>2010-09-02T12:02:42Z</time>
 </trkpt>
 <trkpt lat="47.090328" lon="13.598930">
 <ele>1090.96</ele>
 <time>2010-09-02T12:02:50Z</time>
 </trkpt>
 <trkpt lat="47.089737" lon="13.598391">
 <ele>1091.14</ele>
 <time>2010-09-02T12:03:00Z</time>
 </trkpt>
 <trkpt lat="47.089184" lon="13.597988">
 <ele>1089.59</ele>
 <time>2010-09-02T12:03:09Z</time>
 </trkpt>
 <trkpt lat="47.088726" lon="13.597842">
 <ele>1090.08</ele>
 <time>2010-09-02T12:03:16Z</time>
 </trkpt>
 <trkpt lat="47.088158" lon="13.597677">
 <ele>1090.02</ele>
 <time>2010-09-02T12:03:25Z</time>
 </trkpt>
 <trkpt lat="47.087708" lon="13.597422">
 <ele>1090.78</ele>
 <time>2010-09-02T12:03:33Z</time>
 </trkpt>
 <trkpt lat="47.087254" lon="13.597070">
 <ele>1091.60</ele>
 <time>2010-09-02T12:03:42Z</time>
 </trkpt>
 <trkpt lat="47.086891" lon="13.596817">
 <ele>1091.96</ele>
 <time>2010-09-02T12:03:49Z</time>
 </trkpt>
 <trkpt lat="47.086357" lon="13.596551">
 <ele>1090.98</ele>
 <time>2010-09-02T12:03:58Z</time>
 </trkpt>
 <trkpt lat="47.085892" lon="13.596404">
 <ele>1091.80</ele>
 <time>2010-09-02T12:04:06Z</time>
 </trkpt>
 <trkpt lat="47.085361" lon="13.596317">
 <ele>1092.48</ele>
 <time>2010-09-02T12:04:15Z</time>
 </trkpt>
 <trkpt lat="47.084770" lon="13.596176">
 <ele>1092.58</ele>
 <time>2010-09-02T12:04:25Z</time>
 </trkpt>
 <trkpt lat="47.084419" lon="13.595950">
 <ele>1092.16</ele>
 <time>2010-09-02T12:04:31Z</time>
 </trkpt>
 <trkpt lat="47.084049" lon="13.595552">
 <ele>1091.37</ele>
 <time>2010-09-02T12:04:38Z</time>
 </trkpt>
 <trkpt lat="47.083721" lon="13.595149">
 <ele>1091.17</ele>
 <time>2010-09-02T12:04:45Z</time>
 </trkpt>
 <trkpt lat="47.083378" lon="13.594765">
 <ele>1091.68</ele>
 <time>2010-09-02T12:04:52Z</time>
 </trkpt>
 <trkpt lat="47.083130" lon="13.594388">
 <ele>1091.51</ele>
 <time>2010-09-02T12:04:58Z</time>
 </trkpt>
 <trkpt lat="47.082844" lon="13.593773">
 <ele>1091.83</ele>
 <time>2010-09-02T12:05:07Z</time>
 </trkpt>
 <trkpt lat="47.082649" lon="13.593112">
 <ele>1093.65</ele>
 <time>2010-09-02T12:05:16Z</time>
 </trkpt>
 <trkpt lat="47.082512" lon="13.592250">
 <ele>1094.13</ele>
 <time>2010-09-02T12:05:27Z</time>
 </trkpt>
 <trkpt lat="47.082409" lon="13.591308">
 <ele>1094.13</ele>
 <time>2010-09-02T12:05:39Z</time>
 </trkpt>
 <trkpt lat="47.082355" lon="13.590779">
 <ele>1094.54</ele>
 <time>2010-09-02T12:05:46Z</time>
 </trkpt>
 <trkpt lat="47.082226" lon="13.590125">
 <ele>1095.72</ele>
 <time>2010-09-02T12:05:56Z</time>
 </trkpt>
 <trkpt lat="47.082108" lon="13.589554">
 <ele>1097.57</ele>
 <time>2010-09-02T12:06:05Z</time>
 </trkpt>
 <trkpt lat="47.082058" lon="13.588925">
 <ele>1098.14</ele>
 <time>2010-09-02T12:06:15Z</time>
 </trkpt>
 <trkpt lat="47.081993" lon="13.588342">
 <ele>1097.39</ele>
 <time>2010-09-02T12:06:24Z</time>
 </trkpt>
 <trkpt lat="47.081879" lon="13.587614">
 <ele>1097.69</ele>
 <time>2010-09-02T12:06:35Z</time>
 </trkpt>
 <trkpt lat="47.081753" lon="13.586831">
 <ele>1097.43</ele>
 <time>2010-09-02T12:06:46Z</time>
 </trkpt>
 <trkpt lat="47.081631" lon="13.586119">
 <ele>1097.34</ele>
 <time>2010-09-02T12:06:56Z</time>
 </trkpt>
 <trkpt lat="47.081493" lon="13.585489">
 <ele>1095.85</ele>
 <time>2010-09-02T12:07:05Z</time>
 </trkpt>
 <trkpt lat="47.081326" lon="13.584911">
 <ele>1097.24</ele>
 <time>2010-09-02T12:07:14Z</time>
 </trkpt>
 <trkpt lat="47.081131" lon="13.584232">
 <ele>1097.32</ele>
 <time>2010-09-02T12:07:25Z</time>
 </trkpt>
 <trkpt lat="47.080967" lon="13.583577">
 <ele>1098.77</ele>
 <time>2010-09-02T12:07:36Z</time>
 </trkpt>
 <trkpt lat="47.080872" lon="13.583109">
 <ele>1099.29</ele>
 <time>2010-09-02T12:07:44Z</time>
 </trkpt>
 <trkpt lat="47.080784" lon="13.582483">
 <ele>1100.12</ele>
 <time>2010-09-02T12:07:55Z</time>
 </trkpt>
 <trkpt lat="47.080727" lon="13.581858">
 <ele>1100.95</ele>
 <time>2010-09-02T12:08:06Z</time>
 </trkpt>
 <trkpt lat="47.080692" lon="13.581348">
 <ele>1100.82</ele>
 <time>2010-09-02T12:08:14Z</time>
 </trkpt>
 <trkpt lat="47.080624" lon="13.580707">
 <ele>1100.16</ele>
 <time>2010-09-02T12:08:23Z</time>
 </trkpt>
 <trkpt lat="47.080498" lon="13.580169">
 <ele>1099.50</ele>
 <time>2010-09-02T12:08:30Z</time>
 </trkpt>
 <trkpt lat="47.080292" lon="13.579567">
 <ele>1098.65</ele>
 <time>2010-09-02T12:08:38Z</time>
 </trkpt>
 <trkpt lat="47.080124" lon="13.579092">
 <ele>1097.99</ele>
 <time>2010-09-02T12:08:45Z</time>
 </trkpt>
 <trkpt lat="47.079922" lon="13.578285">
 <ele>1097.56</ele>
 <time>2010-09-02T12:08:56Z</time>
 </trkpt>
 <trkpt lat="47.079811" lon="13.577529">
 <ele>1098.28</ele>
 <time>2010-09-02T12:09:06Z</time>
 </trkpt>
 <trkpt lat="47.079769" lon="13.576738">
 <ele>1098.75</ele>
 <time>2010-09-02T12:09:17Z</time>
 </trkpt>
 <trkpt lat="47.079784" lon="13.576088">
 <ele>1099.11</ele>
 <time>2010-09-02T12:09:27Z</time>
 </trkpt>
 <trkpt lat="47.079849" lon="13.575416">
 <ele>1101.15</ele>
 <time>2010-09-02T12:09:38Z</time>
 </trkpt>
 <trkpt lat="47.079971" lon="13.574765">
 <ele>1101.78</ele>
 <time>2010-09-02T12:09:49Z</time>
 </trkpt>
 <trkpt lat="47.080051" lon="13.574107">
 <ele>1101.56</ele>
 <time>2010-09-02T12:10:00Z</time>
 </trkpt>
 <trkpt lat="47.080063" lon="13.573501">
 <ele>1102.31</ele>
 <time>2010-09-02T12:10:10Z</time>
 </trkpt>
 <trkpt lat="47.080082" lon="13.572809">
 <ele>1103.26</ele>
 <time>2010-09-02T12:10:21Z</time>
 </trkpt>
 <trkpt lat="47.080162" lon="13.572327">
 <ele>1103.86</ele>
 <time>2010-09-02T12:10:29Z</time>
 </trkpt>
 <trkpt lat="47.080311" lon="13.571816">
 <ele>1104.44</ele>
 <time>2010-09-02T12:10:38Z</time>
 </trkpt>
 <trkpt lat="47.080544" lon="13.571151">
 <ele>1105.74</ele>
 <time>2010-09-02T12:10:50Z</time>
 </trkpt>
 <trkpt lat="47.080704" lon="13.570679">
 <ele>1105.36</ele>
 <time>2010-09-02T12:10:59Z</time>
 </trkpt>
 <trkpt lat="47.080879" lon="13.570157">
 <ele>1106.13</ele>
 <time>2010-09-02T12:11:09Z</time>
 </trkpt>
 <trkpt lat="47.081085" lon="13.569560">
 <ele>1106.12</ele>
 <time>2010-09-02T12:11:20Z</time>
 </trkpt>
 <trkpt lat="47.081299" lon="13.568934">
 <ele>1106.77</ele>
 <time>2010-09-02T12:11:31Z</time>
 </trkpt>
 <trkpt lat="47.081551" lon="13.568192">
 <ele>1107.58</ele>
 <time>2010-09-02T12:11:44Z</time>
 </trkpt>
 <trkpt lat="47.081783" lon="13.567506">
 <ele>1108.51</ele>
 <time>2010-09-02T12:11:56Z</time>
 </trkpt>
 <trkpt lat="47.082027" lon="13.566801">
 <ele>1109.38</ele>
 <time>2010-09-02T12:12:08Z</time>
 </trkpt>
 <trkpt lat="47.082268" lon="13.566259">
 <ele>1107.81</ele>
 <time>2010-09-02T12:12:18Z</time>
 </trkpt>
 <trkpt lat="47.082527" lon="13.565837">
 <ele>1109.48</ele>
 <time>2010-09-02T12:12:27Z</time>
 </trkpt>
 <trkpt lat="47.082867" lon="13.565442">
 <ele>1110.42</ele>
 <time>2010-09-02T12:12:37Z</time>
 </trkpt>
 <trkpt lat="47.083260" lon="13.565096">
 <ele>1111.65</ele>
 <time>2010-09-02T12:12:48Z</time>
 </trkpt>
 <trkpt lat="47.083496" lon="13.564893">
 <ele>1112.63</ele>
 <time>2010-09-02T12:12:55Z</time>
 </trkpt>
 <trkpt lat="47.083813" lon="13.564593">
 <ele>1112.92</ele>
 <time>2010-09-02T12:13:05Z</time>
 </trkpt>
 <trkpt lat="47.084072" lon="13.564295">
 <ele>1113.73</ele>
 <time>2010-09-02T12:13:14Z</time>
 </trkpt>
 <trkpt lat="47.084335" lon="13.563891">
 <ele>1114.27</ele>
 <time>2010-09-02T12:13:24Z</time>
 </trkpt>
 <trkpt lat="47.084568" lon="13.563440">
 <ele>1114.79</ele>
 <time>2010-09-02T12:13:34Z</time>
 </trkpt>
 <trkpt lat="47.084743" lon="13.562983">
 <ele>1114.69</ele>
 <time>2010-09-02T12:13:43Z</time>
 </trkpt>
 <trkpt lat="47.084930" lon="13.562334">
 <ele>1114.26</ele>
 <time>2010-09-02T12:13:54Z</time>
 </trkpt>
 <trkpt lat="47.085091" lon="13.561587">
 <ele>1113.13</ele>
 <time>2010-09-02T12:14:06Z</time>
 </trkpt>
 <trkpt lat="47.085239" lon="13.560908">
 <ele>1113.68</ele>
 <time>2010-09-02T12:14:17Z</time>
 </trkpt>
 <trkpt lat="47.085526" lon="13.560128">
 <ele>1113.12</ele>
 <time>2010-09-02T12:14:30Z</time>
 </trkpt>
 <trkpt lat="47.085808" lon="13.559594">
 <ele>1112.83</ele>
 <time>2010-09-02T12:14:40Z</time>
 </trkpt>
 <trkpt lat="47.086197" lon="13.558959">
 <ele>1112.99</ele>
 <time>2010-09-02T12:14:53Z</time>
 </trkpt>
 <trkpt lat="47.086319" lon="13.558752">
 <ele>1113.27</ele>
 <time>2010-09-02T12:14:58Z</time>
 </trkpt>
 <trkpt lat="47.086334" lon="13.558746">
 <ele>1114.00</ele>
 <time>2010-09-02T12:15:01Z</time>
 </trkpt>
 <trkpt lat="47.086384" lon="13.558614">
 <ele>1113.72</ele>
 <time>2010-09-02T12:15:36Z</time>
 </trkpt>
 <trkpt lat="47.086460" lon="13.558425">
 <ele>1113.82</ele>
 <time>2010-09-02T12:15:41Z</time>
 </trkpt>
 <trkpt lat="47.086517" lon="13.558301">
 <ele>1114.08</ele>
 <time>2010-09-02T12:15:47Z</time>
 </trkpt>
 <trkpt lat="47.086567" lon="13.558137">
 <ele>1113.18</ele>
 <time>2010-09-02T12:16:51Z</time>
 </trkpt>
 <trkpt lat="47.086662" lon="13.557859">
 <ele>1111.80</ele>
 <time>2010-09-02T12:16:57Z</time>
 </trkpt>
 <trkpt lat="47.086777" lon="13.557404">
 <ele>1112.84</ele>
 <time>2010-09-02T12:17:05Z</time>
 </trkpt>
 <trkpt lat="47.086887" lon="13.556790">
 <ele>1112.61</ele>
 <time>2010-09-02T12:17:15Z</time>
 </trkpt>
 <trkpt lat="47.087040" lon="13.556089">
 <ele>1112.40</ele>
 <time>2010-09-02T12:17:26Z</time>
 </trkpt>
 <trkpt lat="47.087223" lon="13.555552">
 <ele>1112.73</ele>
 <time>2010-09-02T12:17:35Z</time>
 </trkpt>
 <trkpt lat="47.087467" lon="13.555058">
 <ele>1113.06</ele>
 <time>2010-09-02T12:17:44Z</time>
 </trkpt>
 <trkpt lat="47.087799" lon="13.554512">
 <ele>1111.70</ele>
 <time>2010-09-02T12:17:55Z</time>
 </trkpt>
 <trkpt lat="47.088120" lon="13.553943">
 <ele>1112.01</ele>
 <time>2010-09-02T12:18:06Z</time>
 </trkpt>
 <trkpt lat="47.088306" lon="13.553418">
 <ele>1112.16</ele>
 <time>2010-09-02T12:18:15Z</time>
 </trkpt>
 <trkpt lat="47.088425" lon="13.552836">
 <ele>1113.41</ele>
 <time>2010-09-02T12:18:24Z</time>
 </trkpt>
 <trkpt lat="47.088474" lon="13.552225">
 <ele>1112.81</ele>
 <time>2010-09-02T12:18:33Z</time>
 </trkpt>
 <trkpt lat="47.088520" lon="13.551224">
 <ele>1113.49</ele>
 <time>2010-09-02T12:18:48Z</time>
 </trkpt>
 <trkpt lat="47.088638" lon="13.550651">
 <ele>1113.69</ele>
 <time>2010-09-02T12:18:57Z</time>
 </trkpt>
 <trkpt lat="47.088676" lon="13.550532">
 <ele>1113.65</ele>
 <time>2010-09-02T12:18:59Z</time>
 </trkpt>
 <trkpt lat="47.088943" lon="13.550010">
 <ele>1112.79</ele>
 <time>2010-09-02T12:19:09Z</time>
 </trkpt>
 <trkpt lat="47.089252" lon="13.549416">
 <ele>1113.92</ele>
 <time>2010-09-02T12:19:21Z</time>
 </trkpt>
 <trkpt lat="47.089409" lon="13.548875">
 <ele>1114.53</ele>
 <time>2010-09-02T12:19:30Z</time>
 </trkpt>
 <trkpt lat="47.089443" lon="13.548557">
 <ele>1113.98</ele>
 <time>2010-09-02T12:19:35Z</time>
 </trkpt>
 <trkpt lat="47.089420" lon="13.547967">
 <ele>1115.15</ele>
 <time>2010-09-02T12:19:44Z</time>
 </trkpt>
 <trkpt lat="47.089394" lon="13.547635">
 <ele>1114.27</ele>
 <time>2010-09-02T12:19:49Z</time>
 </trkpt>
 <trkpt lat="47.089462" lon="13.547075">
 <ele>1114.41</ele>
 <time>2010-09-02T12:19:58Z</time>
 </trkpt>
 <trkpt lat="47.089596" lon="13.546407">
 <ele>1115.19</ele>
 <time>2010-09-02T12:20:09Z</time>
 </trkpt>
 <trkpt lat="47.089756" lon="13.546029">
 <ele>1115.15</ele>
 <time>2010-09-02T12:20:16Z</time>
 </trkpt>
 <trkpt lat="47.089962" lon="13.545776">
 <ele>1115.80</ele>
 <time>2010-09-02T12:20:22Z</time>
 </trkpt>
 <trkpt lat="47.090340" lon="13.545438">
 <ele>1116.84</ele>
 <time>2010-09-02T12:20:32Z</time>
 </trkpt>
 <trkpt lat="47.090546" lon="13.545101">
 <ele>1115.83</ele>
 <time>2010-09-02T12:20:39Z</time>
 </trkpt>
 <trkpt lat="47.090668" lon="13.544686">
 <ele>1115.32</ele>
 <time>2010-09-02T12:20:46Z</time>
 </trkpt>
 <trkpt lat="47.090683" lon="13.544239">
 <ele>1115.74</ele>
 <time>2010-09-02T12:20:53Z</time>
 </trkpt>
 <trkpt lat="47.090630" lon="13.543729">
 <ele>1116.09</ele>
 <time>2010-09-02T12:21:01Z</time>
 </trkpt>
 <trkpt lat="47.090588" lon="13.543135">
 <ele>1116.73</ele>
 <time>2010-09-02T12:21:10Z</time>
 </trkpt>
 <trkpt lat="47.090630" lon="13.542746">
 <ele>1116.58</ele>
 <time>2010-09-02T12:21:16Z</time>
 </trkpt>
 <trkpt lat="47.090775" lon="13.542349">
 <ele>1116.84</ele>
 <time>2010-09-02T12:21:23Z</time>
 </trkpt>
 <trkpt lat="47.091000" lon="13.541824">
 <ele>1116.73</ele>
 <time>2010-09-02T12:21:33Z</time>
 </trkpt>
 <trkpt lat="47.091030" lon="13.541705">
 <ele>1116.82</ele>
 <time>2010-09-02T12:21:35Z</time>
 </trkpt>
 <trkpt lat="47.091091" lon="13.541070">
 <ele>1117.02</ele>
 <time>2010-09-02T12:21:45Z</time>
 </trkpt>
 <trkpt lat="47.091183" lon="13.540511">
 <ele>1116.80</ele>
 <time>2010-09-02T12:21:54Z</time>
 </trkpt>
 <trkpt lat="47.091328" lon="13.540066">
 <ele>1117.15</ele>
 <time>2010-09-02T12:22:02Z</time>
 </trkpt>
 <trkpt lat="47.091461" lon="13.539466">
 <ele>1117.29</ele>
 <time>2010-09-02T12:22:12Z</time>
 </trkpt>
 <trkpt lat="47.091518" lon="13.538892">
 <ele>1118.19</ele>
 <time>2010-09-02T12:22:21Z</time>
 </trkpt>
 <trkpt lat="47.091614" lon="13.538183">
 <ele>1117.96</ele>
 <time>2010-09-02T12:22:32Z</time>
 </trkpt>
 <trkpt lat="47.091747" lon="13.537841">
 <ele>1118.11</ele>
 <time>2010-09-02T12:22:38Z</time>
 </trkpt>
 <trkpt lat="47.091984" lon="13.537542">
 <ele>1118.06</ele>
 <time>2010-09-02T12:22:45Z</time>
 </trkpt>
 <trkpt lat="47.092331" lon="13.537261">
 <ele>1118.10</ele>
 <time>2010-09-02T12:22:54Z</time>
 </trkpt>
 <trkpt lat="47.092552" lon="13.536953">
 <ele>1118.38</ele>
 <time>2010-09-02T12:23:01Z</time>
 </trkpt>
 <trkpt lat="47.092693" lon="13.536547">
 <ele>1118.76</ele>
 <time>2010-09-02T12:23:08Z</time>
 </trkpt>
 <trkpt lat="47.092739" lon="13.536217">
 <ele>1118.78</ele>
 <time>2010-09-02T12:23:13Z</time>
 </trkpt>
 <trkpt lat="47.092690" lon="13.535687">
 <ele>1118.47</ele>
 <time>2010-09-02T12:23:21Z</time>
 </trkpt>
 <trkpt lat="47.092552" lon="13.535064">
 <ele>1118.98</ele>
 <time>2010-09-02T12:23:31Z</time>
 </trkpt>
 <trkpt lat="47.092403" lon="13.534307">
 <ele>1118.53</ele>
 <time>2010-09-02T12:23:43Z</time>
 </trkpt>
 <trkpt lat="47.092400" lon="13.534041">
 <ele>1118.83</ele>
 <time>2010-09-02T12:23:47Z</time>
 </trkpt>
 <trkpt lat="47.092422" lon="13.533843">
 <ele>1118.86</ele>
 <time>2010-09-02T12:23:50Z</time>
 </trkpt>
 <trkpt lat="47.092583" lon="13.533372">
 <ele>1119.10</ele>
 <time>2010-09-02T12:23:58Z</time>
 </trkpt>
 <trkpt lat="47.092846" lon="13.532844">
 <ele>1119.41</ele>
 <time>2010-09-02T12:24:08Z</time>
 </trkpt>
 <trkpt lat="47.092983" lon="13.532280">
 <ele>1120.01</ele>
 <time>2010-09-02T12:24:17Z</time>
 </trkpt>
 <trkpt lat="47.093155" lon="13.531708">
 <ele>1119.99</ele>
 <time>2010-09-02T12:24:26Z</time>
 </trkpt>
 <trkpt lat="47.093376" lon="13.531135">
 <ele>1119.83</ele>
 <time>2010-09-02T12:24:36Z</time>
 </trkpt>
 <trkpt lat="47.093597" lon="13.530572">
 <ele>1119.69</ele>
 <time>2010-09-02T12:24:46Z</time>
 </trkpt>
 <trkpt lat="47.093765" lon="13.529972">
 <ele>1119.84</ele>
 <time>2010-09-02T12:24:56Z</time>
 </trkpt>
 <trkpt lat="47.093826" lon="13.529329">
 <ele>1120.56</ele>
 <time>2010-09-02T12:25:06Z</time>
 </trkpt>
 <trkpt lat="47.093880" lon="13.528579">
 <ele>1120.47</ele>
 <time>2010-09-02T12:25:17Z</time>
 </trkpt>
 <trkpt lat="47.094009" lon="13.528014">
 <ele>1120.40</ele>
 <time>2010-09-02T12:25:26Z</time>
 </trkpt>
 <trkpt lat="47.094215" lon="13.527215">
 <ele>1121.20</ele>
 <time>2010-09-02T12:25:39Z</time>
 </trkpt>
 <trkpt lat="47.094414" lon="13.526468">
 <ele>1120.79</ele>
 <time>2010-09-02T12:25:51Z</time>
 </trkpt>
 <trkpt lat="47.094501" lon="13.525918">
 <ele>1120.36</ele>
 <time>2010-09-02T12:26:00Z</time>
 </trkpt>
 <trkpt lat="47.094482" lon="13.525403">
 <ele>1120.78</ele>
 <time>2010-09-02T12:26:08Z</time>
 </trkpt>
 <trkpt lat="47.094391" lon="13.524707">
 <ele>1120.61</ele>
 <time>2010-09-02T12:26:19Z</time>
 </trkpt>
 <trkpt lat="47.094330" lon="13.523938">
 <ele>1120.96</ele>
 <time>2010-09-02T12:26:31Z</time>
 </trkpt>
 <trkpt lat="47.094357" lon="13.523416">
 <ele>1122.00</ele>
 <time>2010-09-02T12:26:39Z</time>
 </trkpt>
 <trkpt lat="47.094353" lon="13.522778">
 <ele>1121.90</ele>
 <time>2010-09-02T12:26:49Z</time>
 </trkpt>
 <trkpt lat="47.094254" lon="13.522286">
 <ele>1122.00</ele>
 <time>2010-09-02T12:26:57Z</time>
 </trkpt>
 <trkpt lat="47.094070" lon="13.521655">
 <ele>1122.47</ele>
 <time>2010-09-02T12:27:08Z</time>
 </trkpt>
 <trkpt lat="47.093967" lon="13.521011">
 <ele>1123.46</ele>
 <time>2010-09-02T12:27:19Z</time>
 </trkpt>
 <trkpt lat="47.093967" lon="13.520420">
 <ele>1123.42</ele>
 <time>2010-09-02T12:27:29Z</time>
 </trkpt>
 <trkpt lat="47.094036" lon="13.519865">
 <ele>1122.50</ele>
 <time>2010-09-02T12:27:39Z</time>
 </trkpt>
 <trkpt lat="47.094177" lon="13.519274">
 <ele>1123.75</ele>
 <time>2010-09-02T12:27:50Z</time>
 </trkpt>
 <trkpt lat="47.094368" lon="13.518648">
 <ele>1123.36</ele>
 <time>2010-09-02T12:28:02Z</time>
 </trkpt>
 <trkpt lat="47.094566" lon="13.518126">
 <ele>1124.24</ele>
 <time>2010-09-02T12:28:12Z</time>
 </trkpt>
 <trkpt lat="47.094826" lon="13.517567">
 <ele>1124.77</ele>
 <time>2010-09-02T12:28:23Z</time>
 </trkpt>
 <trkpt lat="47.095100" lon="13.517075">
 <ele>1124.93</ele>
 <time>2010-09-02T12:28:33Z</time>
 </trkpt>
 <trkpt lat="47.095463" lon="13.516576">
 <ele>1124.88</ele>
 <time>2010-09-02T12:28:44Z</time>
 </trkpt>
 <trkpt lat="47.095840" lon="13.516205">
 <ele>1125.06</ele>
 <time>2010-09-02T12:28:54Z</time>
 </trkpt>
 <trkpt lat="47.096176" lon="13.515779">
 <ele>1124.79</ele>
 <time>2010-09-02T12:29:04Z</time>
 </trkpt>
 <trkpt lat="47.096329" lon="13.515447">
 <ele>1124.71</ele>
 <time>2010-09-02T12:29:10Z</time>
 </trkpt>
 <trkpt lat="47.096462" lon="13.514911">
 <ele>1124.19</ele>
 <time>2010-09-02T12:29:19Z</time>
 </trkpt>
 <trkpt lat="47.096478" lon="13.514414">
 <ele>1124.58</ele>
 <time>2010-09-02T12:29:27Z</time>
 </trkpt>
 <trkpt lat="47.096413" lon="13.514046">
 <ele>1125.35</ele>
 <time>2010-09-02T12:29:33Z</time>
 </trkpt>
 <trkpt lat="47.096207" lon="13.513485">
 <ele>1125.95</ele>
 <time>2010-09-02T12:29:43Z</time>
 </trkpt>
 <trkpt lat="47.095970" lon="13.512861">
 <ele>1126.37</ele>
 <time>2010-09-02T12:29:54Z</time>
 </trkpt>
 <trkpt lat="47.095818" lon="13.512326">
 <ele>1126.51</ele>
 <time>2010-09-02T12:30:03Z</time>
 </trkpt>
 <trkpt lat="47.095745" lon="13.511687">
 <ele>1126.50</ele>
 <time>2010-09-02T12:30:13Z</time>
 </trkpt>
 <trkpt lat="47.095772" lon="13.511180">
 <ele>1127.34</ele>
 <time>2010-09-02T12:30:21Z</time>
 </trkpt>
 <trkpt lat="47.095856" lon="13.510708">
 <ele>1127.98</ele>
 <time>2010-09-02T12:30:29Z</time>
 </trkpt>
 <trkpt lat="47.096004" lon="13.510228">
 <ele>1127.73</ele>
 <time>2010-09-02T12:30:38Z</time>
 </trkpt>
 <trkpt lat="47.096210" lon="13.509719">
 <ele>1127.38</ele>
 <time>2010-09-02T12:30:48Z</time>
 </trkpt>
 <trkpt lat="47.096382" lon="13.509308">
 <ele>1126.95</ele>
 <time>2010-09-02T12:30:56Z</time>
 </trkpt>
 <trkpt lat="47.096466" lon="13.508929">
 <ele>1127.52</ele>
 <time>2010-09-02T12:31:02Z</time>
 </trkpt>
 <trkpt lat="47.096512" lon="13.508421">
 <ele>1127.46</ele>
 <time>2010-09-02T12:31:10Z</time>
 </trkpt>
 <trkpt lat="47.096527" lon="13.507952">
 <ele>1128.26</ele>
 <time>2010-09-02T12:31:17Z</time>
 </trkpt>
 <trkpt lat="47.096485" lon="13.507425">
 <ele>1128.51</ele>
 <time>2010-09-02T12:31:25Z</time>
 </trkpt>
 <trkpt lat="47.096542" lon="13.506910">
 <ele>1128.87</ele>
 <time>2010-09-02T12:31:33Z</time>
 </trkpt>
 <trkpt lat="47.096668" lon="13.506386">
 <ele>1129.20</ele>
 <time>2010-09-02T12:31:42Z</time>
 </trkpt>
 <trkpt lat="47.096825" lon="13.505888">
 <ele>1130.36</ele>
 <time>2010-09-02T12:31:52Z</time>
 </trkpt>
 <trkpt lat="47.096897" lon="13.505492">
 <ele>1131.41</ele>
 <time>2010-09-02T12:32:00Z</time>
 </trkpt>
 <trkpt lat="47.096851" lon="13.505230">
 <ele>1132.24</ele>
 <time>2010-09-02T12:32:05Z</time>
 </trkpt>
 <trkpt lat="47.096722" lon="13.504943">
 <ele>1131.95</ele>
 <time>2010-09-02T12:32:11Z</time>
 </trkpt>
 <trkpt lat="47.096565" lon="13.504607">
 <ele>1131.68</ele>
 <time>2010-09-02T12:32:18Z</time>
 </trkpt>
 <trkpt lat="47.096523" lon="13.504196">
 <ele>1131.11</ele>
 <time>2010-09-02T12:32:25Z</time>
 </trkpt>
 <trkpt lat="47.096493" lon="13.503596">
 <ele>1131.01</ele>
 <time>2010-09-02T12:32:35Z</time>
 </trkpt>
 <trkpt lat="47.096489" lon="13.503472">
 <ele>1131.07</ele>
 <time>2010-09-02T12:32:39Z</time>
 </trkpt>
 <trkpt lat="47.096489" lon="13.503468">
 <ele>1131.44</ele>
 <time>2010-09-02T12:32:40Z</time>
 </trkpt>
 <trkpt lat="47.096493" lon="13.503403">
 <ele>1131.35</ele>
 <time>2010-09-02T12:33:32Z</time>
 </trkpt>
 <trkpt lat="47.096493" lon="13.503376">
 <ele>1131.34</ele>
 <time>2010-09-02T12:33:33Z</time>
 </trkpt>
 <trkpt lat="47.096485" lon="13.503158">
 <ele>1131.31</ele>
 <time>2010-09-02T12:33:39Z</time>
 </trkpt>
 <trkpt lat="47.096489" lon="13.502892">
 <ele>1131.12</ele>
 <time>2010-09-02T12:33:44Z</time>
 </trkpt>
 <trkpt lat="47.096546" lon="13.502394">
 <ele>1130.80</ele>
 <time>2010-09-02T12:33:53Z</time>
 </trkpt>
 <trkpt lat="47.096634" lon="13.501929">
 <ele>1131.36</ele>
 <time>2010-09-02T12:34:02Z</time>
 </trkpt>
 <trkpt lat="47.096786" lon="13.501539">
 <ele>1131.38</ele>
 <time>2010-09-02T12:34:10Z</time>
 </trkpt>
 <trkpt lat="47.097050" lon="13.501142">
 <ele>1131.47</ele>
 <time>2010-09-02T12:34:19Z</time>
 </trkpt>
 <trkpt lat="47.097359" lon="13.500759">
 <ele>1131.52</ele>
 <time>2010-09-02T12:34:29Z</time>
 </trkpt>
 <trkpt lat="47.097584" lon="13.500426">
 <ele>1131.55</ele>
 <time>2010-09-02T12:34:37Z</time>
 </trkpt>
 <trkpt lat="47.097813" lon="13.499942">
 <ele>1133.03</ele>
 <time>2010-09-02T12:34:47Z</time>
 </trkpt>
 <trkpt lat="47.098045" lon="13.499412">
 <ele>1134.09</ele>
 <time>2010-09-02T12:34:58Z</time>
 </trkpt>
 <trkpt lat="47.098320" lon="13.498828">
 <ele>1133.59</ele>
 <time>2010-09-02T12:35:10Z</time>
 </trkpt>
 <trkpt lat="47.098351" lon="13.498784">
 <ele>1133.72</ele>
 <time>2010-09-02T12:35:11Z</time>
 </trkpt>
 <trkpt lat="47.098625" lon="13.498513">
 <ele>1133.40</ele>
 <time>2010-09-02T12:35:19Z</time>
 </trkpt>
 <trkpt lat="47.098827" lon="13.498246">
 <ele>1134.22</ele>
 <time>2010-09-02T12:35:26Z</time>
 </trkpt>
 <trkpt lat="47.099033" lon="13.497969">
 <ele>1134.58</ele>
 <time>2010-09-02T12:35:33Z</time>
 </trkpt>
 <trkpt lat="47.099251" lon="13.497735">
 <ele>1135.34</ele>
 <time>2010-09-02T12:35:40Z</time>
 </trkpt>
 <trkpt lat="47.099339" lon="13.497555">
 <ele>1135.82</ele>
 <time>2010-09-02T12:35:45Z</time>
 </trkpt>
 <trkpt lat="47.099331" lon="13.497293">
 <ele>1136.05</ele>
 <time>2010-09-02T12:35:51Z</time>
 </trkpt>
 <trkpt lat="47.099285" lon="13.496885">
 <ele>1136.68</ele>
 <time>2010-09-02T12:36:00Z</time>
 </trkpt>
 <trkpt lat="47.099255" lon="13.496367">
 <ele>1137.48</ele>
 <time>2010-09-02T12:36:10Z</time>
 </trkpt>
 <trkpt lat="47.099216" lon="13.495985">
 <ele>1137.89</ele>
 <time>2010-09-02T12:36:18Z</time>
 </trkpt>
 <trkpt lat="47.099174" lon="13.495543">
 <ele>1139.53</ele>
 <time>2010-09-02T12:36:27Z</time>
 </trkpt>
 <trkpt lat="47.099186" lon="13.495213">
 <ele>1139.72</ele>
 <time>2010-09-02T12:36:34Z</time>
 </trkpt>
 <trkpt lat="47.099308" lon="13.494873">
 <ele>1139.05</ele>
 <time>2010-09-02T12:36:42Z</time>
 </trkpt>
 <trkpt lat="47.099442" lon="13.494546">
 <ele>1139.09</ele>
 <time>2010-09-02T12:36:50Z</time>
 </trkpt>
 <trkpt lat="47.099571" lon="13.494183">
 <ele>1139.61</ele>
 <time>2010-09-02T12:36:59Z</time>
 </trkpt>
 <trkpt lat="47.099689" lon="13.493930">
 <ele>1139.45</ele>
 <time>2010-09-02T12:37:07Z</time>
 </trkpt>
 <trkpt lat="47.099808" lon="13.493724">
 <ele>1139.46</ele>
 <time>2010-09-02T12:37:13Z</time>
 </trkpt>
 <trkpt lat="47.099960" lon="13.493443">
 <ele>1139.56</ele>
 <time>2010-09-02T12:37:21Z</time>
 </trkpt>
 <trkpt lat="47.100002" lon="13.493368">
 <ele>1140.27</ele>
 <time>2010-09-02T12:37:26Z</time>
 </trkpt>
 <trkpt lat="47.099945" lon="13.493377">
 <ele>1140.17</ele>
 <time>2010-09-02T12:37:32Z</time>
 </trkpt>
 <trkpt lat="47.099850" lon="13.493551">
 <ele>1139.91</ele>
 <time>2010-09-02T12:37:39Z</time>
 </trkpt>
 <trkpt lat="47.099701" lon="13.493817">
 <ele>1139.65</ele>
 <time>2010-09-02T12:37:46Z</time>
 </trkpt>
 <trkpt lat="47.099560" lon="13.494095">
 <ele>1139.35</ele>
 <time>2010-09-02T12:37:52Z</time>
 </trkpt>
 <trkpt lat="47.099442" lon="13.494408">
 <ele>1138.79</ele>
 <time>2010-09-02T12:37:58Z</time>
 </trkpt>
 <trkpt lat="47.099277" lon="13.494835">
 <ele>1138.94</ele>
 <time>2010-09-02T12:38:06Z</time>
 </trkpt>
 <trkpt lat="47.099133" lon="13.495247">
 <ele>1139.42</ele>
 <time>2010-09-02T12:38:14Z</time>
 </trkpt>
 <trkpt lat="47.099125" lon="13.495560">
 <ele>1139.82</ele>
 <time>2010-09-02T12:38:20Z</time>
 </trkpt>
 <trkpt lat="47.099171" lon="13.496088">
 <ele>1139.23</ele>
 <time>2010-09-02T12:38:29Z</time>
 </trkpt>
 <trkpt lat="47.099194" lon="13.496312">
 <ele>1138.57</ele>
 <time>2010-09-02T12:38:32Z</time>
 </trkpt>
 <trkpt lat="47.099194" lon="13.496551">
 <ele>1137.66</ele>
 <time>2010-09-02T12:38:35Z</time>
 </trkpt>
 <trkpt lat="47.099220" lon="13.496803">
 <ele>1136.99</ele>
 <time>2010-09-02T12:38:38Z</time>
 </trkpt>
 <trkpt lat="47.099281" lon="13.497429">
 <ele>1136.27</ele>
 <time>2010-09-02T12:38:46Z</time>
 </trkpt>
 <trkpt lat="47.099335" lon="13.497598">
 <ele>1136.32</ele>
 <time>2010-09-02T12:38:50Z</time>
 </trkpt>
 <trkpt lat="47.099350" lon="13.497650">
 <ele>1136.69</ele>
 <time>2010-09-02T12:38:54Z</time>
 </trkpt>
 <trkpt lat="47.099354" lon="13.497648">
 <ele>1136.74</ele>
 <time>2010-09-02T12:38:55Z</time>
 </trkpt>
 <trkpt lat="47.099339" lon="13.497692">
 <ele>1135.82</ele>
 <time>2010-09-02T12:40:45Z</time>
 </trkpt>
 <trkpt lat="47.099285" lon="13.497735">
 <ele>1135.43</ele>
 <time>2010-09-02T12:40:48Z</time>
 </trkpt>
 <trkpt lat="47.099316" lon="13.497817">
 <ele>1135.08</ele>
 <time>2010-09-02T12:40:53Z</time>
 </trkpt>
 <trkpt lat="47.099339" lon="13.497844">
 <ele>1135.08</ele>
 <time>2010-09-02T12:40:58Z</time>
 </trkpt>
 <trkpt lat="47.099316" lon="13.497845">
 <ele>1134.79</ele>
 <time>2010-09-02T12:43:22Z</time>
 </trkpt>
 <trkpt lat="47.099262" lon="13.497801">
 <ele>1134.88</ele>
 <time>2010-09-02T12:43:27Z</time>
 </trkpt>
 <trkpt lat="47.099239" lon="13.497764">
 <ele>1135.05</ele>
 <time>2010-09-02T12:43:29Z</time>
 </trkpt>
 <trkpt lat="47.099159" lon="13.497791">
 <ele>1134.87</ele>
 <time>2010-09-02T12:43:33Z</time>
 </trkpt>
 <trkpt lat="47.098999" lon="13.497944">
 <ele>1134.65</ele>
 <time>2010-09-02T12:43:40Z</time>
 </trkpt>
 <trkpt lat="47.098873" lon="13.498087">
 <ele>1134.09</ele>
 <time>2010-09-02T12:43:44Z</time>
 </trkpt>
 <trkpt lat="47.098755" lon="13.498287">
 <ele>1133.69</ele>
 <time>2010-09-02T12:43:48Z</time>
 </trkpt>
 <trkpt lat="47.098461" lon="13.498591">
 <ele>1133.19</ele>
 <time>2010-09-02T12:43:56Z</time>
 </trkpt>
 <trkpt lat="47.098274" lon="13.498786">
 <ele>1133.03</ele>
 <time>2010-09-02T12:44:01Z</time>
 </trkpt>
 <trkpt lat="47.098057" lon="13.499240">
 <ele>1133.29</ele>
 <time>2010-09-02T12:44:09Z</time>
 </trkpt>
 <trkpt lat="47.097820" lon="13.499772">
 <ele>1132.62</ele>
 <time>2010-09-02T12:44:17Z</time>
 </trkpt>
 <trkpt lat="47.097565" lon="13.500321">
 <ele>1131.39</ele>
 <time>2010-09-02T12:44:24Z</time>
 </trkpt>
 <trkpt lat="47.097198" lon="13.500854">
 <ele>1129.71</ele>
 <time>2010-09-02T12:44:31Z</time>
 </trkpt>
 <trkpt lat="47.096741" lon="13.501468">
 <ele>1129.96</ele>
 <time>2010-09-02T12:44:40Z</time>
 </trkpt>
 <trkpt lat="47.096546" lon="13.501965">
 <ele>1129.94</ele>
 <time>2010-09-02T12:44:46Z</time>
 </trkpt>
 <trkpt lat="47.096432" lon="13.502631">
 <ele>1129.03</ele>
 <time>2010-09-02T12:44:53Z</time>
 </trkpt>
 <trkpt lat="47.096405" lon="13.503321">
 <ele>1128.63</ele>
 <time>2010-09-02T12:45:00Z</time>
 </trkpt>
 <trkpt lat="47.096443" lon="13.503974">
 <ele>1128.90</ele>
 <time>2010-09-02T12:45:07Z</time>
 </trkpt>
 <trkpt lat="47.096466" lon="13.504430">
 <ele>1129.10</ele>
 <time>2010-09-02T12:45:12Z</time>
 </trkpt>
 <trkpt lat="47.096577" lon="13.504842">
 <ele>1128.75</ele>
 <time>2010-09-02T12:45:17Z</time>
 </trkpt>
 <trkpt lat="47.096760" lon="13.505202">
 <ele>1129.21</ele>
 <time>2010-09-02T12:45:22Z</time>
 </trkpt>
 <trkpt lat="47.096821" lon="13.505638">
 <ele>1129.32</ele>
 <time>2010-09-02T12:45:27Z</time>
 </trkpt>
 <trkpt lat="47.096786" lon="13.505829">
 <ele>1129.31</ele>
 <time>2010-09-02T12:45:29Z</time>
 </trkpt>
 <trkpt lat="47.096561" lon="13.506616">
 <ele>1127.88</ele>
 <time>2010-09-02T12:45:37Z</time>
 </trkpt>
 <trkpt lat="47.096466" lon="13.507263">
 <ele>1127.35</ele>
 <time>2010-09-02T12:45:43Z</time>
 </trkpt>
 <trkpt lat="47.096481" lon="13.507809">
 <ele>1127.07</ele>
 <time>2010-09-02T12:45:48Z</time>
 </trkpt>
 <trkpt lat="47.096451" lon="13.508459">
 <ele>1127.00</ele>
 <time>2010-09-02T12:45:54Z</time>
 </trkpt>
 <trkpt lat="47.096401" lon="13.509010">
 <ele>1126.19</ele>
 <time>2010-09-02T12:45:59Z</time>
 </trkpt>
 <trkpt lat="47.096176" lon="13.509677">
 <ele>1126.30</ele>
 <time>2010-09-02T12:46:06Z</time>
 </trkpt>
 <trkpt lat="47.095959" lon="13.510201">
 <ele>1127.10</ele>
 <time>2010-09-02T12:46:12Z</time>
 </trkpt>
 <trkpt lat="47.095749" lon="13.510929">
 <ele>1126.34</ele>
 <time>2010-09-02T12:46:20Z</time>
 </trkpt>
 <trkpt lat="47.095692" lon="13.511513">
 <ele>1125.57</ele>
 <time>2010-09-02T12:46:26Z</time>
 </trkpt>
 <trkpt lat="47.095753" lon="13.512320">
 <ele>1125.19</ele>
 <time>2010-09-02T12:46:34Z</time>
 </trkpt>
 <trkpt lat="47.095913" lon="13.512897">
 <ele>1124.69</ele>
 <time>2010-09-02T12:46:40Z</time>
 </trkpt>
 <trkpt lat="47.096306" lon="13.513923">
 <ele>1123.80</ele>
 <time>2010-09-02T12:46:51Z</time>
 </trkpt>
 <trkpt lat="47.096390" lon="13.514226">
 <ele>1123.82</ele>
 <time>2010-09-02T12:46:54Z</time>
 </trkpt>
 <trkpt lat="47.096416" lon="13.514775">
 <ele>1123.31</ele>
 <time>2010-09-02T12:46:59Z</time>
 </trkpt>
 <trkpt lat="47.096386" lon="13.514992">
 <ele>1123.00</ele>
 <time>2010-09-02T12:47:01Z</time>
 </trkpt>
 <trkpt lat="47.096207" lon="13.515591">
 <ele>1122.88</ele>
 <time>2010-09-02T12:47:07Z</time>
 </trkpt>
 <trkpt lat="47.095966" lon="13.515984">
 <ele>1122.54</ele>
 <time>2010-09-02T12:47:12Z</time>
 </trkpt>
 <trkpt lat="47.095570" lon="13.516386">
 <ele>1122.77</ele>
 <time>2010-09-02T12:47:19Z</time>
 </trkpt>
 <trkpt lat="47.095165" lon="13.516882">
 <ele>1122.41</ele>
 <time>2010-09-02T12:47:27Z</time>
 </trkpt>
 <trkpt lat="47.094784" lon="13.517549">
 <ele>1122.32</ele>
 <time>2010-09-02T12:47:36Z</time>
 </trkpt>
 <trkpt lat="47.094425" lon="13.518364">
 <ele>1121.50</ele>
 <time>2010-09-02T12:47:46Z</time>
 </trkpt>
 <trkpt lat="47.094151" lon="13.519237">
 <ele>1121.69</ele>
 <time>2010-09-02T12:47:56Z</time>
 </trkpt>
 <trkpt lat="47.093967" lon="13.520075">
 <ele>1121.23</ele>
 <time>2010-09-02T12:48:05Z</time>
 </trkpt>
 <trkpt lat="47.093922" lon="13.520746">
 <ele>1121.04</ele>
 <time>2010-09-02T12:48:12Z</time>
 </trkpt>
 <trkpt lat="47.093964" lon="13.521328">
 <ele>1120.45</ele>
 <time>2010-09-02T12:48:18Z</time>
 </trkpt>
 <trkpt lat="47.094124" lon="13.521986">
 <ele>1120.36</ele>
 <time>2010-09-02T12:48:25Z</time>
 </trkpt>
 <trkpt lat="47.094303" lon="13.522664">
 <ele>1119.70</ele>
 <time>2010-09-02T12:48:32Z</time>
 </trkpt>
 <trkpt lat="47.094337" lon="13.523306">
 <ele>1119.43</ele>
 <time>2010-09-02T12:48:38Z</time>
 </trkpt>
 <trkpt lat="47.094296" lon="13.524026">
 <ele>1119.14</ele>
 <time>2010-09-02T12:48:45Z</time>
 </trkpt>
 <trkpt lat="47.094357" lon="13.524734">
 <ele>1119.49</ele>
 <time>2010-09-02T12:48:52Z</time>
 </trkpt>
 <trkpt lat="47.094467" lon="13.525593">
 <ele>1118.60</ele>
 <time>2010-09-02T12:49:00Z</time>
 </trkpt>
 <trkpt lat="47.094444" lon="13.526129">
 <ele>1118.36</ele>
 <time>2010-09-02T12:49:05Z</time>
 </trkpt>
 <trkpt lat="47.094307" lon="13.526733">
 <ele>1117.57</ele>
 <time>2010-09-02T12:49:11Z</time>
 </trkpt>
 <trkpt lat="47.094025" lon="13.527761">
 <ele>1117.57</ele>
 <time>2010-09-02T12:49:22Z</time>
 </trkpt>
 <trkpt lat="47.093803" lon="13.528670">
 <ele>1117.94</ele>
 <time>2010-09-02T12:49:32Z</time>
 </trkpt>
 <trkpt lat="47.093758" lon="13.529355">
 <ele>1117.60</ele>
 <time>2010-09-02T12:49:39Z</time>
 </trkpt>
 <trkpt lat="47.093685" lon="13.530056">
 <ele>1117.36</ele>
 <time>2010-09-02T12:49:46Z</time>
 </trkpt>
 <trkpt lat="47.093494" lon="13.530697">
 <ele>1116.31</ele>
 <time>2010-09-02T12:49:53Z</time>
 </trkpt>
 <trkpt lat="47.093132" lon="13.531616">
 <ele>1116.66</ele>
 <time>2010-09-02T12:50:04Z</time>
 </trkpt>
 <trkpt lat="47.092911" lon="13.532323">
 <ele>1116.69</ele>
 <time>2010-09-02T12:50:12Z</time>
 </trkpt>
 <trkpt lat="47.092762" lon="13.532888">
 <ele>1116.57</ele>
 <time>2010-09-02T12:50:18Z</time>
 </trkpt>
 <trkpt lat="47.092533" lon="13.533360">
 <ele>1116.03</ele>
 <time>2010-09-02T12:50:24Z</time>
 </trkpt>
 <trkpt lat="47.092430" lon="13.533595">
 <ele>1116.15</ele>
 <time>2010-09-02T12:50:27Z</time>
 </trkpt>
 <trkpt lat="47.092327" lon="13.534155">
 <ele>1116.08</ele>
 <time>2010-09-02T12:50:33Z</time>
 </trkpt>
 <trkpt lat="47.092331" lon="13.534351">
 <ele>1115.86</ele>
 <time>2010-09-02T12:50:35Z</time>
 </trkpt>
 <trkpt lat="47.092453" lon="13.535019">
 <ele>1115.68</ele>
 <time>2010-09-02T12:50:42Z</time>
 </trkpt>
 <trkpt lat="47.092655" lon="13.536001">
 <ele>1115.10</ele>
 <time>2010-09-02T12:50:52Z</time>
 </trkpt>
 <trkpt lat="47.092663" lon="13.536102">
 <ele>1114.93</ele>
 <time>2010-09-02T12:50:53Z</time>
 </trkpt>
 <trkpt lat="47.092632" lon="13.536498">
 <ele>1114.62</ele>
 <time>2010-09-02T12:50:57Z</time>
 </trkpt>
 <trkpt lat="47.092430" lon="13.537028">
 <ele>1115.15</ele>
 <time>2010-09-02T12:51:03Z</time>
 </trkpt>
 <trkpt lat="47.092152" lon="13.537338">
 <ele>1114.67</ele>
 <time>2010-09-02T12:51:08Z</time>
 </trkpt>
 <trkpt lat="47.091763" lon="13.537692">
 <ele>1115.09</ele>
 <time>2010-09-02T12:51:15Z</time>
 </trkpt>
 <trkpt lat="47.091579" lon="13.537991">
 <ele>1115.11</ele>
 <time>2010-09-02T12:51:19Z</time>
 </trkpt>
 <trkpt lat="47.091454" lon="13.538542">
 <ele>1115.00</ele>
 <time>2010-09-02T12:51:25Z</time>
 </trkpt>
 <trkpt lat="47.091362" lon="13.539546">
 <ele>1114.02</ele>
 <time>2010-09-02T12:51:35Z</time>
 </trkpt>
 <trkpt lat="47.091209" lon="13.540201">
 <ele>1114.22</ele>
 <time>2010-09-02T12:51:42Z</time>
 </trkpt>
 <trkpt lat="47.091022" lon="13.540924">
 <ele>1114.06</ele>
 <time>2010-09-02T12:51:50Z</time>
 </trkpt>
 <trkpt lat="47.090965" lon="13.541615">
 <ele>1113.41</ele>
 <time>2010-09-02T12:51:57Z</time>
 </trkpt>
 <trkpt lat="47.090950" lon="13.541712">
 <ele>1113.47</ele>
 <time>2010-09-02T12:51:58Z</time>
 </trkpt>
 <trkpt lat="47.090828" lon="13.542079">
 <ele>1113.33</ele>
 <time>2010-09-02T12:52:02Z</time>
 </trkpt>
 <trkpt lat="47.090553" lon="13.542753">
 <ele>1113.22</ele>
 <time>2010-09-02T12:52:10Z</time>
 </trkpt>
 <trkpt lat="47.090530" lon="13.542845">
 <ele>1113.16</ele>
 <time>2010-09-02T12:52:11Z</time>
 </trkpt>
 <trkpt lat="47.090504" lon="13.543330">
 <ele>1113.38</ele>
 <time>2010-09-02T12:52:16Z</time>
 </trkpt>
 <trkpt lat="47.090591" lon="13.544230">
 <ele>1112.62</ele>
 <time>2010-09-02T12:52:25Z</time>
 </trkpt>
 <trkpt lat="47.090599" lon="13.544541">
 <ele>1112.26</ele>
 <time>2010-09-02T12:52:28Z</time>
 </trkpt>
 <trkpt lat="47.090538" lon="13.544944">
 <ele>1112.30</ele>
 <time>2010-09-02T12:52:32Z</time>
 </trkpt>
 <trkpt lat="47.090332" lon="13.545355">
 <ele>1112.36</ele>
 <time>2010-09-02T12:52:37Z</time>
 </trkpt>
 <trkpt lat="47.090221" lon="13.545476">
 <ele>1112.01</ele>
 <time>2010-09-02T12:52:39Z</time>
 </trkpt>
 <trkpt lat="47.089775" lon="13.545891">
 <ele>1112.02</ele>
 <time>2010-09-02T12:52:47Z</time>
 </trkpt>
 <trkpt lat="47.089516" lon="13.546389">
 <ele>1112.01</ele>
 <time>2010-09-02T12:52:53Z</time>
 </trkpt>
 <trkpt lat="47.089333" lon="13.547308">
 <ele>1111.20</ele>
 <time>2010-09-02T12:53:02Z</time>
 </trkpt>
 <trkpt lat="47.089317" lon="13.547847">
 <ele>1110.72</ele>
 <time>2010-09-02T12:53:07Z</time>
 </trkpt>
 <trkpt lat="47.089359" lon="13.548604">
 <ele>1109.42</ele>
 <time>2010-09-02T12:53:14Z</time>
 </trkpt>
 <trkpt lat="47.089287" lon="13.549119">
 <ele>1109.56</ele>
 <time>2010-09-02T12:53:19Z</time>
 </trkpt>
 <trkpt lat="47.089153" lon="13.549486">
 <ele>1109.34</ele>
 <time>2010-09-02T12:53:23Z</time>
 </trkpt>
 <trkpt lat="47.088730" lon="13.550284">
 <ele>1109.85</ele>
 <time>2010-09-02T12:53:33Z</time>
 </trkpt>
 <trkpt lat="47.088573" lon="13.550605">
 <ele>1109.62</ele>
 <time>2010-09-02T12:53:37Z</time>
 </trkpt>
 <trkpt lat="47.088432" lon="13.551261">
 <ele>1109.90</ele>
 <time>2010-09-02T12:53:44Z</time>
 </trkpt>
 <trkpt lat="47.088398" lon="13.552157">
 <ele>1109.70</ele>
 <time>2010-09-02T12:53:53Z</time>
 </trkpt>
 <trkpt lat="47.088352" lon="13.552958">
 <ele>1109.33</ele>
 <time>2010-09-02T12:54:01Z</time>
 </trkpt>
 <trkpt lat="47.088215" lon="13.553547">
 <ele>1108.33</ele>
 <time>2010-09-02T12:54:07Z</time>
 </trkpt>
 <trkpt lat="47.087948" lon="13.554148">
 <ele>1108.48</ele>
 <time>2010-09-02T12:54:14Z</time>
 </trkpt>
 <trkpt lat="47.087502" lon="13.554873">
 <ele>1108.39</ele>
 <time>2010-09-02T12:54:24Z</time>
 </trkpt>
 <trkpt lat="47.087151" lon="13.555541">
 <ele>1108.33</ele>
 <time>2010-09-02T12:54:33Z</time>
 </trkpt>
 <trkpt lat="47.086945" lon="13.556119">
 <ele>1108.78</ele>
 <time>2010-09-02T12:54:40Z</time>
 </trkpt>
 <trkpt lat="47.086765" lon="13.556950">
 <ele>1108.92</ele>
 <time>2010-09-02T12:54:49Z</time>
 </trkpt>
 <trkpt lat="47.086544" lon="13.557985">
 <ele>1108.81</ele>
 <time>2010-09-02T12:55:00Z</time>
 </trkpt>
 <trkpt lat="47.086285" lon="13.558638">
 <ele>1108.96</ele>
 <time>2010-09-02T12:55:08Z</time>
 </trkpt>
 <trkpt lat="47.085983" lon="13.559140">
 <ele>1109.14</ele>
 <time>2010-09-02T12:55:15Z</time>
 </trkpt>
 <trkpt lat="47.085476" lon="13.559998">
 <ele>1109.26</ele>
 <time>2010-09-02T12:55:27Z</time>
 </trkpt>
 <trkpt lat="47.085243" lon="13.560576">
 <ele>1109.22</ele>
 <time>2010-09-02T12:55:34Z</time>
 </trkpt>
 <trkpt lat="47.085041" lon="13.561357">
 <ele>1109.58</ele>
 <time>2010-09-02T12:55:43Z</time>
 </trkpt>
 <trkpt lat="47.084866" lon="13.562256">
 <ele>1110.19</ele>
 <time>2010-09-02T12:55:53Z</time>
 </trkpt>
 <trkpt lat="47.084614" lon="13.563111">
 <ele>1109.69</ele>
 <time>2010-09-02T12:56:03Z</time>
 </trkpt>
 <trkpt lat="47.084328" lon="13.563750">
 <ele>1110.00</ele>
 <time>2010-09-02T12:56:11Z</time>
 </trkpt>
 <trkpt lat="47.083984" lon="13.564271">
 <ele>1109.74</ele>
 <time>2010-09-02T12:56:18Z</time>
 </trkpt>
 <trkpt lat="47.083542" lon="13.564731">
 <ele>1108.13</ele>
 <time>2010-09-02T12:56:25Z</time>
 </trkpt>
 <trkpt lat="47.082832" lon="13.565351">
 <ele>1105.50</ele>
 <time>2010-09-02T12:56:35Z</time>
 </trkpt>
 <trkpt lat="47.082451" lon="13.565809">
 <ele>1104.30</ele>
 <time>2010-09-02T12:56:41Z</time>
 </trkpt>
 <trkpt lat="47.082134" lon="13.566346">
 <ele>1103.75</ele>
 <time>2010-09-02T12:56:47Z</time>
 </trkpt>
 <trkpt lat="47.081863" lon="13.567022">
 <ele>1103.52</ele>
 <time>2010-09-02T12:56:54Z</time>
 </trkpt>
 <trkpt lat="47.081490" lon="13.568139">
 <ele>1102.47</ele>
 <time>2010-09-02T12:57:05Z</time>
 </trkpt>
 <trkpt lat="47.081108" lon="13.569253">
 <ele>1101.56</ele>
 <time>2010-09-02T12:57:16Z</time>
 </trkpt>
 <trkpt lat="47.080730" lon="13.570383">
 <ele>1100.32</ele>
 <time>2010-09-02T12:57:27Z</time>
 </trkpt>
 <trkpt lat="47.080345" lon="13.571501">
 <ele>1098.70</ele>
 <time>2010-09-02T12:57:38Z</time>
 </trkpt>
 <trkpt lat="47.080067" lon="13.572434">
 <ele>1097.82</ele>
 <time>2010-09-02T12:57:47Z</time>
 </trkpt>
 <trkpt lat="47.079994" lon="13.573096">
 <ele>1096.95</ele>
 <time>2010-09-02T12:57:53Z</time>
 </trkpt>
 <trkpt lat="47.079983" lon="13.574136">
 <ele>1096.30</ele>
 <time>2010-09-02T12:58:02Z</time>
 </trkpt>
 <trkpt lat="47.079891" lon="13.574822">
 <ele>1094.64</ele>
 <time>2010-09-02T12:58:08Z</time>
 </trkpt>
 <trkpt lat="47.079754" lon="13.575684">
 <ele>1094.57</ele>
 <time>2010-09-02T12:58:16Z</time>
 </trkpt>
 <trkpt lat="47.079697" lon="13.576528">
 <ele>1092.93</ele>
 <time>2010-09-02T12:58:24Z</time>
 </trkpt>
 <trkpt lat="47.079720" lon="13.577389">
 <ele>1092.13</ele>
 <time>2010-09-02T12:58:32Z</time>
 </trkpt>
 <trkpt lat="47.079826" lon="13.578227">
 <ele>1091.69</ele>
 <time>2010-09-02T12:58:40Z</time>
 </trkpt>
 <trkpt lat="47.080040" lon="13.579096">
 <ele>1091.62</ele>
 <time>2010-09-02T12:58:49Z</time>
 </trkpt>
 <trkpt lat="47.080326" lon="13.579895">
 <ele>1092.08</ele>
 <time>2010-09-02T12:58:58Z</time>
 </trkpt>
 <trkpt lat="47.080528" lon="13.580589">
 <ele>1092.65</ele>
 <time>2010-09-02T12:59:06Z</time>
 </trkpt>
 <trkpt lat="47.080616" lon="13.581187">
 <ele>1093.32</ele>
 <time>2010-09-02T12:59:13Z</time>
 </trkpt>
 <trkpt lat="47.080666" lon="13.582045">
 <ele>1093.93</ele>
 <time>2010-09-02T12:59:23Z</time>
 </trkpt>
 <trkpt lat="47.080742" lon="13.582762">
 <ele>1093.78</ele>
 <time>2010-09-02T12:59:31Z</time>
 </trkpt>
 <trkpt lat="47.080898" lon="13.583635">
 <ele>1092.24</ele>
 <time>2010-09-02T12:59:40Z</time>
 </trkpt>
 <trkpt lat="47.081131" lon="13.584549">
 <ele>1091.07</ele>
 <time>2010-09-02T12:59:49Z</time>
 </trkpt>
 <trkpt lat="47.081440" lon="13.585629">
 <ele>1089.68</ele>
 <time>2010-09-02T13:00:00Z</time>
 </trkpt>
 <trkpt lat="47.081612" lon="13.586455">
 <ele>1089.90</ele>
 <time>2010-09-02T13:00:09Z</time>
 </trkpt>
 <trkpt lat="47.081802" lon="13.587681">
 <ele>1090.77</ele>
 <time>2010-09-02T13:00:23Z</time>
 </trkpt>
 <trkpt lat="47.081944" lon="13.588646">
 <ele>1091.30</ele>
 <time>2010-09-02T13:00:34Z</time>
 </trkpt>
 <trkpt lat="47.081997" lon="13.589266">
 <ele>1090.92</ele>
 <time>2010-09-02T13:00:41Z</time>
 </trkpt>
 <trkpt lat="47.082081" lon="13.589915">
 <ele>1090.78</ele>
 <time>2010-09-02T13:00:48Z</time>
 </trkpt>
 <trkpt lat="47.082226" lon="13.590529">
 <ele>1089.02</ele>
 <time>2010-09-02T13:00:54Z</time>
 </trkpt>
 <trkpt lat="47.082317" lon="13.591114">
 <ele>1087.35</ele>
 <time>2010-09-02T13:00:59Z</time>
 </trkpt>
 <trkpt lat="47.082409" lon="13.592021">
 <ele>1086.72</ele>
 <time>2010-09-02T13:01:07Z</time>
 </trkpt>
 <trkpt lat="47.082561" lon="13.593093">
 <ele>1085.93</ele>
 <time>2010-09-02T13:01:17Z</time>
 </trkpt>
 <trkpt lat="47.082718" lon="13.593693">
 <ele>1085.86</ele>
 <time>2010-09-02T13:01:23Z</time>
 </trkpt>
 <trkpt lat="47.082996" lon="13.594329">
 <ele>1085.55</ele>
 <time>2010-09-02T13:01:30Z</time>
 </trkpt>
 <trkpt lat="47.083370" lon="13.594862">
 <ele>1085.12</ele>
 <time>2010-09-02T13:01:37Z</time>
 </trkpt>
 <trkpt lat="47.083912" lon="13.595449">
 <ele>1084.90</ele>
 <time>2010-09-02T13:01:46Z</time>
 </trkpt>
 <trkpt lat="47.084396" lon="13.596027">
 <ele>1085.19</ele>
 <time>2010-09-02T13:01:55Z</time>
 </trkpt>
 <trkpt lat="47.084801" lon="13.596289">
 <ele>1086.07</ele>
 <time>2010-09-02T13:02:02Z</time>
 </trkpt>
 <trkpt lat="47.085247" lon="13.596398">
 <ele>1084.85</ele>
 <time>2010-09-02T13:02:09Z</time>
 </trkpt>
 <trkpt lat="47.085983" lon="13.596525">
 <ele>1084.20</ele>
 <time>2010-09-02T13:02:20Z</time>
 </trkpt>
 <trkpt lat="47.086536" lon="13.596736">
 <ele>1082.22</ele>
 <time>2010-09-02T13:02:28Z</time>
 </trkpt>
 <trkpt lat="47.087013" lon="13.597006">
 <ele>1082.83</ele>
 <time>2010-09-02T13:02:36Z</time>
 </trkpt>
 <trkpt lat="47.087502" lon="13.597374">
 <ele>1082.90</ele>
 <time>2010-09-02T13:02:45Z</time>
 </trkpt>
 <trkpt lat="47.088005" lon="13.597700">
 <ele>1081.99</ele>
 <time>2010-09-02T13:02:54Z</time>
 </trkpt>
 <trkpt lat="47.088531" lon="13.597890">
 <ele>1081.53</ele>
 <time>2010-09-02T13:03:03Z</time>
 </trkpt>
 <trkpt lat="47.089241" lon="13.598114">
 <ele>1081.65</ele>
 <time>2010-09-02T13:03:15Z</time>
 </trkpt>
 <trkpt lat="47.089592" lon="13.598363">
 <ele>1081.42</ele>
 <time>2010-09-02T13:03:22Z</time>
 </trkpt>
 <trkpt lat="47.090115" lon="13.598838">
 <ele>1081.57</ele>
 <time>2010-09-02T13:03:34Z</time>
 </trkpt>
 <trkpt lat="47.090576" lon="13.599205">
 <ele>1081.41</ele>
 <time>2010-09-02T13:03:45Z</time>
 </trkpt>
 <trkpt lat="47.090935" lon="13.599399">
 <ele>1083.01</ele>
 <time>2010-09-02T13:03:53Z</time>
 </trkpt>
 <trkpt lat="47.091351" lon="13.599531">
 <ele>1083.10</ele>
 <time>2010-09-02T13:04:02Z</time>
 </trkpt>
 <trkpt lat="47.091774" lon="13.599587">
 <ele>1082.69</ele>
 <time>2010-09-02T13:04:11Z</time>
 </trkpt>
 <trkpt lat="47.092293" lon="13.599601">
 <ele>1083.90</ele>
 <time>2010-09-02T13:04:22Z</time>
 </trkpt>
 <trkpt lat="47.092766" lon="13.599548">
 <ele>1084.43</ele>
 <time>2010-09-02T13:04:32Z</time>
 </trkpt>
 <trkpt lat="47.093105" lon="13.599441">
 <ele>1083.89</ele>
 <time>2010-09-02T13:04:40Z</time>
 </trkpt>
 <trkpt lat="47.093517" lon="13.599220">
 <ele>1085.22</ele>
 <time>2010-09-02T13:04:51Z</time>
 </trkpt>
 <trkpt lat="47.093849" lon="13.598972">
 <ele>1085.89</ele>
 <time>2010-09-02T13:05:01Z</time>
 </trkpt>
 <trkpt lat="47.094223" lon="13.598700">
 <ele>1087.31</ele>
 <time>2010-09-02T13:05:12Z</time>
 </trkpt>
 <trkpt lat="47.094662" lon="13.598462">
 <ele>1088.34</ele>
 <time>2010-09-02T13:05:24Z</time>
 </trkpt>
 <trkpt lat="47.095036" lon="13.598332">
 <ele>1089.33</ele>
 <time>2010-09-02T13:05:34Z</time>
 </trkpt>
 <trkpt lat="47.095379" lon="13.598267">
 <ele>1088.97</ele>
 <time>2010-09-02T13:05:43Z</time>
 </trkpt>
 <trkpt lat="47.095730" lon="13.598249">
 <ele>1089.32</ele>
 <time>2010-09-02T13:05:52Z</time>
 </trkpt>
 <trkpt lat="47.096111" lon="13.598294">
 <ele>1089.09</ele>
 <time>2010-09-02T13:06:02Z</time>
 </trkpt>
 <trkpt lat="47.096519" lon="13.598419">
 <ele>1089.07</ele>
 <time>2010-09-02T13:06:12Z</time>
 </trkpt>
 <trkpt lat="47.096897" lon="13.598629">
 <ele>1088.51</ele>
 <time>2010-09-02T13:06:21Z</time>
 </trkpt>
 <trkpt lat="47.097275" lon="13.598966">
 <ele>1087.59</ele>
 <time>2010-09-02T13:06:30Z</time>
 </trkpt>
 <trkpt lat="47.097633" lon="13.599390">
 <ele>1087.84</ele>
 <time>2010-09-02T13:06:39Z</time>
 </trkpt>
 <trkpt lat="47.098011" lon="13.599852">
 <ele>1087.27</ele>
 <time>2010-09-02T13:06:48Z</time>
 </trkpt>
 <trkpt lat="47.098438" lon="13.600367">
 <ele>1085.88</ele>
 <time>2010-09-02T13:06:58Z</time>
 </trkpt>
 <trkpt lat="47.098682" lon="13.600704">
 <ele>1086.04</ele>
 <time>2010-09-02T13:07:06Z</time>
 </trkpt>
 <trkpt lat="47.098709" lon="13.600750">
 <ele>1086.00</ele>
 <time>2010-09-02T13:07:07Z</time>
 </trkpt>
 <trkpt lat="47.098751" lon="13.600985">
 <ele>1086.31</ele>
 <time>2010-09-02T13:07:11Z</time>
 </trkpt>
 <trkpt lat="47.098724" lon="13.601045">
 <ele>1086.56</ele>
 <time>2010-09-02T13:07:12Z</time>
 </trkpt>
 <trkpt lat="47.098400" lon="13.601617">
 <ele>1086.22</ele>
 <time>2010-09-02T13:07:21Z</time>
 </trkpt>
 <trkpt lat="47.097942" lon="13.602414">
 <ele>1085.09</ele>
 <time>2010-09-02T13:07:32Z</time>
 </trkpt>
 <trkpt lat="47.097618" lon="13.603062">
 <ele>1084.96</ele>
 <time>2010-09-02T13:07:40Z</time>
 </trkpt>
 <trkpt lat="47.097458" lon="13.603632">
 <ele>1084.41</ele>
 <time>2010-09-02T13:07:46Z</time>
 </trkpt>
 <trkpt lat="47.097210" lon="13.604930">
 <ele>1083.64</ele>
 <time>2010-09-02T13:07:59Z</time>
 </trkpt>
 <trkpt lat="47.096966" lon="13.606153">
 <ele>1082.45</ele>
 <time>2010-09-02T13:08:11Z</time>
 </trkpt>
 <trkpt lat="47.096794" lon="13.607078">
 <ele>1081.86</ele>
 <time>2010-09-02T13:08:20Z</time>
 </trkpt>
 <trkpt lat="47.096668" lon="13.608113">
 <ele>1080.68</ele>
 <time>2010-09-02T13:08:30Z</time>
 </trkpt>
 <trkpt lat="47.096664" lon="13.608297">
 <ele>1080.98</ele>
 <time>2010-09-02T13:08:32Z</time>
 </trkpt>
 <trkpt lat="47.096725" lon="13.608447">
 <ele>1081.22</ele>
 <time>2010-09-02T13:08:34Z</time>
 </trkpt>
 <trkpt lat="47.096611" lon="13.609112">
 <ele>1079.70</ele>
 <time>2010-09-02T13:08:40Z</time>
 </trkpt>
 <trkpt lat="47.096546" lon="13.610329">
 <ele>1080.37</ele>
 <time>2010-09-02T13:08:52Z</time>
 </trkpt>
 <trkpt lat="47.096451" lon="13.611911">
 <ele>1079.56</ele>
 <time>2010-09-02T13:09:07Z</time>
 </trkpt>
 <trkpt lat="47.096375" lon="13.613284">
 <ele>1079.00</ele>
 <time>2010-09-02T13:09:20Z</time>
 </trkpt>
 <trkpt lat="47.096409" lon="13.614010">
 <ele>1079.14</ele>
 <time>2010-09-02T13:09:27Z</time>
 </trkpt>
 <trkpt lat="47.096554" lon="13.614810">
 <ele>1078.34</ele>
 <time>2010-09-02T13:09:35Z</time>
 </trkpt>
 <trkpt lat="47.096786" lon="13.615999">
 <ele>1077.84</ele>
 <time>2010-09-02T13:09:47Z</time>
 </trkpt>
 <trkpt lat="47.096924" lon="13.617030">
 <ele>1078.23</ele>
 <time>2010-09-02T13:09:57Z</time>
 </trkpt>
 <trkpt lat="47.096924" lon="13.617130">
 <ele>1078.19</ele>
 <time>2010-09-02T13:09:58Z</time>
 </trkpt>
 <trkpt lat="47.096870" lon="13.617506">
 <ele>1077.50</ele>
 <time>2010-09-02T13:10:03Z</time>
 </trkpt>
 <trkpt lat="47.096786" lon="13.617610">
 <ele>1077.43</ele>
 <time>2010-09-02T13:10:06Z</time>
 </trkpt>
 <trkpt lat="47.096649" lon="13.617602">
 <ele>1077.43</ele>
 <time>2010-09-02T13:10:10Z</time>
 </trkpt>
 <trkpt lat="47.096577" lon="13.617544">
 <ele>1077.35</ele>
 <time>2010-09-02T13:10:15Z</time>
 </trkpt>
 <trkpt lat="47.096577" lon="13.617545">
 <ele>1077.38</ele>
 <time>2010-09-02T13:10:16Z</time>
 </trkpt>
 </trkseg>
 </trk>
</gpx>
